MPMG - Transparência

Contra-cheque - Remuneração de todos os servidores ativos - Pré Resolução CNMP 200/2019

Período: 2015 - Junho

Ordem Matrícula Nome Cargo Efetivo Situação Unidade Administrativa Rendimentos Descontos Rendimento Líquido Total Indenizações Outras Remunerações Retroativas/Temporárias Data de Referência
Remuneração Básica Remuneração Eventual ou Temporária Total de Rendimentos Brutos Obrigatórios/Legais Total de Descontos
Remuneração do Cargo Efetivo Outras Verbas Remuneratórias Função de Confiança ou Cargo em Comissão Gratificação Natalina Férias Abono de Permanência Contribuição Previdenciária Imposto de Renda Retenção por Teto Constitucional
1 498900 ABDON MARCIO BARBOSA DA SILVA OFICIAL DO MP ATIVO ABRE CAMPO - COMARCA; ABRE CAMPO-PJ-02PJ 3.557,16 213,43 0,00 1.644,80 0,00 0,00 5.415,39 414,76 66,23 0,00 480,99 4.934,40 726,01 0,00 30/06/2015
2 177800 ADALBERTO MENEZES FARIA SAMORA OFICIAL DO MP ATIVO BELO HORIZONTE - COMARCA; CGMP-DIVIS DE APOIO FISC ORIENTACAO FUNCIONAL 10.243,18 3.072,95 0,00 6.658,07 0,00 0,00 19.974,20 1.557,13 2.490,99 0,00 4.048,12 15.926,08 1.100,39 852,42 30/06/2015
3 306400 ADALBERTO MOREIRA GONCALVES ANALISTA DO MP ATIVO CONTAGEM - COMARCA; CONTAGEM-PJ-01PJ 10.576,63 2.115,33 0,00 6.345,98 0,00 0,00 19.037,94 1.484,15 2.469,54 0,00 3.953,69 15.084,25 4.788,82 1.306,08 30/06/2015
4 179300 ADENISE AUXILIADORA SOUZA SAD OFICIAL DO MP ATIVO BARBACENA - COMARCA; BARBACENA-PJ-06PJ 9.920,24 2.976,07 0,00 4.647,49 0,00 0,00 17.543,80 1.678,61 2.761,28 0,00 4.439,89 13.103,91 1.473,42 2.432,33 30/06/2015
5 77700 ADIL EXPEDITO DE OLIVEIRA JUNIOR ASSESSOR ATIVO BELO HORIZONTE - COMARCA; SUPERINTENDENCIA DE RECURSOS HUMANOS 0,00 6.761,44 8.451,80 7.606,62 0,00 1.673,46 24.493,32 1.673,46 3.314,28 0,00 4.987,74 19.505,58 1.484,57 69,53 30/06/2015
6 272200 ADILSON BATISTA ORNELAS OFICIAL DO MP ATIVO LAVRAS - COMARCA; LAVRAS-PJ-SECRETARIA 4.175,17 835,03 0,00 2.505,10 0,00 0,00 7.515,30 551,12 239,19 0,00 790,31 6.724,99 726,01 0,00 30/06/2015
7 380100 ADILSON GONCALVES DE MELO JUNIOR ANALISTA DO MP ATIVO ARAXÁ - COMARCA; ARAXA-PJ-05PJ 7.677,29 767,73 0,00 4.222,51 0,00 0,00 12.667,53 928,95 1.093,28 0,00 2.022,23 10.645,30 961,01 0,00 30/06/2015
8 148800 ADILSON JANUARIO OFICIAL DO MP ATIVO BELO HORIZONTE - COMARCA; BH-22PJ PES COM DEF E IDOSOS-SECRETARIA 11.276,58 5.638,29 0,00 8.457,44 0,00 0,00 25.372,31 1.860,64 3.166,28 0,00 5.026,92 20.345,39 726,01 0,00 30/06/2015
9 322601 ADMILSON SILVEIRA ANALISTA DO MP ATIVO SAO JOAO DO PARAISO COMARCA; SAO JOAO DO PARAISO-PJ-UNPJ 5.139,92 0,00 0,00 2.569,96 0,00 0,00 7.709,88 565,39 393,14 0,00 958,53 6.751,35 726,01 0,00 30/06/2015
10 333700 ADRIANA ABRITTA TEIXEIRA OFICIAL DO MP ATIVO BELO HORIZONTE - COMARCA; DIRET DE PESSOAL DO MINISTERIO PUBLICO - DPMP 6.432,09 1.286,42 0,00 3.859,26 0,00 0,00 11.577,77 998,64 1.352,62 0,00 2.351,26 9.226,51 726,01 1.360,04 30/06/2015
11 468500 ADRIANA APARECIDA FIRMINO ANALISTA DO MP ATIVO CARATINGA - COMARCA; CARATINGA-PJ-04PJ 7.200,74 432,04 0,00 3.816,39 0,00 0,00 11.449,17 839,61 946,62 0,00 1.786,23 9.662,94 961,01 0,00 30/06/2015
12 326100 ADRIANA AUGUSTA AMARAL BELO OFICIAL DO MP ATIVO BARBACENA - COMARCA; BARBACENA-PJ-08PJ 6.432,09 1.286,42 0,00 3.859,26 0,00 0,00 11.577,77 849,04 915,47 0,00 1.764,51 9.813,26 961,01 0,00 30/06/2015
13 605700 ADRIANA COSTA LIRA OFICIAL DO MP ATIVO BELO HORIZONTE - COMARCA; DIRET DE FORMACAO, APERFEIC. E POS-GRADUACAO 3.445,03 0,00 0,00 1.722,52 0,00 0,00 5.167,55 378,95 105,11 0,00 484,06 4.683,49 726,01 0,00 30/06/2015
14 541100 ADRIANA CRISTINA DE OLIVEIRA OFICIAL DO MP ATIVO GUAPÉ - COMARCA; GUAPE-PJ-UNPJ 3.445,03 0,00 0,00 0,00 0,00 0,00 3.445,03 378,95 76,67 0,00 455,62 2.989,41 961,01 0,00 30/06/2015
15 254800 ADRIANA DAS GRACAS FERNANDES ANALISTA DO MP ATIVO UBERABA - COMARCA; UBERABA-PJ-07PJ 11.643,70 5.821,85 0,00 8.732,78 0,00 0,00 26.198,33 1.921,21 3.353,20 0,00 5.274,41 20.923,92 726,01 0,00 30/06/2015
16 246900 ADRIANA DE ALMEIDA ANTONINI ASSESSOR ATIVO BELO HORIZONTE - COMARCA; PROCON-MG-SECRETARIA DE FISCALIZACOES 0,00 500,12 2.500,62 1.500,37 0,00 0,00 4.501,11 409,94 142,72 0,00 552,66 3.948,45 726,01 0,00 30/06/2015
17 217400 ADRIANA DE CARVALHO CATAO BRAGA ASSESSOR ATIVO BELO HORIZONTE - COMARCA; EXTINTA - DIRETORIA DE CONTRATOS E CONVÊNIOS 0,00 1.992,45 6.641,51 4.316,98 0,00 0,00 12.950,94 513,01 1.563,55 0,00 2.076,56 10.874,38 726,01 0,00 30/06/2015
18 434600 ADRIANA FERREIRA DA SILVA ANALISTA DO MP ATIVO BELO HORIZONTE - COMARCA; BH-14PJ DEFESA CONSUMIDOR-GAB 112PJ 7.435,23 743,52 0,00 4.089,38 0,00 0,00 12.268,13 899,66 1.132,39 0,00 2.032,05 10.236,08 726,01 0,00 30/06/2015
19 499800 ADRIANA FERREIRA TIAGO OFICIAL DO MP ATIVO SALINAS - COMARCA; SALINAS-PJ-02PJ 4.241,01 254,46 0,00 2.247,74 1.498,49 0,00 8.241,70 494,50 642,99 0,00 1.137,49 7.104,21 726,01 0,00 30/06/2015
20 543400 ADRIANA GUIMARAES NUNES DE PAULA ANALISTA DO MP ATIVO PATROCÍNIO - COMARCA; PATROCINIO-PJ-01PJ 5.842,66 0,00 0,00 2.921,33 0,00 0,00 8.763,99 642,69 560,63 0,00 1.203,32 7.560,67 726,01 0,00 30/06/2015
21 471500 ADRIANA HORTA DE CARVALHO RODRIGUES DE SOUSA ANALISTA DO MP ATIVO BELO HORIZONTE - COMARCA; GRUPO ESP PROM PROC JUST DEF PROB ADM PAT PUB 7.200,74 432,04 0,00 0,00 0,00 0,00 7.632,78 839,61 946,62 0,00 1.786,23 5.846,55 4.765,98 327,25 30/06/2015
22 86400 ADRIANA MOREIRA CALDEIRA BRANT OFICIAL DO MP ATIVO BELO HORIZONTE - COMARCA; EXTINTA-TUTELA DAS FUNDACOES-21 PJ- GABINETE 9.920,24 4.960,12 0,00 7.440,18 0,00 0,00 22.320,54 1.636,84 2.720,47 0,00 4.357,31 17.963,23 726,01 0,00 30/06/2015
23 480700 ADRIANA MOREIRA DE AVELLAR CEZILIO OFICIAL DO MP ATIVO BELO HORIZONTE - COMARCA; EXTINTA - DIVISAO DE MATERIAL DE CONSUMO 3.916,07 234,96 0,00 1.775,96 0,00 0,00 5.926,99 456,61 142,49 0,00 599,10 5.327,89 1.196,01 0,00 30/06/2015
24 326000 ADRIANA PEREIRA CARNEIRO RESENDE OFICIAL DO MP ATIVO BELO HORIZONTE - COMARCA; CAO-DIREITOS HUMANOS E APOIO COMUNITARIO 6.032,93 1.206,59 0,00 3.619,76 0,00 0,00 10.859,28 796,35 798,24 0,00 1.594,59 9.264,69 726,01 0,00 30/06/2015
25 502200 ADRIANA PETRUCCI DAVINA OFICIAL DO MP ATIVO PATROCÍNIO - COMARCA; PATROCINIO-PJ-03PJ 4.241,01 254,46 0,00 1.868,44 0,00 0,00 6.363,91 494,50 264,09 0,00 758,59 5.605,32 726,01 0,00 30/06/2015
26 201900 ADRIANA REIS PIMENTA OFICIAL DO MP ATIVO TEÓFILO OTONI - COMARCA; TEOFILO OTONI-PJ-03PJ 9.920,24 2.976,07 0,00 6.448,16 0,00 0,00 19.344,47 1.678,61 2.865,56 0,00 4.544,17 14.800,30 1.038,20 2.392,44 30/06/2015
27 278700 ADRIANA RODRIGUES PINTO COELHO AMARAL ANALISTA DO MP ATIVO BELO HORIZONTE - COMARCA; ASSESS TECNICA DA CORREGEDORIA-GERAL DO MP 10.576,63 2.115,33 0,00 6.345,98 0,00 0,00 19.037,94 1.396,12 2.132,72 0,00 3.528,84 15.509,10 4.788,82 372,42 30/06/2015
28 468000 ADRIANA SANTOS DE SANTANA MOREIRA ANALISTA DO MP ATIVO ARAÇUAÍ - COMARCA; ARACUAI-PJ-01PJ 7.200,74 2.160,22 0,00 0,00 0,00 0,00 9.360,96 1.029,71 1.317,46 0,00 2.347,17 7.013,79 961,01 0,00 30/06/2015
29 194700 ADRIANA TSUKIDE OFICIAL DO MP ATIVO UBERABA - COMARCA; COORD REG BACIAS PARANAIBA BAIXO RIO GRANDE 9.920,24 2.976,07 0,00 0,00 0,00 0,00 12.896,31 1.678,61 2.921,76 0,00 4.600,37 8.295,94 5.970,73 3.238,55 30/06/2015
30 206400 ADRIANE MENDES DE SOUZA ANALISTA DO MP ATIVO BELO HORIZONTE - COMARCA; BH-23PJ CIVEL-FISC AC POL PUB II 13.097,56 6.548,78 0,00 9.823,17 0,00 0,00 29.469,51 2.161,10 3.886,94 0,00 6.048,04 23.421,47 4.788,82 372,42 30/06/2015
31 465500 ADRIANO CASSIANO MATOS ANALISTA DO MP ATIVO ARAXÁ - COMARCA; ARAXA-PJ-02PJ 6.641,51 398,49 0,00 3.520,00 0,00 0,00 10.560,00 774,40 853,68 0,00 1.628,08 8.931,92 726,01 0,00 30/06/2015
32 500500 ADRIANO DE ALMEIDA SILVA OFICIAL DO MP ATIVO UBERABA - COMARCA; UBERABA-PJ-12PJ 4.241,01 254,46 0,00 2.247,74 0,00 0,00 6.743,21 494,50 264,09 0,00 758,59 5.984,62 726,01 0,00 30/06/2015
33 187200 ADRIANO DE FREITAS MARON OFICIAL DO MP ATIVO PONTE NOVA - COMARCA; PONTE NOVA-PJ-03PJ 7.200,74 5.760,59 0,00 6.480,67 0,00 0,00 19.442,00 1.425,75 2.302,92 0,00 3.728,67 15.713,33 726,01 0,00 30/06/2015
34 477900 ADRIANO FERREIRA DE ALMEIDA OFICIAL DO MP ATIVO MONTES CLAROS - COMARCA; MONTES CLAROS-PJ-04PJ 4.668,87 280,13 0,00 2.474,50 0,00 0,00 7.423,50 544,39 269,59 0,00 813,98 6.609,52 1.612,20 66,46 30/06/2015
35 269101 ADRIANO PEREIRA SILVA ANALISTA DO MP ATIVO UBERABA - COMARCA; UBERABA-PJ-02PJ 7.200,74 432,04 0,00 3.816,39 0,00 0,00 11.449,17 839,61 894,49 0,00 1.734,10 9.715,07 961,01 0,00 30/06/2015
36 414200 ADRIANO RODRIGUES FERNANDES ANALISTA DO MP ATIVO CARANDAÍ - COMARCA; CARANDAI-PJ-UNPJ 6.857,79 685,78 0,00 3.771,79 0,00 0,00 11.315,36 829,79 820,52 0,00 1.650,31 9.665,05 961,01 0,00 30/06/2015
37 536700 ADRIELLE COSTA MARIA OFICIAL DO MP ATIVO SERRO - COMARCA; SERRO-PJ-SECRETARIA 3.445,03 0,00 0,00 1.480,48 0,00 0,00 4.925,51 378,95 105,11 0,00 484,06 4.441,45 726,01 0,00 30/06/2015
38 514300 ADRIENE DAMASCENO BRAGA ANALISTA DO MP ATIVO ALFENAS - COMARCA; ALFENAS-PJ-03PJ 6.641,51 398,49 0,00 3.520,00 0,00 0,00 10.560,00 774,40 853,68 0,00 1.628,08 8.931,92 726,01 0,00 30/06/2015
39 254600 ADRIENE DOMINGUES COSTA ANALISTA DO MP ATIVO BELO HORIZONTE - COMARCA; PROC. JUSTICA DIR. DIFUSOS E COLETIVOS-SEC 9.920,24 1.984,05 0,00 5.952,15 0,00 0,00 17.856,44 1.309,47 2.044,22 0,00 3.353,69 14.502,75 0,00 0,00 30/06/2015
40 252001 ADRIENE GOMES BARRETO ANALISTA DO MP ATIVO BELO HORIZONTE - COMARCA; BH-19PJ SAUDE-SECRETARIA 150PJ 8.727,00 2.618,10 0,00 5.672,55 0,00 0,00 17.017,65 1.247,96 1.907,35 0,00 3.155,31 13.862,34 726,01 0,00 30/06/2015
41 118100 AGENOR ALCIR RODRIGUES DA SILVA OFICIAL DO MP ATIVO SÃO JOÃO NEPOMUCENO - COMARCA; SAO JOAO NEPOMUCENO-PJ-01PJ 11.643,70 8.150,59 0,00 9.897,15 0,00 0,00 29.691,44 2.177,37 3.975,29 0,00 6.152,66 23.538,78 726,01 0,00 30/06/2015
42 302500 AGENOR JOSE DA SILVA JUNIOR ANALISTA DO MP ATIVO JUIZ DE FORA - COMARCA; JUIZ DE FORA-PJ-07PJ 10.576,63 2.115,33 0,00 6.345,98 0,00 0,00 19.037,94 1.484,15 2.328,59 0,00 3.812,74 15.225,20 777,87 805,03 30/06/2015
43 357500 AILSON WAGNER DE ALENCAR SILVA OFICIAL DO MP ATIVO BELO HORIZONTE - COMARCA; DIRETORIA DO COLEGIO E DA CAMARA DE PJ 6.229,29 1.868,79 0,00 3.125,52 0,00 0,00 11.223,60 890,79 956,23 0,00 1.847,02 9.376,58 961,01 0,00 30/06/2015
44 366400 AILTON ALEXSSANDRO ALVES OFICIAL DO MP ATIVO PARÁ DE MINAS - COMARCA; PARA DE MINAS-PJ-05PJ 5.842,66 1.752,80 0,00 0,00 0,00 0,00 7.595,46 835,50 989,63 0,00 1.825,13 5.770,33 726,01 0,00 30/06/2015
45 318900 AILTON DE CASTRO RIBEIRO JUNIOR OFICIAL DO MP ATIVO POUSO ALEGRE - COMARCA; POUSO ALEGRE-PJ-03PJ 6.432,09 2.461,24 0,00 3.428,94 0,00 0,00 12.322,27 849,04 1.186,41 0,00 2.035,45 10.286,82 726,01 0,00 30/06/2015
46 464400 ALAN MONTEIRO GASPAR ANALISTA DO MP ATIVO SETE LAGOAS - COMARCA; SETE LAGOAS-PJ-03PJ 7.200,74 432,04 0,00 2.897,20 0,00 0,00 10.529,98 839,61 998,76 0,00 1.838,37 8.691,61 726,01 0,00 30/06/2015
47 492000 ALANA DE CASTRO FREITAS OFICIAL DO MP ATIVO BOM SUCESSO - COMARCA; BOM SUCESSO-PJ-UNPJ 3.557,16 213,43 0,00 1.885,30 1.256,86 0,00 6.912,75 414,76 401,73 0,00 816,49 6.096,26 726,01 0,00 30/06/2015
48 306700 ALANA MARCIA DE OLIVEIRA OFICIAL DO MP ATIVO BELO HORIZONTE - COMARCA; DIRETORIA DE ADMINISTRACAO FINANCEIRA 6.641,51 1.328,30 0,00 3.984,91 0,00 0,00 11.954,72 1.037,34 1.438,73 0,00 2.476,07 9.478,65 726,01 1.460,58 30/06/2015
49 324500 ALANMAR COUTINHO COSTA OFICIAL DO MP ATIVO LEOPOLDINA - COMARCA; LEOPOLDINA-PJ-02PJ 5.842,66 1.168,53 0,00 3.505,60 0,00 0,00 10.516,79 819,87 572,28 0,00 1.392,15 9.124,64 402,55 442,20 30/06/2015
50 508200 ALBERTO DA SILVA VIEIRA ASSESSOR ATIVO BELO HORIZONTE - COMARCA; ASSESS ESPECIAL DO PGJ ATUACAO JUNTO A PGJAA 0,00 0,00 9.304,45 4.652,23 0,00 0,00 13.956,68 513,01 1.643,66 0,00 2.156,67 11.800,01 726,01 0,00 30/06/2015
51 407300 ALBERTO LUIZ SOARES DE OLIVEIRA ANALISTA DO MP ATIVO BELO HORIZONTE - COMARCA; SUPERINTENDÊNCIA DE ENGENHARIA E ARQUITETURA 8.185,27 818,53 0,00 0,00 0,00 0,00 9.003,80 990,42 1.334,32 0,00 2.324,74 6.679,06 726,01 0,00 30/06/2015
52 118200 ALBERTO PEREIRA DA COSTA OFICIAL DO MP ATIVO DORES DO INDAIÁ - COMARCA; DORES DO INDAIA-PJ-UNPJ 10.576,63 8.461,30 0,00 9.518,97 0,00 0,00 28.556,90 2.226,22 3.979,71 0,00 6.205,93 22.350,97 726,01 1.200,44 30/06/2015
53 282400 ALCILENE MARISE DE ARAUJO ANALISTA DO MP ATIVO BELO HORIZONTE - COMARCA; BH-23PJ INF-FISC MED SOC FEC 10.576,63 2.115,33 0,00 6.345,98 0,00 0,00 19.037,94 1.396,12 2.132,72 0,00 3.528,84 15.509,10 726,01 0,00 30/06/2015
54 112600 ALCIONE DA MOTA JARDIM OFICIAL DO MP ATIVO BELO HORIZONTE - COMARCA; CAO-CRIANCAS E ADOLESCENTES 8.451,80 4.225,90 0,00 6.338,85 0,00 0,00 19.016,55 1.394,55 2.181,37 0,00 3.575,92 15.440,63 726,01 0,00 30/06/2015
55 396400 ALCIONE DE FREITAS E SILVA ANALISTA DO MP ATIVO BELO HORIZONTE - COMARCA; DIRET DE PESSOAL DO MINISTERIO PUBLICO - DPMP 8.727,00 2.618,10 0,00 4.094,89 0,00 0,00 15.439,99 1.247,96 1.907,35 0,00 3.155,31 12.284,68 726,01 0,00 30/06/2015
56 161600 ALCIONE NERY SOUZA ASSESSOR ATIVO BELO HORIZONTE - COMARCA; GRUPO ESPECIAL DE DEFESA DA FAUNA 0,00 2.656,60 6.641,51 4.649,06 0,00 0,00 13.947,17 513,01 1.746,20 0,00 2.259,21 11.687,96 726,01 0,00 30/06/2015
57 376000 ALDA GOMES LANA OFICIAL DO MP ATIVO BELO HORIZONTE - COMARCA; BH-18PJ VIOLENCIA DOMESTICA-SECRETARIA 6.032,93 603,29 0,00 3.318,11 0,00 0,00 9.954,33 863,78 1.004,03 0,00 1.867,81 8.086,52 969,28 1.441,36 30/06/2015
58 148000 ALDA MARTINS SIMOES OFICIAL DO MP ATIVO BELO HORIZONTE - COMARCA; BH-23PJ CIVEL- FISC ENT AB POL 10.576,63 4.230,65 0,00 7.403,64 0,00 0,00 22.210,92 1.628,80 2.754,72 0,00 4.383,52 17.827,40 961,01 0,00 30/06/2015
59 318400 ALDO CREPALDI JUNIOR OFICIAL DO MP ATIVO BELO HORIZONTE - COMARCA; EXTINTA - DIVISAO DE MATERIAL DE CONSUMO 6.032,93 1.206,59 0,00 2.796,39 0,00 0,00 10.035,91 796,35 850,37 0,00 1.646,72 8.389,19 961,01 0,00 30/06/2015
60 604500 ALENIZE APARECIDA RODRIGUES HENRIQUE OFICIAL DO MP ATIVO RIO NOVO - COMARCA; RIO NOVO-PJ-UNPJ 3.129,28 0,00 0,00 1.564,64 0,00 0,00 4.693,92 344,22 66,08 0,00 410,30 4.283,62 726,01 0,00 30/06/2015
61 197900 ALESSA DE SOUSA E SILVA OFICIAL DO MP ATIVO OLIVEIRA - COMARCA; OLIVEIRA-PJ-02PJ 10.243,18 3.072,95 0,00 6.658,07 0,00 0,00 19.974,20 1.557,13 2.490,99 0,00 4.048,12 15.926,08 6.027,22 1.314,58 30/06/2015
62 428500 ALESSANDRA ALVES DINIZ OFICIAL DO MP ATIVO BELO HORIZONTE - COMARCA; CENTRAL DE APOIO TECNICO-SECRETARIA 4.379,06 1.751,62 0,00 0,00 0,00 0,00 6.130,68 674,37 631,13 0,00 1.305,50 4.825,18 2.793,88 189,55 30/06/2015
63 286801 ALESSANDRA BOTELHO JUNQUEIRA DE MENEZES ANALISTA DO MP ATIVO PASSOS - COMARCA; PASSOS-PJ-05PJ 8.727,00 2.618,10 0,00 5.672,55 0,00 0,00 17.017,65 1.326,67 1.958,86 0,00 3.285,53 13.732,12 1.196,01 834,77 30/06/2015
64 307000 ALESSANDRA CRISTINA SANTOS MENDES ANALISTA DO MP ATIVO BELO HORIZONTE - COMARCA; BH-18PJ VIOLENCIA DOMESTICA 8.185,27 1.637,05 0,00 3.629,67 0,00 0,00 13.451,99 1.278,47 2.005,59 0,00 3.284,06 10.167,93 1.086,03 2.133,12 30/06/2015
65 264400 ALESSANDRA DE SOUZA SANTOS COORDENADOR/ANALISTA ATIVO BELO HORIZONTE - COMARCA; DIRETORIA DE PRODUCAO EDITORIAL 11.643,70 5.677,31 0,00 8.660,51 0,00 0,00 25.981,52 1.665,05 3.436,03 0,00 5.101,08 20.880,44 726,01 0,00 30/06/2015
66 441500 ALESSANDRA DRUMMOND DE FIGUEIREDO ROSSI ANALISTA DO MP ATIVO BELO HORIZONTE - COMARCA; DIRETORIA DE PROJETOS DE EDIFICACOES 6.857,79 685,78 0,00 3.771,79 0,00 0,00 11.315,36 829,79 976,93 0,00 1.806,72 9.508,64 726,01 0,00 30/06/2015
67 524000 ALESSANDRA LUCIOLI DE BARROS GUERRA ANALISTA DO MP ATIVO BELO HORIZONTE - COMARCA; BH-19PJ SAUDE--SECRETARIA 6.641,51 398,49 0,00 2.784,16 0,00 0,00 9.824,16 774,40 697,27 0,00 1.471,67 8.352,49 726,01 0,00 30/06/2015
68 479900 ALESSANDRA MARA ANDRADE DE FARIA OFICIAL DO MP ATIVO UBERABA - COMARCA; UBERABA-PJ-09PJ 4.668,87 280,13 0,00 2.024,84 0,00 0,00 6.973,84 544,39 354,91 0,00 899,30 6.074,54 726,01 0,00 30/06/2015
69 226700 ALESSANDRA MARA VASCONCELOS REZENDE OFICIAL DO MP ATIVO CONSELHEIRO LAFAIETE - COMARCA; CONSELHEIRO LAFAIETE-PJ-07PJ 6.229,29 1.245,86 0,00 3.737,58 0,00 0,00 11.212,73 822,27 960,18 0,00 1.782,45 9.430,28 726,01 0,00 30/06/2015
70 112100 ALESSANDRA MARCIA FERREIRA OFICIAL DO MP ATIVO BELO HORIZONTE - COMARCA; BELO HORIZONTE- SECRETARIA DAS PROMOTORIAS 8.185,27 4.092,64 0,00 6.138,96 0,00 0,00 18.416,87 1.350,57 2.083,52 0,00 3.434,09 14.982,78 726,01 0,00 30/06/2015
71 196500 ALESSANDRA MARIA RIBEIRO LUCIANO OFICIAL DO MP ATIVO RIO PARANAÍBA - COMARCA; RIO PARANAIBA-PJ-UNPJ 9.920,24 2.976,07 0,00 6.448,16 4.298,77 0,00 23.643,24 1.418,59 3.417,04 0,00 4.835,63 18.807,61 961,01 0,00 30/06/2015
72 91400 ALESSANDRA MENDES VASCONCELOS DE SOUZA OFICIAL DO MP ATIVO BELO HORIZONTE - COMARCA; BH-23PJ INF-FISC MED SOC AB 13.097,56 6.548,78 0,00 9.823,17 0,00 0,00 29.469,51 2.161,10 3.939,08 0,00 6.100,18 23.369,33 726,01 0,00 30/06/2015
73 384900 ALESSANDRA RODRIGUES ANALISTA DO MP ATIVO VISCONDE DO RIO BRANCO - COMARCA; VISCONDE DO RIO BRANCO-PJ-03PJ 8.727,00 872,70 0,00 4.799,85 0,00 0,00 14.399,55 1.055,97 1.323,75 0,00 2.379,72 12.019,83 961,01 0,00 30/06/2015
74 390000 ALESSANDRA SPADANO MASSARA VASCONCELOS OFICIAL DO MP ATIVO BETIM - COMARCA; BETIM-PJ-10PJ 5.480,05 548,01 0,00 3.014,03 0,00 0,00 9.042,09 663,09 606,01 0,00 1.269,10 7.772,99 726,01 0,00 30/06/2015
75 426500 ALESSANDRO CAMPOS DE PAIVA COORDENADOR/ANALISTA ATIVO BELO HORIZONTE - COMARCA; DIRETORIA DE PUBLICIDADE INSTITUCIONAL 0,00 1.092,10 10.921,00 6.006,55 0,00 0,00 18.019,65 1.022,67 2.153,01 0,00 3.175,68 14.843,97 726,01 0,00 30/06/2015
76 623400 ALESSANDRO DE OLIVEIRA REZENDE ANALISTA DO MP ATIVO BELO HORIZONTE - COMARCA; DIVISAO DE MEMORIA INSTITUCIONAL 4.668,87 0,00 0,00 0,00 0,00 0,00 4.668,87 513,58 298,81 0,00 812,39 3.856,48 726,01 0,00 30/06/2015
77 420600 ALESSANDRO SILVA OFICIAL DO MP ATIVO VISCONDE DO RIO BRANCO - COMARCA; VISCONDE DO RIO BRANCO-PJ-02PJ 4.820,91 964,18 0,00 2.892,55 0,00 0,00 8.677,64 636,36 263,46 0,00 899,82 7.777,82 726,01 0,00 30/06/2015
78 375301 ALETHEIA PATRICIA ASSIS MORAIS MOREIRA ANALISTA DO MP ATIVO ITABIRA - COMARCA; ITABIRA-PJ-02PJ 6.432,09 0,00 0,00 3.216,05 0,00 0,00 9.648,14 707,53 704,89 0,00 1.412,42 8.235,72 726,01 0,00 30/06/2015
79 382300 ALEX CARVALHO LIMA ANALISTA DO MP ATIVO UBERLÂNDIA - COMARCA; UBERLANDIA-PJ-14PJ 8.727,00 872,70 0,00 0,00 0,00 0,00 9.599,70 1.055,97 1.350,15 0,00 2.406,12 7.193,58 726,01 0,00 30/06/2015
80 195201 ALEX DE CASTRO PEREIRA ANALISTA DO MP ATIVO UBERABA - COMARCA; UBERABA-PJ-09PJ 10.576,63 3.172,99 0,00 0,00 0,00 0,00 13.749,62 1.512,46 2.443,72 0,00 3.956,18 9.793,44 726,01 0,00 30/06/2015
81 358900 ALEX DE PAULA LANZA ASSESSOR ATIVO BELO HORIZONTE - COMARCA; DIRETORIA DE IMPRENSA 0,00 0,00 6.641,51 3.320,76 0,00 0,00 9.962,27 513,01 1.015,63 0,00 1.528,64 8.433,63 726,01 0,00 30/06/2015
82 178400 ALEX RODRIGO SALDANHA GUIMARAES OFICIAL DO MP ATIVO BELO HORIZONTE - COMARCA; DIRETORIA DE SISTEMAS DE INFORMACAO 4.977,82 1.493,35 0,00 3.235,59 0,00 0,00 9.706,76 711,83 714,46 0,00 1.426,29 8.280,47 726,01 0,00 30/06/2015
83 289200 ALEX SANDRO PEREIRA DE MATOS OFICIAL DO MP ATIVO BELO HORIZONTE - COMARCA; PROCON-MG-SECRETARIA DE FISCALIZACOES 4.977,82 2.170,38 0,00 0,00 0,00 0,00 7.148,20 657,07 915,70 0,00 1.572,77 5.575,43 726,01 0,00 30/06/2015
84 413500 ALEX VILELA OLIVEIRA ANALISTA DO MP ATIVO GOVERNADOR VALADARES - COMARCA; COORD REG PJ DEF EDU DIR CRIANCA ADOL RIODOCE 8.727,00 872,70 0,00 0,00 0,00 0,00 9.599,70 1.122,57 1.628,35 0,00 2.750,92 6.848,78 847,10 616,54 30/06/2015
85 264300 ALEXANDRA FATIMA SARAIVA SOARES ANALISTA DO MP ATIVO BELO HORIZONTE - COMARCA; CENTRAL DE APOIO TECN-SETOR DE MEIO AMBIENTE 11.643,70 2.328,74 0,00 6.986,22 0,00 0,00 20.958,66 1.536,97 2.550,39 0,00 4.087,36 16.871,30 726,01 0,00 30/06/2015
86 488000 ALEXANDRA LARA PAIS DE CARVALHO ANALISTA DO MP ATIVO GUANHÃES - COMARCA; GUANHAES-PJ-SECRETARIA 6.641,51 398,49 0,00 0,00 2.346,67 0,00 9.386,67 774,40 1.342,60 0,00 2.117,00 7.269,67 1.196,01 0,00 30/06/2015
87 256300 ALEXANDRA SANTOS GOMES OFICIAL DO MP ATIVO BELO HORIZONTE - COMARCA; EXTINTA - DIVISÃO DE COMPRAS 6.432,09 1.286,42 0,00 3.859,26 0,00 0,00 11.577,77 902,58 1.161,18 0,00 2.063,76 9.514,01 726,01 567,84 30/06/2015
88 403300 ALEXANDRE AUGUSTO RODRIGUES ANALISTA DO MP ATIVO ÁGUAS FORMOSAS - COMARCA; AGUAS FORMOSAS-PJ-UNPJ 7.435,23 743,52 0,00 4.089,38 0,00 0,00 12.268,13 899,66 1.132,39 0,00 2.032,05 10.236,08 726,01 0,00 30/06/2015
89 311700 ALEXANDRE BARCELOS RESENDE OFICIAL DO MP ATIVO BELO HORIZONTE - COMARCA; BH-07PJ 03 TRIBUNAL DO JURI-GAB 109PJ 5.139,92 513,99 0,00 2.826,96 0,00 0,00 8.480,87 621,93 514,43 0,00 1.136,36 7.344,51 726,01 0,00 30/06/2015
90 285600 ALEXANDRE CAMPOS DE OLIVEIRA OFICIAL DO MP ATIVO UBERABA - COMARCA; COORD REG BACIAS PARANAIBA BAIXO RIO GRANDE 6.973,67 1.394,73 0,00 4.184,20 0,00 0,00 12.552,60 920,52 1.022,40 0,00 1.942,92 10.609,68 1.196,01 0,00 30/06/2015
91 509200 ALEXANDRE CAPUANO DE REZENDE ANALISTA DO MP ATIVO BELO HORIZONTE - COMARCA; GABINETE DE PROCURADOR DE JUSTIÇA - SALA 514 6.641,51 398,49 0,00 3.520,00 0,00 0,00 10.560,00 774,40 801,54 0,00 1.575,94 8.984,06 726,01 0,00 30/06/2015
92 229400 ALEXANDRE CARLOS BOTREL DIRETOR/OFICIAL ATIVO BELO HORIZONTE - COMARCA; SUPERINTENDENCIA DOS ORGAOS COLEGIADOS 0,00 2.831,04 14.155,19 8.493,12 0,00 0,00 25.479,35 1.224,62 3.465,08 0,00 4.689,70 20.789,65 726,01 0,00 30/06/2015
93 411900 ALEXANDRE CARVALHO SANTOS RIBEIRO ANALISTA DO MP ATIVO SÃO JOÃO DEL REI - COMARCA; SAO JOAO DEL REI-PJ-02PJ 8.451,80 845,18 0,00 0,00 0,00 0,00 9.296,98 1.022,67 1.406,08 0,00 2.428,75 6.868,23 961,01 0,00 30/06/2015
94 201200 ALEXANDRE DE ALENCAR CORDEIRO OFICIAL DO MP ATIVO ÁGUAS FORMOSAS - COMARCA; AGUAS FORMOSAS-PJ-UNPJ 4.977,82 1.991,13 0,00 3.484,48 0,00 0,00 10.453,43 766,58 836,29 0,00 1.602,87 8.850,56 726,01 0,00 30/06/2015
95 288200 ALEXANDRE DE VASCONCELOS COSTA KER ANALISTA DO MP ATIVO BELO HORIZONTE - COMARCA; BH-03PJ EMPRESARIAL-SECRETARIA 10.576,63 2.115,33 0,00 6.345,98 0,00 0,00 19.037,94 1.484,15 2.380,73 0,00 3.864,88 15.173,06 845,73 811,25 30/06/2015
96 445000 ALEXANDRE DIOGENES OLIVEIRA ANALISTA DO MP ATIVO SALINAS - COMARCA; SALINAS-PJ-02PJ 7.435,23 743,52 0,00 4.089,38 0,00 0,00 12.268,13 899,66 1.132,39 0,00 2.032,05 10.236,08 726,01 0,00 30/06/2015
97 463400 ALEXANDRE LEAL WINKELSTROTER ANALISTA DO MP ATIVO TEÓFILO OTONI - COMARCA; TEOFILO OTONI-PJ-04PJ 6.641,51 398,49 0,00 3.520,00 0,00 0,00 10.560,00 774,40 801,54 0,00 1.575,94 8.984,06 726,01 0,00 30/06/2015
98 615700 ALEXANDRE LUIZ DE CASTRO MACIEL ANALISTA DO MP ATIVO IBIRITÉ - COMARCA; IBIRITE-PJ-02PJ 5.307,28 0,00 0,00 2.653,64 0,00 0,00 7.960,92 620,62 526,86 0,00 1.147,48 6.813,44 726,01 390,51 30/06/2015
99 356900 ALEXANDRE MOISES MENDONCA E ARAUJO OFICIAL DO MP ATIVO UBERABA - COMARCA; UBERABA-PJ-13PJ 4.977,82 497,78 0,00 2.737,80 0,00 0,00 8.213,40 602,32 470,79 0,00 1.073,11 7.140,29 726,01 0,00 30/06/2015
100 633300 ALEXANDRE NONATO MARTINS OFICIAL DO MP ATIVO IGARAPÉ - COMARCA; IGARAPE-PJ-02PJ 3.030,62 0,00 0,00 1.515,31 0,00 0,00 4.545,93 333,37 45,27 0,00 378,64 4.167,29 726,01 0,00 30/06/2015
101 469900 ALEXANDRE PEREIRA GUEDES ANALISTA DO MP ATIVO CATAGUASES - COMARCA; CATAGUASES-PJ-03PJ 7.200,74 432,04 0,00 3.816,39 0,00 0,00 11.449,17 839,61 998,76 0,00 1.838,37 9.610,80 3.779,12 279,87 30/06/2015
102 208700 ALEXANDRE RESENDE FRAGA ANALISTA DO MP ATIVO BELO HORIZONTE - COMARCA; BH-19PJ SAUDE 13.616,17 4.084,85 0,00 8.850,51 0,00 0,00 26.551,53 1.947,11 3.306,55 0,00 5.253,66 21.297,87 5.493,82 372,42 30/06/2015
103 216401 ALEXANDRE RIBEIRO DE LIMA MAIORINO ANALISTA DO MP ATIVO UBERABA - COMARCA; UBERABA-PJ-03PJ 10.576,63 3.172,99 0,00 0,00 0,00 0,00 13.749,62 1.607,83 2.695,65 0,00 4.303,48 9.446,14 5.222,31 1.423,64 30/06/2015
104 475100 ALEXANDRE TEOTONIO COSTA ANALISTA DO MP ATIVO ARAGUARI - COMARCA; ARAGUARI-PJ-01PJ 7.200,74 432,04 0,00 3.816,39 0,00 0,00 11.449,17 839,61 894,49 0,00 1.734,10 9.715,07 1.196,01 0,00 30/06/2015
105 339000 ALEXANDRE VITOR CARDOSO OFICIAL DO MP ATIVO BELO HORIZONTE - COMARCA; BH-18PJ DIREITOS HUMANOS-SECRETARIA 4.977,82 497,78 0,00 2.737,80 0,00 0,00 8.213,40 602,32 332,38 0,00 934,70 7.278,70 726,01 0,00 30/06/2015
106 623100 ALEXSANDER BATISTA AGUIAR ANALISTA DO MP ATIVO BELO HORIZONTE - COMARCA; DIRETORIA DE SUPORTE E MANUTENCAO 5.139,92 0,00 0,00 2.569,96 0,00 0,00 7.709,88 565,39 307,82 0,00 873,21 6.836,67 726,01 0,00 30/06/2015
107 513300 ALFSON MIRANDA BRAGA ANALISTA DO MP ATIVO BELO HORIZONTE - COMARCA; BH-12PJ JUIZO CRIMINAL-GAB 092PJ 6.641,51 398,49 0,00 3.520,00 0,00 0,00 10.560,00 774,40 853,68 0,00 1.628,08 8.931,92 726,01 0,00 30/06/2015
108 618400 ALICE MAGALHAES MACEDO DE CARVALHO ANALISTA DO MP ATIVO AÇUCENA - COMARCA; ACUCENA-PJ-UNPJ 5.139,92 0,00 0,00 2.569,96 0,00 0,00 7.709,88 565,39 393,14 0,00 958,53 6.751,35 726,01 0,00 30/06/2015
109 471000 ALICE TITONELI MOREIRA ANALISTA DO MP ATIVO MIRADOURO - COMARCA; MIRADOURO-PJ-UNPJ 7.200,74 432,04 0,00 3.816,39 0,00 0,00 11.449,17 839,61 946,62 0,00 1.786,23 9.662,94 961,01 0,00 30/06/2015
110 622400 ALINE BALBINO PORTUGAL ANALISTA DO MP ATIVO TRÊS PONTAS - COMARCA; TRES PONTAS-PJ-03PJ 5.139,92 0,00 0,00 2.569,96 1.713,31 0,00 9.423,19 565,39 859,80 0,00 1.425,19 7.998,00 726,01 0,00 30/06/2015
111 373000 ALINE BOTELHO RESENDE OFICIAL DO MP ATIVO PASSA QUATRO - COMARCA; PASSA QUATRO-PJ-SECRETARIA 5.842,66 584,27 0,00 3.213,47 0,00 0,00 9.640,40 751,55 821,42 0,00 1.572,97 8.067,43 726,01 472,92 30/06/2015
112 407700 ALINE CRISTINA RODRIGUES PEREIRA ANALISTA DO MP ATIVO BELO HORIZONTE - COMARCA; DIRETORIA DE PROJETOS DE EDIFICACOES 6.857,79 685,78 0,00 3.771,79 0,00 0,00 11.315,36 829,79 976,93 0,00 1.806,72 9.508,64 961,01 0,00 30/06/2015
113 193100 ALINE CRISTINA SENA OLIVEIRA OFICIAL DO MP ATIVO UBERLÂNDIA - COMARCA; UBERLANDIA-PJ-03PJ 9.011,08 3.878,14 0,00 6.444,61 0,00 0,00 19.333,83 1.288,58 2.268,68 0,00 3.557,26 15.776,57 726,01 0,00 30/06/2015
114 554200 ALINE CRISTINA SILVA SOUZA OFICIAL DO MP ATIVO TIROS - COMARCA; TIROS-PJ-UNPJ 3.445,03 0,00 0,00 1.480,48 0,00 0,00 4.925,51 378,95 105,11 0,00 484,06 4.441,45 726,01 0,00 30/06/2015
115 505500 ALINE DA CUNHA MARREIROS OLIVEIRA ANALISTA DO MP ATIVO CARANGOLA - COMARCA; CARANGOLA-PJ-03PJ 6.641,51 398,49 0,00 3.520,00 0,00 0,00 10.560,00 774,40 801,54 0,00 1.575,94 8.984,06 726,01 0,00 30/06/2015
116 433500 ALINE DE MELO QUEIROZ OFICIAL DO MP ATIVO BELO HORIZONTE - COMARCA; PROCON-MG-SECRETARIA DE FISCALIZACOES 5.307,28 1.705,55 0,00 3.506,42 0,00 0,00 10.519,25 767,81 1.228,92 0,00 1.996,73 8.522,52 726,01 1.385,09 30/06/2015
117 542700 ALINE DE SOUSA ALBINO ANALISTA DO MP ATIVO CARMO DO PARANAÍBA - COMARCA; CARMO DO PARANAIBA-PJ-01PJ 5.842,66 0,00 0,00 2.921,33 0,00 0,00 8.763,99 642,69 560,63 0,00 1.203,32 7.560,67 726,01 0,00 30/06/2015
118 330000 ALINE DIORIO MAYRINK OFICIAL DO MP ATIVO BELO HORIZONTE - COMARCA; COORD ESTADUAL DE DEFESA DA EDUCACAO 5.307,28 530,73 0,00 2.919,01 0,00 0,00 8.757,02 642,18 559,49 0,00 1.201,67 7.555,35 726,01 0,00 30/06/2015
119 499000 ALINE FERREIRA LOPES NEIVA ANALISTA DO MP ATIVO TEÓFILO OTONI - COMARCA; COORD. DE DEF. DO PAT. PUBLICO-JEQUIT./MUCURI 6.641,51 398,49 0,00 2.732,03 0,00 0,00 9.772,03 774,40 801,54 0,00 1.575,94 8.196,09 726,01 0,00 30/06/2015
120 405300 ALINE LAIA CARDOZO ANALISTA DO MP ATIVO BELO HORIZONTE - COMARCA; EXTINTA - DIRETORIA DE CONTRATOS E CONVÊNIOS 8.727,00 872,70 0,00 4.799,85 0,00 0,00 14.399,55 1.055,97 1.480,17 0,00 2.536,14 11.863,41 726,01 0,00 30/06/2015
121 278200 ALINE MARCIA FARIA BARBOSA OFICIAL DO MP ATIVO BARBACENA - COMARCA; BARBACENA-PJ-SECRETARIA 4.977,82 995,56 0,00 2.986,69 0,00 0,00 8.960,07 657,07 436,21 0,00 1.093,28 7.866,79 961,01 0,00 30/06/2015
122 389000 ALINE NERI NOBRE ANALISTA DO MP ATIVO MONTES CLAROS - COMARCA; COORD REG PJ DEF EDUC DIR CRIANCA ADOL NORTE 9.011,08 1.802,22 0,00 5.406,65 0,00 0,00 16.219,95 1.264,46 1.944,07 0,00 3.208,53 13.011,42 1.066,91 713,05 30/06/2015
123 294600 ALINE PATRICIA SILVA VIEIRA OFICIAL DO MP ATIVO UBERLÂNDIA - COMARCA; UBERLANDIA-PJ-03PJ 6.973,67 2.569,55 0,00 4.771,61 0,00 0,00 14.314,83 920,52 1.397,61 0,00 2.318,13 11.996,70 1.196,01 0,00 30/06/2015
124 420000 ALINE RODRIGUES CAMOROPIN ANALISTA DO MP ATIVO SABARÁ - COMARCA; SABARA-PJ-02PJ 8.451,80 845,18 0,00 4.648,49 0,00 0,00 13.945,47 1.022,67 1.406,08 0,00 2.428,75 11.516,72 726,01 0,00 30/06/2015
125 408300 ALINE SILVA ARAUJO DE PAULA ANALISTA DO MP ATIVO SÃO SEBASTIÃO DO PARAÍSO - COMARCA; SAO SEBASTIAO DO PARAISO-PJ-02PJ 8.727,00 872,70 0,00 4.799,85 0,00 0,00 14.399,55 1.122,57 1.628,35 0,00 2.750,92 11.648,63 748,29 607,48 30/06/2015
126 425400 ALINE TRINDADE DE FREITAS CAMPOS OFICIAL DO MP ATIVO BELO HORIZONTE - COMARCA; BH-14PJ DEFESA CONSUMIDOR-SECRETARIA 5.480,05 548,01 0,00 0,00 0,00 0,00 6.028,06 704,90 716,46 0,00 1.421,36 4.606,70 726,01 443,45 30/06/2015
127 517200 ALISSOM PEREIRA DA SILVA ANALISTA DO MP ATIVO BORDA DA MATA - COMARCA; BORDA DA MATA-PJ-UNPJ 6.641,51 398,49 0,00 3.520,00 0,00 0,00 10.560,00 774,40 853,68 0,00 1.628,08 8.931,92 726,01 0,00 30/06/2015
128 442400 ALISSON LABRE ANALISTA DO MP ATIVO VARGINHA - COMARCA; VARGINHA-PJ-02PJ 7.435,23 743,52 0,00 4.089,38 0,00 0,00 12.268,13 899,66 1.132,39 0,00 2.032,05 10.236,08 4.788,82 372,42 30/06/2015
129 349000 ALLEC RODRIGUES VIEIRA ASSESSOR/OFICIAL ATIVO BELO HORIZONTE - COMARCA; COORD DE INCLUSAO E MOBILIZACAO SOCIAIS 0,00 930,45 9.304,45 5.117,45 0,00 0,00 15.352,35 1.125,84 1.635,63 0,00 2.761,47 12.590,88 726,01 0,00 30/06/2015
130 297300 ALLYSON SALIBA MONTEIRO LAIZO ANALISTA DO MP ATIVO CONSELHEIRO LAFAIETE - COMARCA; CONSELHEIRO LAFAIETE-PJ-03PJ 11.276,58 2.255,32 0,00 6.765,95 0,00 0,00 20.297,85 1.488,51 2.442,57 0,00 3.931,08 16.366,77 726,01 0,00 30/06/2015
131 303700 ALMIR LOPES LOURES ANALISTA DO MP ATIVO BELO HORIZONTE - COMARCA; CENTRAL DE APOIO TECN-SETOR DE MEIO AMBIENTE 11.643,70 2.328,74 0,00 0,00 0,00 0,00 13.972,44 1.633,89 2.661,76 0,00 4.295,65 9.676,79 1.026,28 908,60 30/06/2015
132 515900 ALTAIR NEVES JUNIOR OFICIAL DO MP ATIVO BELO HORIZONTE - COMARCA; BH-03PJ EMPRESARIAL-SECRETARIA 4.241,01 254,46 0,00 0,00 0,00 0,00 4.495,47 494,50 264,09 0,00 758,59 3.736,88 726,01 0,00 30/06/2015
133 233300 ALVARINDO BATISTA COORDENADOR/ANALISTA ATIVO BELO HORIZONTE - COMARCA; DIVISAO DE MULTIMIDIA 13.097,56 4.540,99 0,00 8.819,28 0,00 0,00 26.457,83 1.728,88 3.505,80 0,00 5.234,68 21.223,15 726,01 0,00 30/06/2015
134 274100 ALYSSON CARVALHO VIDAL DE LACERDA OFICIAL DO MP ATIVO MANHUAÇU - COMARCA; MANHUACU-PJ-01PJ 7.200,74 1.440,15 0,00 0,00 0,00 0,00 8.640,89 950,50 1.245,50 0,00 2.196,00 6.444,89 726,01 0,00 30/06/2015
135 621000 AMANDA BASTOS ALVES ANALISTA DO MP ATIVO BELO HORIZONTE - COMARCA; BH-18PJ VIOLENCIA DOMESTICA-SECRETARIA 4.668,87 0,00 0,00 2.334,44 1.556,29 0,00 8.559,60 513,58 701,32 0,00 1.214,90 7.344,70 726,01 0,00 30/06/2015
136 521700 AMANDA CRISTINA AGUIAR MACHADO OFICIAL DO MP ATIVO CONGONHAS - COMARCA; CONGONHAS-PJ-01PJ 3.557,16 213,43 0,00 1.885,30 0,00 0,00 5.655,89 414,76 120,14 0,00 534,90 5.120,99 726,01 0,00 30/06/2015
137 613400 AMANDA DE ASSIS IUNES SANTOS ANALISTA DO MP ATIVO CONSELHEIRO LAFAIETE - COMARCA; CONSELHEIRO LAFAIETE-PJ-08PJ 4.820,91 0,00 0,00 2.410,46 0,00 0,00 7.231,37 530,30 329,26 0,00 859,56 6.371,81 961,01 0,00 30/06/2015
138 520800 AMANDA DE SOUZA MACHADO ANALISTA DO MP ATIVO BAEPENDI - COMARCA; BAEPENDI-PJ-UNPJ 6.641,51 398,49 0,00 3.520,00 0,00 0,00 10.560,00 774,40 749,41 0,00 1.523,81 9.036,19 961,01 0,00 30/06/2015
139 543100 AMANDA VIEIRA FREITAS ANALISTA DO MP ATIVO PARAGUAÇU - COMARCA; PARAGUACU-PJ-UNPJ 5.307,28 0,00 0,00 2.146,94 0,00 0,00 7.454,22 583,80 429,60 0,00 1.013,40 6.440,82 726,01 0,00 30/06/2015
140 434400 AMARILIS ASSIS SIMAO CURCIO ANALISTA DO MP ATIVO MANHUAÇU - COMARCA; MANHUACU-PJ-SECRETARIA 7.435,23 743,52 0,00 4.089,38 0,00 0,00 12.268,13 899,66 1.132,39 0,00 2.032,05 10.236,08 1.196,01 0,00 30/06/2015
141 273700 AMBROLINA CARNEIRO DE VASCONCELOS OFICIAL DO MP ATIVO FRUTAL - COMARCA; FRUTAL-PJ-01PJ 6.973,67 3.486,84 0,00 5.230,26 0,00 0,00 15.690,77 1.188,90 1.723,80 0,00 2.912,70 12.778,07 4.962,64 735,99 30/06/2015
142 58000 AMELIA GUARIZE DE CASTRO OFICIAL DO MP ATIVO JUIZ DE FORA - COMARCA; JUIZ DE FORA-PJ-SECRETARIA 5.480,05 4.932,06 0,00 5.206,06 0,00 1.145,33 16.763,50 1.145,33 1.993,97 0,00 3.139,30 13.624,20 726,01 0,00 30/06/2015
143 324301 AMERICA SUELI FERREIRA DA SILVA ANALISTA DO MP ATIVO MONTE CARMELO - COMARCA; MONTE CARMELO-PJ-02PJ 7.200,74 432,04 0,00 3.816,39 0,00 0,00 11.449,17 839,61 998,76 0,00 1.838,37 9.610,80 726,01 0,00 30/06/2015
144 273300 AMUJACY DE BRITO ASSIZ OFICIAL DO MP ATIVO BELO HORIZONTE - COMARCA; BH-12PJ JUIZO CRIMINAL-SECRETARIA 7.200,74 1.440,15 0,00 4.320,45 0,00 0,00 12.961,34 1.098,14 1.365,44 0,00 2.463,58 10.497,76 726,01 1.342,16 30/06/2015
145 482200 ANA ALICE LOPES ACHTSCHIN ANALISTA DO MP ATIVO BELO HORIZONTE - COMARCA; PROC JUST RECURSOS ESP E EXTRAORD CRIMINAIS 7.200,74 432,04 0,00 3.816,39 0,00 0,00 11.449,17 839,61 998,76 0,00 1.838,37 9.610,80 726,01 0,00 30/06/2015
146 490400 ANA AMELIA PAULINO GARCIA OFICIAL DO MP ATIVO BELO HORIZONTE - COMARCA; BH-12PJ JUIZO CRIMINAL-SECRETARIA 4.241,01 254,46 0,00 1.868,44 1.498,49 0,00 7.862,40 494,50 642,99 0,00 1.137,49 6.724,91 726,01 0,00 30/06/2015
147 279100 ANA CAROLINA ARAUJO PEREIRA ANALISTA DO MP ATIVO BELO HORIZONTE - COMARCA; DIRETORIA DE PROJETOS DE EDIFICACOES 11.276,58 2.255,32 0,00 4.826,47 0,00 0,00 18.358,37 1.488,51 2.390,44 0,00 3.878,95 14.479,42 961,01 0,00 30/06/2015
148 359400 ANA CAROLINA DE ABREU FARIA ASSESSOR ATIVO BELO HORIZONTE - COMARCA; DIVISAO DE CONTROLE IMOBILIARIO 0,00 0,00 6.641,51 3.320,76 2.213,84 0,00 12.176,11 513,01 1.624,44 0,00 2.137,45 10.038,66 726,01 0,00 30/06/2015
149 408500 ANA CAROLINA DE CASTRO CARVALHO ANALISTA DO MP ATIVO BARBACENA - COMARCA; BARBACENA-PJ-SECRETARIA 8.727,00 872,70 0,00 4.799,85 0,00 0,00 14.399,55 1.122,57 1.628,35 0,00 2.750,92 11.648,63 888,51 620,34 30/06/2015
150 420200 ANA CAROLINA FERNANDES SILVA ANALISTA DO MP ATIVO BELO HORIZONTE - COMARCA; GABINETE DE PROCURADOR DE JUSTIÇA - SALA 708 8.185,27 818,53 0,00 0,00 0,00 0,00 9.003,80 990,42 1.334,32 0,00 2.324,74 6.679,06 726,01 0,00 30/06/2015
151 522100 ANA CAROLINA FERNANDINO VIDAL PEREIRA SANTOS OFICIAL DO MP ATIVO BELO HORIZONTE - COMARCA; EXTINTA - SECRETARIA ADMINISTRATIVA 4.241,01 254,46 0,00 0,00 0,00 0,00 4.495,47 494,50 264,09 0,00 758,59 3.736,88 726,01 0,00 30/06/2015
152 502400 ANA CAROLINA GONCALVES FERNANDES ANALISTA DO MP ATIVO GRAO MOGOL - COMARCA; GRAO MOGOL-PJ-UNPJ 6.641,51 398,49 0,00 2.705,96 0,00 0,00 9.745,96 774,40 853,68 0,00 1.628,08 8.117,88 726,01 0,00 30/06/2015
153 529900 ANA CAROLINA GONCALVES PECANHA CHEQUER ANALISTA DO MP ATIVO MANHUAÇU - COMARCA; MANHUACU-PJ-04PJ 5.842,66 0,00 0,00 2.319,66 0,00 0,00 8.162,32 642,69 560,63 0,00 1.203,32 6.959,00 726,01 0,00 30/06/2015
154 431900 ANA CAROLINA MOTTA GUATIMOSIM ANALISTA DO MP ATIVO BELO HORIZONTE - COMARCA; GABINETE DE PROCURADOR DE JUSTIÇA - SALA 1014 7.435,23 743,52 0,00 4.089,38 0,00 0,00 12.268,13 899,66 1.132,39 0,00 2.032,05 10.236,08 4.788,82 372,42 30/06/2015
155 539400 ANA CAROLINA REIS MACEDO ANALISTA DO MP ATIVO UBERABA - COMARCA; COORD REG PJ DEF EDUC DIR CRIANCA ADOL TRIANG 5.842,66 0,00 0,00 2.921,33 0,00 0,00 8.763,99 642,69 560,63 0,00 1.203,32 7.560,67 726,01 0,00 30/06/2015
156 490600 ANA CAROLINA XAVIER GODOY ANALISTA DO MP ATIVO BELO HORIZONTE - COMARCA; BH-18PJ VIOLENCIA DOMESTICA 6.641,51 398,49 0,00 2.705,96 0,00 0,00 9.745,96 774,40 853,68 0,00 1.628,08 8.117,88 726,01 0,00 30/06/2015
157 600300 ANA CAROLINE PEREIRA DINIZ ANALISTA DO MP ATIVO BELO HORIZONTE - COMARCA; COMB CRIMES PRAT POR AG POL MUN-SECRETARIA 5.307,28 0,00 0,00 2.653,64 0,00 0,00 7.960,92 583,80 429,60 0,00 1.013,40 6.947,52 961,01 0,00 30/06/2015
158 615800 ANA CAROLINE PEREIRA OLIVEIRA OFICIAL DO MP ATIVO ALFENAS - COMARCA; ALFENAS-PJ-06PJ 3.336,37 0,00 0,00 1.668,19 0,00 0,00 5.004,56 434,27 187,53 0,00 621,80 4.382,76 726,01 713,42 30/06/2015
159 324800 ANA CECILIA MENDES DA SILVA OFICIAL DO MP ATIVO OURO FINO - COMARCA; OURO FINO-PJ-01PJ 6.432,09 1.286,42 0,00 3.859,26 0,00 0,00 11.577,77 849,04 967,61 0,00 1.816,65 9.761,12 961,01 0,00 30/06/2015
160 441300 ANA CLAUDIA ALKIMIM MIRANDA BOMTEMPO ANALISTA DO MP ATIVO MONTES CLAROS - COMARCA; MONTES CLAROS-PJ-11PJ 7.435,23 743,52 0,00 4.089,38 0,00 0,00 12.268,13 899,66 1.028,12 0,00 1.927,78 10.340,35 1.196,01 0,00 30/06/2015
161 604900 ANA CLAUDIA OLIVEIRA DE MIRANDA OFICIAL DO MP ATIVO PONTE NOVA - COMARCA; PONTE NOVA-PJ-04PJ 3.030,62 0,00 0,00 1.515,31 0,00 0,00 4.545,93 333,37 45,27 0,00 378,64 4.167,29 726,01 0,00 30/06/2015
162 379300 ANA CRISTINA ALVES FLAVIO ANALISTA DO MP ATIVO SÃO GOTARDO - COMARCA; SAO GOTARDO-PJ-01PJ 8.727,00 872,70 0,00 4.799,85 0,00 0,00 14.399,55 1.055,97 1.375,89 0,00 2.431,86 11.967,69 961,01 0,00 30/06/2015
163 461200 ANA CRISTINA ALVES PASCHOAL ANALISTA DO MP ATIVO SANTA LUZIA - COMARCA; SANTA LUZIA-PJ-03PJ 7.200,74 432,04 0,00 3.816,39 0,00 0,00 11.449,17 839,61 998,76 0,00 1.838,37 9.610,80 961,01 0,00 30/06/2015
164 514100 ANA CRISTINA ARAUJO ASSUNCAO ANALISTA DO MP ATIVO BELO HORIZONTE - COMARCA; ASSESS JUR DO CONS SUPERIOR DO MINISTERIO PUB 6.641,51 398,49 0,00 0,00 2.346,67 0,00 9.386,67 774,40 1.446,88 0,00 2.221,28 7.165,39 961,01 0,00 30/06/2015
165 113400 ANA CRISTINA BRAGA ALBUQUERQUE ANALISTA DO MP ATIVO BELO HORIZONTE - COMARCA; ASSESS ESP ADM E FINANCEIRA DO PGJ ADJ ADM 24.459,17 12.229,59 0,00 15.235,56 0,00 0,00 51.924,32 3.351,82 6.588,44 6.217,65 16.157,91 35.766,41 4.788,82 372,43 30/06/2015
166 233800 ANA CRISTINA BRAGA SOARES RIOS OFICIAL DO MP ATIVO CONTAGEM - COMARCA; CONTAGEM-PJ-SECRETARIA 7.200,74 1.440,15 0,00 4.320,45 0,00 0,00 12.961,34 1.010,44 1.378,88 0,00 2.389,32 10.572,02 726,01 544,96 30/06/2015
167 186400 ANA CRISTINA DE AZEVEDO LOPES OFICIAL DO MP ATIVO UBÁ - COMARCA; UBA-PJ-01PJ 9.920,24 2.976,07 0,00 4.621,42 0,00 0,00 17.517,73 1.678,61 2.813,42 0,00 4.492,03 13.025,70 1.038,98 2.392,51 30/06/2015
168 465100 ANA CRISTINA DE OLIVEIRA GUIMARAES ANALISTA DO MP ATIVO BRASÓPOLIS - COMARCA; BRASOPOLIS-PJ-UNPJ 7.200,74 432,04 0,00 3.816,39 0,00 0,00 11.449,17 839,61 998,76 0,00 1.838,37 9.610,80 726,01 0,00 30/06/2015
169 500600 ANA CRISTINA LATADO SUDARIO ANALISTA DO MP ATIVO UBERLÂNDIA - COMARCA; UBERLANDIA-PJ-09PJ 6.641,51 398,49 0,00 3.520,00 0,00 0,00 10.560,00 774,40 853,68 0,00 1.628,08 8.931,92 726,01 0,00 30/06/2015
170 331400 ANA CRISTINA RIBEIRO ALVES OFICIAL DO MP ATIVO BAMBUÍ - COMARCA; BAMBUI-PJ-UNPJ 6.229,29 1.245,86 0,00 3.737,58 0,00 0,00 11.212,73 938,31 1.295,28 0,00 2.233,59 8.979,14 4.138,35 1.647,37 30/06/2015
171 249300 ANA ELOINA MARTINS DO PINHO OFICIAL DO MP ATIVO BETIM - COMARCA; BETIM-PJ-08PJ 7.677,29 2.303,19 0,00 3.680,69 0,00 0,00 13.661,17 1.286,06 1.939,99 0,00 3.226,05 10.435,12 726,01 1.711,00 30/06/2015
172 257400 ANA FLAVIA CAMBRAIA ANALISTA DO MP ATIVO BELO HORIZONTE - COMARCA; BH-19PJ SAUDE-SECRETARIA 150PJ 11.643,70 2.328,74 0,00 6.986,22 0,00 0,00 20.958,66 1.536,97 2.498,26 0,00 4.035,23 16.923,43 726,01 0,00 30/06/2015
173 248201 ANA FLAVIA DE MORAIS SOUZA ANALISTA DO MP ATIVO DIVINÓPOLIS - COMARCA; DIVINOPOLIS-PJ-01PJ 7.200,74 1.440,15 0,00 4.320,45 0,00 0,00 12.961,34 950,50 1.193,36 0,00 2.143,86 10.817,48 961,01 0,00 30/06/2015
174 621100 ANA FLAVIA DINIZ TEODORO OFICIAL DO MP ATIVO SANTA LUZIA - COMARCA; SANTA LUZIA-PJ-06PJ 3.030,62 0,00 0,00 1.515,31 1.010,21 0,00 5.556,14 333,37 201,32 0,00 534,69 5.021,45 726,01 0,00 30/06/2015
175 238600 ANA FLAVIA FRANCO OFICIAL DO MP ATIVO BELO HORIZONTE - COMARCA; DIRETORIA DE PESSOAL ADMINISTRATIVO - DPAD 8.451,80 1.690,36 0,00 5.071,08 0,00 0,00 15.213,24 1.115,64 1.612,93 0,00 2.728,57 12.484,67 726,01 0,00 30/06/2015
176 402900 ANA FLAVIA PORTES DE CARVALHO ANALISTA DO MP ATIVO BELO HORIZONTE - COMARCA; DIRET DE PLANOS PROJETOS E PROGRAMAS INST 8.727,00 872,70 0,00 4.799,85 0,00 0,00 14.399,55 1.055,97 1.428,03 0,00 2.484,00 11.915,55 961,01 0,00 30/06/2015
177 382700 ANA KARENINA SALDANHA GONTIJO ANALISTA DO MP ATIVO BELO HORIZONTE - COMARCA; ASSESS TECNICO-JUR JUNTO AS PROC. DE JUST 7.677,29 767,73 0,00 4.222,51 0,00 0,00 12.667,53 928,95 1.197,56 0,00 2.126,51 10.541,02 961,01 0,00 30/06/2015
178 620500 ANA KARINE DE ANDRADE OLIVEIRA ANALISTA DO MP ATIVO RIBEIRÃO DAS NEVES - COMARCA; RIBEIRAO DAS NEVES-PJ-10PJ 4.668,87 0,00 0,00 2.334,44 1.556,29 0,00 8.559,60 513,58 701,32 0,00 1.214,90 7.344,70 726,01 0,00 30/06/2015
179 220000 ANA LUCIA AMORIM OFICIAL DO MP ATIVO MARTINHO CAMPOS - COMARCA; MARTINHO CAMPOS-PJ-SECRETARIA 7.435,23 3.717,62 0,00 5.576,43 0,00 0,00 16.729,28 1.226,81 1.860,30 0,00 3.087,11 13.642,17 726,01 0,00 30/06/2015
180 462200 ANA LUCIA ANDRADE TOMICH OTTONI ANALISTA DO MP ATIVO TEÓFILO OTONI - COMARCA; TEOFILO OTONI-PJ-06PJ 7.200,74 432,04 0,00 3.816,39 0,00 0,00 11.449,17 839,61 894,49 0,00 1.734,10 9.715,07 726,01 0,00 30/06/2015
181 504100 ANA LUCIA CATAO DE CARVALHO OFICIAL DO MP ATIVO BELO HORIZONTE - COMARCA; BH-09PJ AUDITORIA MILITAR 4.241,01 254,46 0,00 0,00 0,00 0,00 4.495,47 494,50 221,43 0,00 715,93 3.779,54 1.196,01 0,00 30/06/2015
182 274700 ANA LUCIA DE ALENCAR BRAGATO OFICIAL DO MP ATIVO UBERABA - COMARCA; UBERABA-PJ-07PJ 6.973,67 1.394,73 0,00 3.160,60 0,00 0,00 11.529,00 951,12 1.194,74 0,00 2.145,86 9.383,14 726,01 278,12 30/06/2015
183 509400 ANA LUCIA DORNELAS MALLOSTO ANALISTA DO MP ATIVO JUIZ DE FORA - COMARCA; JUIZ DE FORA-PJ-18PJ 6.032,93 361,98 0,00 3.197,46 0,00 0,00 9.592,37 703,44 643,66 0,00 1.347,10 8.245,27 726,01 0,00 30/06/2015
184 524600 ANA LUCIA DOS SANTOS FERNANDES COELHO ASSESSOR ATIVO BELO HORIZONTE - COMARCA; COORD ESTADUAL DE DEFESA DA EDUCACAO 0,00 0,00 3.975,17 2.087,59 0,00 0,00 6.062,76 513,01 306,21 0,00 819,22 5.243,54 726,01 0,00 30/06/2015
185 302600 ANA LUCIA LOPES SANTOS OFICIAL DO MP ATIVO BELO HORIZONTE - COMARCA; PROCON-MG-SECRETARIA DE FISCALIZACOES 6.432,09 2.461,24 0,00 4.446,67 0,00 0,00 13.340,00 849,04 1.290,68 0,00 2.139,72 11.200,28 726,01 0,00 30/06/2015
186 493400 ANA LUISA NOGUEIRA MOREIRA ANALISTA DO MP ATIVO BELO HORIZONTE - COMARCA; TRIBUNAL DO JURI-07 PJ-02 TRIBUNAL 6.641,51 398,49 0,00 3.520,00 0,00 0,00 10.560,00 774,40 853,68 0,00 1.628,08 8.931,92 726,01 0,00 30/06/2015
187 389300 ANA LUISA REUTER LIMA ANALISTA DO MP ATIVO BELO HORIZONTE - COMARCA; DIRETORIA DE SISTEMAS DE INFORMACAO 7.200,74 720,07 0,00 3.960,41 0,00 0,00 11.881,22 871,29 1.069,26 0,00 1.940,55 9.940,67 726,01 0,00 30/06/2015
188 480600 ANA LUIZA FERNANDES FRAGA E GRECO OFICIAL DO MP ATIVO SANTO ANTÔNIO DO MONTE - COMARCA; SANTO ANTONIO DO MONTE-PJ-UNPJ 4.241,01 254,46 0,00 2.247,74 1.498,49 0,00 8.241,70 494,50 642,99 0,00 1.137,49 7.104,21 726,01 0,00 30/06/2015
189 517800 ANA LUIZA MAGALHAES CIRINO PIOTO DE MELO OFICIAL DO MP ATIVO BELO HORIZONTE - COMARCA; DIVISAO DE MANUTENCAO PREDIAL 3.557,16 213,43 0,00 0,00 0,00 0,00 3.770,59 414,76 148,57 0,00 563,33 3.207,26 726,01 0,00 30/06/2015
190 481400 ANA MARCIA CANDIDA FERREIRA OFICIAL DO MP ATIVO BRUMADINHO - COMARCA; BRUMADINHO-PJ-01PJ 3.916,07 234,96 0,00 2.075,52 0,00 0,00 6.226,55 456,61 199,36 0,00 655,97 5.570,58 726,01 0,00 30/06/2015
191 556400 ANA MARIA OLIVEIRA SOUZA OFICIAL DO MP ATIVO ITAPECERICA - COMARCA; ITAPECERICA-PJ-UNPJ 3.129,28 0,00 0,00 1.564,64 0,00 0,00 4.693,92 344,22 66,08 0,00 410,30 4.283,62 726,01 0,00 30/06/2015
192 409600 ANA OLIVIA FARIA ROSENBURG ANALISTA DO MP ATIVO BELO HORIZONTE - COMARCA; DIRETORIA DO COLEGIO E DA CAMARA DE PJ 8.727,00 1.745,40 0,00 5.236,20 0,00 0,00 15.708,60 1.224,62 1.855,41 0,00 3.080,03 12.628,57 726,01 660,48 30/06/2015
193 461500 ANA PAULA ALVES CARVALHO ANALISTA DO MP ATIVO UBERLÂNDIA - COMARCA; UBERLANDIA-PJ-08PJ 7.200,74 432,04 0,00 0,00 0,00 0,00 7.632,78 839,61 998,76 0,00 1.838,37 5.794,41 726,01 0,00 30/06/2015
194 523200 ANA PAULA ALVES DA SILVA OFICIAL DO MP ATIVO GOVERNADOR VALADARES - COMARCA; GOVERNADOR VALADARES-PJ-10PJ 4.241,01 254,46 0,00 2.247,74 0,00 0,00 6.743,21 494,50 264,09 0,00 758,59 5.984,62 726,01 0,00 30/06/2015
195 381200 ANA PAULA BARROS PEREIRA ANALISTA DO MP ATIVO BELO HORIZONTE - COMARCA; PROC JUST RECURSOS ESP E EXTRAORD CRIMINAIS 8.727,00 872,70 0,00 4.799,85 0,00 0,00 14.399,55 1.055,97 1.480,17 0,00 2.536,14 11.863,41 726,01 0,00 30/06/2015
196 227200 ANA PAULA DA SILVA CAMPOLINA ANALISTA DO MP ATIVO BELO HORIZONTE - COMARCA; SUPERINTENDENCIA DE FINANCAS 13.097,56 5.239,02 0,00 9.168,29 0,00 0,00 27.504,87 2.017,02 3.618,52 0,00 5.635,54 21.869,33 726,01 0,00 30/06/2015
197 84200 ANA PAULA DE SOUZA ROCHA OFICIAL DO MP ATIVO BELO HORIZONTE - COMARCA; ASSESS ESP ADM E FINANCEIRA DO PGJ ADJ ADM 22.988,40 11.494,20 0,00 15.235,56 0,00 0,00 49.718,16 3.351,82 6.484,17 4.011,49 13.847,48 35.870,68 4.788,82 372,42 30/06/2015
198 278500 ANA PAULA DIAS CAPANEMA COORDENADOR/OFICIAL ATIVO BELO HORIZONTE - COMARCA; EXTINTA - DIRETORIA DE MATERIAL E PATRIMONIO 0,00 2.184,20 10.921,00 6.552,60 0,00 0,00 19.657,80 951,11 2.473,01 0,00 3.424,12 16.233,68 726,01 0,00 30/06/2015
199 327300 ANA PAULA GARCIA MAXIMO OFICIAL DO MP ATIVO UNAÍ - COMARCA; UNAI-PJ-01PJ 6.432,09 1.929,63 0,00 4.180,86 0,00 0,00 12.542,58 919,79 1.020,76 0,00 1.940,55 10.602,03 726,01 0,00 30/06/2015
200 270000 ANA PAULA GOULART CRUZ DE MAGALHAES ANALISTA DO MP ATIVO BELO HORIZONTE - COMARCA; COMB CRIMES PRAT POR AG POL MUN-ASSESSORIA 9.011,08 1.802,22 0,00 5.406,65 3.604,43 0,00 19.824,38 1.189,46 2.768,41 0,00 3.957,87 15.866,51 726,01 0,00 30/06/2015
201 262100 ANA PAULA KOMATSUZAKI ABIJAUDI ANALISTA DO MP ATIVO BELO HORIZONTE - COMARCA; BH-17PJ PATRIMONIO PUBLICO-SECRETARIA 11.643,70 3.493,11 0,00 7.568,41 0,00 0,00 22.705,22 1.665,05 2.731,10 0,00 4.396,15 18.309,07 961,01 0,00 30/06/2015
202 278900 ANA PAULA MOREIRA GURGEL ANALISTA DO MP ATIVO BELO HORIZONTE - COMARCA; SUPERINTENDENCIA DE RECURSOS HUMANOS 11.643,70 3.493,11 0,00 7.568,41 0,00 0,00 22.705,22 1.770,05 3.068,99 0,00 4.839,04 17.866,18 922,83 972,56 30/06/2015
203 425701 ANA PAULA ROCHA ASSESSOR/ANALISTA ATIVO BELO HORIZONTE - COMARCA; SUPERINTENDENCIA DE COMUNICACAO INTEGRADA 0,00 0,00 6.641,51 1.318,64 0,00 0,00 7.960,15 565,39 801,57 0,00 1.366,96 6.593,19 726,01 0,00 30/06/2015
204 395601 ANA PAULA SALGE OLIVEIRA ANALISTA DO MP ATIVO UBERABA - COMARCA; COORD REG PP TRIANGULO MINEIRO UBERABA 6.641,51 1.328,30 0,00 3.984,91 0,00 0,00 11.954,72 876,68 1.081,25 0,00 1.957,93 9.996,79 726,01 0,00 30/06/2015
205 473200 ANA PAULA SCOTTON BRASIL ANALISTA DO MP ATIVO JUIZ DE FORA - COMARCA; JUIZ DE FORA-PJ-09PJ 7.200,74 432,04 0,00 3.816,39 0,00 0,00 11.449,17 839,61 998,76 0,00 1.838,37 9.610,80 726,01 0,00 30/06/2015
206 633600 ANA PAULA SILVA FERNANDES OFICIAL DO MP ATIVO CATAGUASES - COMARCA; CATAGUASES-PJ-SECRETARIA 3.030,62 0,00 0,00 0,00 0,00 0,00 3.030,62 333,37 59,49 0,00 392,86 2.637,76 726,01 0,00 30/06/2015
207 470900 ANA PAULA VALADARES ANALISTA DO MP ATIVO PITANGUI - COMARCA; PITANGUI-PJ-01PJ 7.200,74 432,04 0,00 2.949,33 0,00 0,00 10.582,11 839,61 894,49 0,00 1.734,10 8.848,01 961,01 0,00 30/06/2015
208 447000 ANA PAULA VALENTIM DE ARAUJO ANALISTA DO MP ATIVO BELO HORIZONTE - COMARCA; COMB CRIMES PRAT POR AG POL MUN-SECRETARIA 7.435,23 743,52 0,00 4.089,38 0,00 0,00 12.268,13 899,66 1.132,39 0,00 2.032,05 10.236,08 726,01 0,00 30/06/2015
209 604200 ANA PAULA VIANA E SILVA OFICIAL DO MP ATIVO BELO HORIZONTE - COMARCA; BH-17PJ PATRIMONIO PUBLICO-SECRETARIA 3.445,03 0,00 0,00 1.480,48 0,00 0,00 4.925,51 378,95 105,11 0,00 484,06 4.441,45 726,01 0,00 30/06/2015
210 505400 ANA PAULA VIEIRA SOUTO OFICIAL DO MP ATIVO ALMENARA - COMARCA; COORD. PAT. PUBLICO-MUCURI/JEQUIT - ALMENARA 3.557,16 711,43 0,00 1.806,22 0,00 0,00 6.074,81 469,54 186,62 0,00 656,16 5.418,65 961,01 0,00 30/06/2015
211 280200 ANA RACHEL BRANDAO LADEIRA ROLAND COORDENADOR/ANALISTA ATIVO BELO HORIZONTE - COMARCA; ASSESSORIA JURIDICO-ADMINISTRATIVA 0,00 2.831,04 14.155,19 0,00 0,00 0,00 16.986,23 1.396,12 3.417,92 0,00 4.814,04 12.172,19 726,01 0,00 30/06/2015
212 601200 ANA REGINA RIBEIRO ANALISTA DO MP ATIVO BELO HORIZONTE - COMARCA; EXTINTA - DIVISAO DE SERVICOS GERAIS 4.820,91 0,00 0,00 1.980,68 0,00 0,00 6.801,59 530,30 329,26 0,00 859,56 5.942,03 726,01 0,00 30/06/2015
213 384700 ANA RODRIGUES PEREIRA MARRA ANALISTA DO MP ATIVO COROMANDEL - COMARCA; COROMANDEL-PJ-SECRETARIA 6.973,67 697,37 0,00 3.835,52 0,00 0,00 11.506,56 843,81 955,99 0,00 1.799,80 9.706,76 726,01 0,00 30/06/2015
214 232700 ANA SILVIA SEMBLANO NAKAMURA ASSESSOR/OFICIAL ATIVO BELO HORIZONTE - COMARCA; CENT DE APOIO TEC-SETOR DEF,IDOSO E INFANC 0,00 1.690,36 8.451,80 3.755,43 0,00 0,00 13.897,59 1.043,35 1.632,81 0,00 2.676,16 11.221,43 726,01 0,00 30/06/2015
215 326700 ANA TERCIA DE FATIMA COSTA OFICIAL DO MP ATIVO NOVA SERRANA - COMARCA; NOVA SERRANA-PJ-01PJ 6.432,09 1.286,42 0,00 3.859,26 0,00 902,58 12.480,35 902,58 1.357,25 0,00 2.259,83 10.220,52 4.788,82 940,26 30/06/2015
216 602100 ANACLETO FRANCISCO MARCIER PIMENTA OFICIAL DO MP ATIVO SÃO JOÃO DEL REI - COMARCA; SAO JOAO DEL REI-PJ-01PJ 3.129,28 0,00 0,00 0,00 1.043,09 0,00 4.172,37 344,22 134,11 0,00 478,33 3.694,04 1.196,01 0,00 30/06/2015
217 310400 ANADEJE DO CARMO DINIZ ARAUJO OFICIAL DO MP ATIVO BELO HORIZONTE - COMARCA; CENT DE ATENDIMENTO E ORIENTACAO DE PESSOAL 6.432,09 1.286,42 0,00 3.859,26 0,00 0,00 11.577,77 902,58 1.138,87 0,00 2.041,45 9.536,32 823,35 495,64 30/06/2015
218 337000 ANAILDES MARIA MENDES OFICIAL DO MP ATIVO JANAÚBA - COMARCA; JANAUBA-PJ-02PJ 5.307,28 1.705,55 0,00 0,00 0,00 0,00 7.012,83 682,68 972,69 0,00 1.655,37 5.357,46 961,01 368,20 30/06/2015
219 192900 ANATALIA CERQUEIRA LIMA PERES OFICIAL DO MP ATIVO UBERABA - COMARCA; COORD REG SAUDE MACROR SANIT TRIANGULO SUL 7.435,23 2.230,57 0,00 4.832,90 0,00 0,00 14.498,70 1.063,24 1.496,34 0,00 2.559,58 11.939,12 726,01 0,00 30/06/2015
220 377400 ANDEIRSON DA MATTA BARBOSA ANALISTA DO MP ATIVO POUSO ALEGRE - COMARCA; POUSO ALEGRE-PJ-01PJ 7.677,29 767,73 0,00 4.222,51 0,00 0,00 12.667,53 928,95 1.197,56 0,00 2.126,51 10.541,02 726,01 0,00 30/06/2015
221 317400 ANDERSON DA SILVA BICALHO OFICIAL DO MP ATIVO CONTAGEM - COMARCA; COORD REG DEF ORDEM ECONOMICA TRIB CONTAGEM 5.842,66 584,27 0,00 2.586,38 0,00 0,00 9.013,31 751,55 646,43 0,00 1.397,98 7.615,33 1.196,01 405,36 30/06/2015
222 506900 ANDERSON DE SOUZA DAMIANI ANALISTA DO MP ATIVO BELO HORIZONTE - COMARCA; DIRETORIA DE PAGAMENTO DE PESSOAL-DPAG 6.032,93 1.206,59 0,00 3.619,76 0,00 0,00 10.859,28 796,35 798,24 0,00 1.594,59 9.264,69 961,01 0,00 30/06/2015
223 410000 ANDERSON DE SOUZA NETO ASSESSOR ATIVO BELO HORIZONTE - COMARCA; DIRETORIA DE ADMINISTRACAO FINANCEIRA 0,00 0,00 4.175,17 2.087,59 0,00 0,00 6.262,76 513,01 351,21 0,00 864,22 5.398,54 726,01 0,00 30/06/2015
224 181900 ANDERSON FLAVIO DE OLIVEIRA OFICIAL DO MP ATIVO ITAGUARA - COMARCA; ITAGUARA-PJ-SECRETARIA 8.727,00 2.618,10 0,00 5.672,55 0,00 0,00 17.017,65 1.326,67 2.115,27 0,00 3.441,94 13.575,71 726,01 834,77 30/06/2015
225 119500 ANDERSON FUNGHI DE AZEVEDO ROCHA DIRETOR/OFICIAL ATIVO BELO HORIZONTE - COMARCA; SUPRIN DE PLANEJAMENTO E COORDENACAO 0,00 11.324,16 14.155,19 12.739,68 0,00 0,00 38.219,03 2.373,56 5.380,46 0,00 7.754,02 30.465,01 4.788,82 372,42 30/06/2015
226 333200 ANDERSON JOSE DE FREITAS OFICIAL DO MP ATIVO IPATINGA - COMARCA; IPATINGA-PJ-07PJ 6.432,09 2.461,24 0,00 4.446,67 0,00 0,00 13.340,00 968,87 1.505,17 0,00 2.474,04 10.865,96 726,01 1.089,37 30/06/2015
227 462100 ANDERSON LUIZ GUIMARAES CARDOSO ANALISTA DO MP ATIVO BARBACENA - COMARCA; BARBACENA-PJ-02PJ 7.200,74 432,04 0,00 2.897,20 0,00 0,00 10.529,98 839,61 998,76 0,00 1.838,37 8.691,61 726,01 0,00 30/06/2015
228 429700 ANDERSON MELO DE SOUZA OFICIAL DO MP ATIVO BELO HORIZONTE - COMARCA; DIRET DE ESTAGIOS E CONVENIOS ACADEMICOS 4.379,06 437,91 0,00 2.408,49 0,00 0,00 7.225,46 611,05 524,06 0,00 1.135,11 6.090,35 1.095,04 888,75 30/06/2015
229 545600 ANDERSON MENDES PROCOPIO FERREIRA ANALISTA DO MP ATIVO BELO HORIZONTE - COMARCA; BH-12PJ JUIZO CRIMINAL-GAB 089PJ 5.842,66 0,00 0,00 2.319,66 0,00 0,00 8.162,32 642,69 560,63 0,00 1.203,32 6.959,00 726,01 0,00 30/06/2015
230 519900 ANDERSON MOREIRA DOEHLER ANALISTA DO MP ATIVO NOVO CRUZEIRO - COMARCA; NOVO CRUZEIRO-PJ-UNPJ 6.032,93 1.206,59 0,00 3.619,76 0,00 0,00 10.859,28 796,35 902,51 0,00 1.698,86 9.160,42 726,01 0,00 30/06/2015
231 103000 ANDERSON TADEU DE DEUS ASSESSOR ATIVO BELO HORIZONTE - COMARCA; EXTINTA - DIVISAO DE TRANSPORTES 0,00 2.087,58 4.175,17 3.131,38 0,00 0,00 9.394,13 513,01 911,47 0,00 1.424,48 7.969,65 726,01 0,00 30/06/2015
232 309200 ANDITYAS SOARES DE MOURA COSTA MATOS ANALISTA DO MP ATIVO BELO HORIZONTE - COMARCA; GABINETE DE PROCURADOR DE JUSTIÇA - SALA 909 9.011,08 1.802,22 0,00 5.406,65 0,00 0,00 16.219,95 1.189,46 1.777,20 0,00 2.966,66 13.253,29 726,01 0,00 30/06/2015
233 613500 ANDRE AZEVEDO SOUSA ANALISTA DO MP ATIVO BELO HORIZONTE - COMARCA; CAO-CRIANCAS E ADOLESCENTES 5.307,28 0,00 0,00 0,00 0,00 0,00 5.307,28 583,80 384,00 0,00 967,80 4.339,48 726,01 0,00 30/06/2015
234 519200 ANDRE BORJA LANA ANALISTA DO MP ATIVO BELO HORIZONTE - COMARCA; DIRETORIA DE IMPRENSA 6.641,51 398,49 0,00 3.520,00 0,00 0,00 10.560,00 774,40 853,68 0,00 1.628,08 8.931,92 726,01 0,00 30/06/2015
235 637200 ANDRE FERNANDES DA CUNHA OFICIAL DO MP ATIVO MORADA NOVA DE MINAS - COMARCA; MORADA NOVA DE MINAS-PJ-UNPJ 3.030,62 0,00 0,00 879,26 0,00 0,00 3.909,88 333,37 59,49 0,00 392,86 3.517,02 726,01 0,00 30/06/2015
236 521900 ANDRE LUIS GOMES SILVA ANALISTA DO MP ATIVO FORMIGA - COMARCA; FORMIGA-PJ-01PJ 6.641,51 398,49 0,00 2.732,03 0,00 0,00 9.772,03 774,40 801,54 0,00 1.575,94 8.196,09 726,01 0,00 30/06/2015
237 637300 ANDRE LUIS TOLENTINO MOURA ANALISTA DO MP ATIVO VARZEA DA PALMA - COMARCA; VARZEA DA PALMA-PJ-02PJ 4.668,87 0,00 0,00 0,00 0,00 0,00 4.668,87 513,58 298,81 0,00 812,39 3.856,48 726,01 0,00 30/06/2015
238 304300 ANDRE LUIZ AVELAR ANALISTA DO MP ATIVO BELO HORIZONTE - COMARCA; DIRETORIA DE REDES E BANCOS DE DADOS 6.857,79 1.371,56 0,00 4.114,68 0,00 0,00 12.344,03 905,23 1.144,77 0,00 2.050,00 10.294,03 726,01 0,00 30/06/2015
239 397400 ANDRE PATARO MYRRHA DE PAULA E SILVA ANALISTA DO MP ATIVO BELO HORIZONTE - COMARCA; ASSESSORIA JURIDICO-ADMINISTRATIVA 8.727,00 872,70 0,00 3.531,77 0,00 0,00 13.131,47 1.055,97 1.480,17 0,00 2.536,14 10.595,33 961,01 0,00 30/06/2015
240 548500 ANDRE VINICIUS CARVALHO MEIRA ANALISTA DO MP ATIVO JUIZ DE FORA - COMARCA; JUIZ DE FORA-PJ-25PJ 5.307,28 0,00 0,00 2.653,64 0,00 0,00 7.960,92 690,80 667,68 0,00 1.358,48 6.602,44 726,01 972,74 30/06/2015
241 297200 ANDRE WILLE ROSARIO ANALISTA DO MP ATIVO BELO HORIZONTE - COMARCA; ASSESSORIA ESPECIAL DO PGJ 10.576,63 2.115,33 0,00 6.345,98 0,00 0,00 19.037,94 1.396,12 2.080,58 0,00 3.476,70 15.561,24 961,01 0,00 30/06/2015
242 423600 ANDREA COSTA GUALBERTO ANALISTA DO MP ATIVO GOVERNADOR VALADARES - COMARCA; COORD REG PJ DEF EDU DIR CRIANCA ADOL RIODOCE 7.435,23 3.717,62 0,00 5.576,43 0,00 0,00 16.729,28 1.226,81 1.808,16 0,00 3.034,97 13.694,31 961,01 0,00 30/06/2015
243 198600 ANDREA CRISTINA ANDRADE COSTA E SOUZA OFICIAL DO MP ATIVO MONTES CLAROS - COMARCA; MONTES CLAROS-PJ-SECRETARIA 9.920,24 2.976,07 0,00 6.448,16 0,00 0,00 19.344,47 1.418,59 2.182,74 0,00 3.601,33 15.743,14 726,01 0,00 30/06/2015
244 467300 ANDREA DE CASSIA PENNA ALVERNAZ ANALISTA DO MP ATIVO PONTE NOVA - COMARCA; PONTE NOVA-PJ-01PJ 7.200,74 432,04 0,00 3.816,39 0,00 0,00 11.449,17 839,61 946,62 0,00 1.786,23 9.662,94 961,01 0,00 30/06/2015
245 308000 ANDREA DE CASSIA SANTOS OLIVEIRA ANALISTA DO MP ATIVO BELO HORIZONTE - COMARCA; ASSESS TECNICO-JUR JUNTO AS PROC. DE JUST 10.576,63 2.115,33 0,00 6.345,98 0,00 0,00 19.037,94 1.484,15 2.380,73 0,00 3.864,88 15.173,06 1.315,73 811,25 30/06/2015
246 349500 ANDREA DE OLIVEIRA OFICIAL DO MP ATIVO IGUATAMA - COMARCA; IGUATAMA-PJ-UNPJ 6.032,93 603,29 0,00 3.318,11 0,00 0,00 9.954,33 729,98 702,72 0,00 1.432,70 8.521,63 726,01 0,00 30/06/2015
247 254700 ANDREA EMISE REIS DE AZEVEDO COORDENADOR/OFICIAL ATIVO BELO HORIZONTE - COMARCA; COMB CRIMES PRAT POR AG POL MUN-SECRETARIA 0,00 1.921,48 9.607,41 5.764,45 0,00 0,00 17.293,34 951,11 2.039,53 0,00 2.990,64 14.302,70 726,01 0,00 30/06/2015
248 287900 ANDREA FERNANDES PENA OFICIAL DO MP ATIVO MONTES CLAROS - COMARCA; MONTES CLAROS-PJ-09PJ 6.973,67 1.394,73 0,00 4.184,20 0,00 0,00 12.552,60 920,52 1.074,53 0,00 1.995,05 10.557,55 726,01 0,00 30/06/2015
249 300800 ANDREA FERREIRA ANALISTA DO MP ATIVO LAVRAS - COMARCA; LAVRAS-PJ-04PJ 10.243,18 2.048,64 0,00 0,00 0,00 0,00 12.291,82 1.437,36 2.328,76 0,00 3.766,12 8.525,70 726,01 775,06 30/06/2015
250 316700 ANDREA FRANCISCA DIAS DE SOUZA ASSESSOR ATIVO BELO HORIZONTE - COMARCA; BH-14PJ DEFESA CONSUMIDOR-GAB 110PJ 0,00 0,00 3.226,63 1.100,71 0,00 0,00 4.327,34 354,93 75,96 0,00 430,89 3.896,45 0,00 0,00 30/06/2015
251 395100 ANDREA LANNA MENDES NOVAIS ANALISTA DO MP ATIVO BELO HORIZONTE - COMARCA; PROMOT ESTADUAL DE DEF PATRI CULT E TUR DE MG 9.011,08 901,11 0,00 0,00 0,00 0,00 9.912,19 1.159,09 1.657,47 0,00 2.816,56 7.095,63 1.196,01 624,98 30/06/2015
252 67300 ANDREA LEAO MAGALHAES ROQUE ASSESSOR ATIVO BELO HORIZONTE - COMARCA; COORD DE CONT. DA CONSTITUCIONALIDADE-SEC 0,00 4.225,90 8.451,80 6.338,85 0,00 0,00 19.016,55 513,01 2.571,31 0,00 3.084,32 15.932,23 726,01 0,00 30/06/2015
253 335700 ANDREA LOPES PEREIRA ANALISTA DO MP ATIVO GOVERNADOR VALADARES - COMARCA; COORD REG DO MA DA BACIA DO RIO DOCE 10.243,18 2.048,64 0,00 6.145,91 0,00 0,00 18.437,73 1.464,78 2.389,76 0,00 3.854,54 14.583,19 5.813,14 1.490,64 30/06/2015
254 389200 ANDREA TUPINI DOS SANTOS TRISTAO DA ROCHA OFICIAL DO MP ATIVO BELO HORIZONTE - COMARCA; BH-13ª PJ JUÍZO DE TÓXICOS-SECRETARIA 4.379,06 437,91 0,00 2.408,49 0,00 0,00 7.225,46 529,87 285,81 0,00 815,68 6.409,78 726,01 0,00 30/06/2015
255 419000 ANDREIA BARBOSA DE ALMEIDA ANALISTA DO MP ATIVO BELO HORIZONTE - COMARCA; GABINETE DE PROCURADOR DE JUSTIÇA - SALA 705 8.185,27 818,53 0,00 4.501,90 0,00 0,00 13.505,70 990,42 1.334,32 0,00 2.324,74 11.180,96 961,01 0,00 30/06/2015
256 281501 ANDREIA CARLA COSTA FILGUEIRAS ANALISTA DO MP ATIVO VISCONDE DO RIO BRANCO - COMARCA; VISCONDE DO RIO BRANCO-PJ-02PJ 8.727,00 872,70 0,00 4.799,85 0,00 0,00 14.399,55 1.122,57 1.524,07 0,00 2.646,64 11.752,91 888,51 620,34 30/06/2015
257 477100 ANDREIA DE ALMEIDA RIBEIRO MELO OFICIAL DO MP ATIVO CONTAGEM - COMARCA; CONTAGEM-PJ-07PJ 4.241,01 254,46 0,00 2.247,74 1.498,49 0,00 8.241,70 494,50 642,99 0,00 1.137,49 7.104,21 961,01 0,00 30/06/2015
258 619000 ANDREIA FERREIRA NORONHA OFICIAL DO MP ATIVO BELO HORIZONTE - COMARCA; DIRETORIA DE SERVICO CRIMINAL 3.336,37 0,00 0,00 1.668,19 1.112,12 0,00 6.116,68 367,00 1.087,36 0,00 1.454,36 4.662,32 726,01 3.033,85 30/06/2015
259 424000 ANDREIA LUCIA COUTO ANALISTA DO MP ATIVO BELO HORIZONTE - COMARCA; BH-18PJ DIREITOS HUMANOS 8.727,00 872,70 0,00 4.799,85 3.199,90 0,00 17.599,45 1.122,57 2.508,32 0,00 3.630,89 13.968,56 961,01 605,44 30/06/2015
260 370100 ANDREIA MARIA SILVA PINTO OFICIAL DO MP ATIVO CORONEL FABRICIANO - COMARCA; CORONEL FABRICIANO-PJ-01PJ 6.032,93 603,29 0,00 3.318,11 0,00 0,00 9.954,33 729,98 754,86 0,00 1.484,84 8.469,49 726,01 0,00 30/06/2015
261 382100 ANDREIA NATALI PEREIRA OFICIAL DO MP ATIVO PRADOS - COMARCA; PRADOS-PJ-UNPJ 6.032,93 603,29 0,00 3.318,11 0,00 0,00 9.954,33 863,78 1.108,30 0,00 1.972,08 7.982,25 726,01 1.419,06 30/06/2015
262 275200 ANDREIA RIBEIRO FREITAS OFICIAL DO MP ATIVO VIÇOSA - COMARCA; VICOSA-PJ-03PJ 6.973,67 1.394,73 0,00 4.184,20 0,00 0,00 12.552,60 951,12 1.194,74 0,00 2.145,86 10.406,74 961,01 278,12 30/06/2015
263 352200 ANDREIA XAVIER PEREIRA OFICIAL DO MP ATIVO CLÁUDIO - COMARCA; CLAUDIO-PJ-UNPJ 6.032,93 603,29 0,00 3.318,11 0,00 0,00 9.954,33 729,98 754,86 0,00 1.484,84 8.469,49 726,01 0,00 30/06/2015
264 638500 ANDRESA ALVES FEITOSA CASAGRANDE ANALISTA DO MP ATIVO PERDÕES - COMARCA; PERDOES-PJ-UNPJ 4.668,87 0,00 0,00 778,15 0,00 0,00 5.447,02 804,60 920,88 0,00 1.725,48 3.721,54 1.155,02 2.645,69 30/06/2015
265 383700 ANDRESSA EDUARDO SOUZA ANALISTA DO MP ATIVO OURO BRANCO - COMARCA; OURO BRANCO-PJ-SECRETARIA 8.727,00 872,70 0,00 3.531,77 0,00 0,00 13.131,47 1.055,97 1.480,17 0,00 2.536,14 10.595,33 961,01 0,00 30/06/2015
266 426200 ANDRESSA MENDES CASAL ASSESSOR/OFICIAL ATIVO BELO HORIZONTE - COMARCA; BH-12PJ JUIZO CRIMINAL-SECRETARIA 0,00 664,15 6.641,51 2.871,52 0,00 0,00 10.177,18 583,33 1.547,50 0,00 2.130,83 8.046,35 726,01 2.066,24 30/06/2015
267 390100 ANDRESSA RIBEIRO PUCCI OFICIAL DO MP ATIVO UBERABA - COMARCA; UBERABA-PJ-14PJ 4.977,82 497,78 0,00 2.201,24 0,00 0,00 7.676,84 602,32 470,79 0,00 1.073,11 6.603,73 726,01 0,00 30/06/2015
268 462500 ANDREZA APARECIDA COSTA E SILVA ANALISTA DO MP ATIVO CONSELHEIRO LAFAIETE - COMARCA; CONSELHEIRO LAFAIETE-PJ-02PJ 7.200,74 432,04 0,00 3.816,39 0,00 0,00 11.449,17 839,61 998,76 0,00 1.838,37 9.610,80 726,01 0,00 30/06/2015
269 537800 ANDREZZA LUZIA DE OLIVEIRA ALVES ANALISTA DO MP ATIVO PATOS DE MINAS - COMARCA; COORD REG PJ DEF EDU DIR CRI ADO AL PAR NOROE 5.842,66 0,00 0,00 2.921,33 0,00 0,00 8.763,99 642,69 456,36 0,00 1.099,05 7.664,94 726,01 0,00 30/06/2015
270 491600 ANE PATRICIA RIBEIRO ANALISTA DO MP ATIVO SETE LAGOAS - COMARCA; SETE LAGOAS-PJ-10PJ 6.641,51 398,49 0,00 2.732,03 0,00 0,00 9.772,03 774,40 801,54 0,00 1.575,94 8.196,09 961,01 0,00 30/06/2015
271 465800 ANELISE GAMA ASSESSOR ATIVO BELO HORIZONTE - COMARCA; BH-18PJ VIOLENCIA DOMESTICA-SECRETARIA 0,00 0,00 4.175,17 1.756,65 0,00 0,00 5.931,82 513,01 351,21 0,00 864,22 5.067,60 726,01 0,00 30/06/2015
272 535200 ANELIZE FERNANDA ALVES VILARINHO OFICIAL DO MP ATIVO CAPINÓPOLIS - COMARCA; CAPINOPOLIS-PJ-UNPJ 3.445,03 0,00 0,00 1.480,48 0,00 0,00 4.925,51 378,95 105,11 0,00 484,06 4.441,45 2.793,03 103,35 30/06/2015
273 197200 ANGELA COELHO SALDANHA OFICIAL DO MP ATIVO PARÁ DE MINAS - COMARCA; PARA DE MINAS-PJ-03PJ 10.243,18 3.072,95 0,00 6.658,07 0,00 0,00 19.974,20 1.557,13 2.595,27 0,00 4.152,40 15.821,80 865,39 852,42 30/06/2015
274 307400 ANGELA CRISTINA GONCALVES MUNIZ ANALISTA DO MP ATIVO UBERLÂNDIA - COMARCA; UBERLANDIA-PJ-SEC FAMILIA 10.576,63 3.172,99 0,00 6.874,81 0,00 0,00 20.624,43 1.512,46 2.443,72 0,00 3.956,18 16.668,25 961,01 0,00 30/06/2015
275 191800 ANGELA MARIA DE OLIVEIRA OFICIAL DO MP ATIVO GUARANÉSIA - COMARCA; GUARANESIA-PJ-SECRETARIA 10.243,18 4.097,27 0,00 7.170,23 0,00 0,00 21.510,68 1.676,91 2.809,64 0,00 4.486,55 17.024,13 5.240,94 1.318,08 30/06/2015
276 69900 ANGELA MARIA DE PAULA CUNHA OFICIAL DO MP ATIVO JUIZ DE FORA - COMARCA; JUIZ DE FORA-PJ-11PJ 10.576,63 7.403,64 0,00 8.990,14 0,00 0,00 26.970,41 2.102,54 3.808,79 0,00 5.911,33 21.059,08 1.012,39 1.159,99 30/06/2015
277 497400 ANGELA MARIA HENRIQUES ANALISTA DO MP ATIVO BELO HORIZONTE - COMARCA; COORD REG BACIAS RIO VELHAS E PARAOPEBA 6.032,93 361,98 0,00 3.197,46 2.131,64 0,00 11.724,01 703,44 1.282,00 0,00 1.985,44 9.738,57 1.196,01 0,00 30/06/2015
278 260700 ANGELICA CRISTINA AZEVEDO MOREIRA MOUCO OFICIAL DO MP ATIVO UBÁ - COMARCA; UBA-PJ-02PJ 7.200,74 1.440,15 0,00 4.320,45 0,00 0,00 12.961,34 950,50 1.193,36 0,00 2.143,86 10.817,48 961,01 0,00 30/06/2015
279 334600 ANGELICA PANISSA DE FREITAS OFICIAL DO MP ATIVO GUAXUPÉ - COMARCA; GUAXUPE-PJ-02PJ 6.432,09 1.286,42 0,00 3.859,26 0,00 0,00 11.577,77 849,04 1.019,74 0,00 1.868,78 9.708,99 726,01 0,00 30/06/2015
280 521100 ANGELICA SALES MOREIRA OFICIAL DO MP ATIVO BELO HORIZONTE - COMARCA; BH-02PJ FAMILIA-SECRETARIA 3.916,07 234,96 0,00 2.075,52 0,00 0,00 6.226,55 456,61 199,36 0,00 655,97 5.570,58 726,01 0,00 30/06/2015
281 466500 ANGELLO MARQUES AGRELLI ANALISTA DO MP ATIVO MAR DE ESPANHA - COMARCA; MAR DE ESPANHA-PJ-UNPJ 7.200,74 432,04 0,00 3.816,39 0,00 0,00 11.449,17 839,61 998,76 0,00 1.838,37 9.610,80 726,01 0,00 30/06/2015
282 363300 ANGELO VERDOLIN HENRIQUES ANALISTA DO MP ATIVO SETE LAGOAS - COMARCA; SETE LAGOAS-PJ-04PJ 9.920,24 2.976,07 0,00 4.595,35 0,00 0,00 17.491,66 1.418,59 2.287,01 0,00 3.705,60 13.786,06 961,01 0,00 30/06/2015
283 250900 ANISIO APARECIDO SANTOS OFICIAL DO MP ATIVO CONTAGEM - COMARCA; CONTAGEM-PJ-19PJ 4.977,82 1.493,35 0,00 3.235,59 0,00 0,00 9.706,76 711,83 226,84 0,00 938,67 8.768,09 726,01 0,00 30/06/2015
284 253400 ANNA FLAVIA LEHMAN BATTAGLIA ASSESSOR ESPECIAL ATIVO BELO HORIZONTE - COMARCA; GABINETE DO PROCURADOR-GERAL DE JUSTICA 20.076,03 4.015,21 0,00 12.045,62 0,00 0,00 36.136,86 1.536,97 5.176,65 0,00 6.713,62 29.423,24 3.528,12 256,86 30/06/2015
285 447600 ANNGELUCE ALCANTARA DE CAMPOS OFICIAL DO MP ATIVO DIVINÓPOLIS - COMARCA; DIVINOPOLIS-PJ-10PJ 4.043,58 404,36 0,00 2.223,97 0,00 0,00 6.671,91 489,27 254,57 0,00 743,84 5.928,07 726,01 0,00 30/06/2015
286 615900 ANNY ANGEL MOREIRA MELO ANALISTA DO MP ATIVO ARAXÁ - COMARCA; ARAXA-PJ-04PJ 5.139,92 0,00 0,00 0,00 0,00 0,00 5.139,92 565,39 393,14 0,00 958,53 4.181,39 2.038,12 80,78 30/06/2015
287 119600 ANSELMO BORGES PARREIRAS OFICIAL DO MP ATIVO BONFIM - COMARCA; BONFIM-PJ-UNPJ 5.658,41 3.960,88 0,00 4.809,65 0,00 0,00 14.428,94 1.058,12 1.432,82 0,00 2.490,94 11.938,00 726,01 0,00 30/06/2015
288 630300 ANTONIA GOMES RAMALHO OFICIAL DO MP ATIVO NOVO CRUZEIRO - COMARCA; NOVO CRUZEIRO-PJ-UNPJ 3.336,37 0,00 0,00 1.439,38 0,00 0,00 4.775,75 367,00 90,61 0,00 457,61 4.318,14 726,01 0,00 30/06/2015
289 332400 ANTONIA MARIA MAMEDE OFICIAL DO MP ATIVO UBERLÂNDIA - COMARCA; COORD REG PP TRIANGULO MINEIRO UBERLANDIA 6.641,51 1.328,30 0,00 3.005,94 0,00 0,00 10.975,75 1.097,01 1.571,49 0,00 2.668,50 8.307,25 2.059,60 2.125,28 30/06/2015
290 401600 ANTONIO CARLOS GUEDES AROUCA ANALISTA DO MP ATIVO BELO HORIZONTE - COMARCA; EXTINTA - CAO-IDOSOS PESSOAS DEFIC-SEC ADM 8.451,80 845,18 0,00 4.648,49 0,00 0,00 13.945,47 1.022,67 1.406,08 0,00 2.428,75 11.516,72 726,01 0,00 30/06/2015
291 7100 ANTONIO DO NASCIMENTO OLIVEIRA ASSESSOR ATIVO BELO HORIZONTE - COMARCA; GAECO - SECRETARIA 0,00 2.250,56 2.500,62 2.375,59 0,00 0,00 7.126,77 513,01 216,16 0,00 729,17 6.397,60 726,01 0,00 30/06/2015
292 333900 ANTONIO GONCALVES DE SOUZA FILHO OFICIAL DO MP ATIVO BELO HORIZONTE - COMARCA; DIVISAO DE MEMORIA INSTITUCIONAL 6.032,93 1.206,59 0,00 3.619,76 0,00 0,00 10.859,28 862,71 1.050,17 0,00 1.912,88 8.946,40 726,01 603,29 30/06/2015
293 176100 ANTONIO MARCELO CAMPOS CAMPANELLA OFICIAL DO MP ATIVO BELO HORIZONTE - COMARCA; SUPERINTENDENCIA DE RECURSOS HUMANOS 10.243,18 4.097,27 0,00 7.170,23 0,00 0,00 21.510,68 1.782,49 3.096,67 0,00 4.879,16 16.631,52 961,01 1.863,96 30/06/2015
294 119800 ANTONIO MARCIANO DE PAULA AGENTE DO MP ATIVO BELO HORIZONTE - COMARCA; DIVISAO DE MANUTENCAO PREDIAL 4.379,06 3.941,16 0,00 4.160,11 0,00 915,22 13.395,55 915,22 1.418,70 0,00 2.333,92 11.061,63 726,01 0,00 30/06/2015
295 321001 ANTONIO OLINTO VIEIRA MACHADO ANALISTA DO MP ATIVO BELO HORIZONTE - COMARCA; CENTRAL DE APOIO TECN-SETOR DE MEIO AMBIENTE 9.011,08 901,11 0,00 4.956,10 0,00 0,00 14.868,29 1.159,09 1.553,20 0,00 2.712,29 12.156,00 773,26 629,31 30/06/2015
296 356200 ANTONIO PAULA DA SILVA OFICIAL DO MP ATIVO JUIZ DE FORA - COMARCA; JUIZ DE FORA-PJ-20PJ 5.842,66 1.168,53 0,00 3.505,60 0,00 0,00 10.516,79 819,87 975,13 0,00 1.795,00 8.721,79 4.788,82 888,32 30/06/2015
297 119900 ANTONIO RODRIGUES DE PINHO OFICIAL DO MP ATIVO GUANHÃES - COMARCA; GUANHAES-PJ-01PJ 9.920,24 4.960,12 0,00 0,00 4.960,12 0,00 19.840,48 1.962,58 4.757,13 0,00 6.719,71 13.120,77 1.654,99 3.046,42 30/06/2015
298 373300 ANTONIO SERGIO ANANIAS OFICIAL DO MP ATIVO AIURUOCA - COMARCA; AIURUOCA-PJ-UNPJ 5.307,28 530,73 0,00 2.919,01 0,00 0,00 8.757,02 642,18 455,22 0,00 1.097,40 7.659,62 726,01 0,00 30/06/2015
299 608100 ANTONIO SIDINEY VIEIRA LEMOS ANALISTA DO MP ATIVO PIRAPORA - COMARCA; PIRAPORA-PJ-01PJ 5.307,28 1.592,18 0,00 3.449,73 0,00 0,00 10.349,19 758,94 819,28 0,00 1.578,22 8.770,97 726,01 0,00 30/06/2015
300 374700 ANTONIO SILVA NETO OFICIAL DO MP ATIVO BELO HORIZONTE - COMARCA; GAECO - SECRETARIA 5.480,05 548,01 0,00 3.014,03 0,00 0,00 9.042,09 663,09 606,01 0,00 1.269,10 7.772,99 726,01 0,00 30/06/2015
301 636700 ANTONIUS VITORIANO FERNANDES OFICIAL DO MP ATIVO BELO HORIZONTE - COMARCA; PROCON-MG 3.030,62 0,00 0,00 0,00 0,00 0,00 3.030,62 333,37 45,27 0,00 378,64 2.651,98 726,01 0,00 30/06/2015
302 413200 ANY PEREIRA SILVA ANALISTA DO MP ATIVO TRÊS PONTAS - COMARCA; TRES PONTAS-PJ-01PJ 8.185,27 818,53 0,00 4.501,90 0,00 0,00 13.505,70 990,42 1.230,05 0,00 2.220,47 11.285,23 726,01 0,00 30/06/2015
303 151401 APARECIDA DE FATIMA MENDES DE ALMEIDA ASSESSOR ATIVO JUIZ DE FORA - COMARCA; JUIZ DE FORA-PJ-SECRETARIA 0,00 0,00 4.175,17 2.087,59 0,00 0,00 6.262,76 513,01 351,21 0,00 864,22 5.398,54 726,01 0,00 30/06/2015
304 329300 APARECIDA MARIA MELO DE ASSIS OFICIAL DO MP ATIVO BELO HORIZONTE - COMARCA; BH-18PJ DIREITOS HUMANOS-SECRETARIA 6.432,09 1.286,42 0,00 3.859,26 2.572,84 0,00 14.150,61 849,04 1.727,28 0,00 2.576,32 11.574,29 726,01 0,00 30/06/2015
305 475300 APARECIDA MARLENE FREIRE ROSA ANALISTA DO MP ATIVO BELO HORIZONTE - COMARCA; BH-02PJ FAMILIA-SECRETARIA 7.200,74 5.760,59 0,00 6.480,67 0,00 0,00 19.442,00 1.425,75 2.302,92 0,00 3.728,67 15.713,33 726,01 0,00 30/06/2015
306 240300 APARECIDA PEREIRA DO NASCIMENTO OFICIAL DO MP ATIVO ITURAMA - COMARCA; ITURAMA-PJ-01PJ 8.451,80 4.225,90 0,00 6.338,85 0,00 0,00 19.016,55 1.394,55 2.233,51 0,00 3.628,06 15.388,49 792,01 0,00 30/06/2015
307 354500 APARECIDA VIEIRA DE CARVALHO OFICIAL DO MP ATIVO BELO HORIZONTE - COMARCA; PROCON-MG-SEC DE EDUCACAO PARA O CONSUMO 4.977,82 497,78 0,00 2.737,80 0,00 0,00 8.213,40 602,32 470,79 0,00 1.073,11 7.140,29 726,01 0,00 30/06/2015
308 551000 ARACELES BICALHO FELIX ANALISTA DO MP ATIVO MANHUAÇU - COMARCA; MANHUACU-PJ-02PJ 5.842,66 0,00 0,00 2.319,66 0,00 0,00 8.162,32 760,48 871,78 0,00 1.632,26 6.530,06 726,01 1.249,22 30/06/2015
309 286200 ARACELI MEDRADO DOS SANTOS LIMA OFICIAL DO MP ATIVO PARACATU - COMARCA; PARACATU-PJ-03PJ 4.977,82 995,56 0,00 2.986,69 0,00 0,00 8.960,07 657,07 592,63 0,00 1.249,70 7.710,37 774,01 0,00 30/06/2015
310 189000 ARAHY MARQUES SILVA OFICIAL DO MP ATIVO BELO HORIZONTE - COMARCA; BH-16PJ HABITACAO E URBANISMO 4.977,82 1.493,35 0,00 3.235,59 0,00 0,00 9.706,76 711,83 714,46 0,00 1.426,29 8.280,47 726,01 0,00 30/06/2015
311 112200 ARAQUEM AUGUSTO DE MATOS AGENTE DO MP ATIVO BELO HORIZONTE - COMARCA; BH-23PJ INFRACIONAL-SEC EXP 4.977,82 3.484,48 0,00 4.231,15 0,00 0,00 12.693,45 930,85 1.045,38 0,00 1.976,23 10.717,22 961,01 0,00 30/06/2015
312 280600 ARDUINO FRATTEZI ANALISTA DO MP ATIVO BELO HORIZONTE - COMARCA; CENTRAL DE APOIO TECNICO-SETOR CONTABIL 10.576,63 2.115,33 0,00 6.345,98 0,00 0,00 19.037,94 1.396,12 2.237,00 0,00 3.633,12 15.404,82 726,01 0,00 30/06/2015
313 520201 ARIANE DE FATIMA CARVALHO ALMEIDA ANALISTA DO MP ATIVO BELO HORIZONTE - COMARCA; BH-18PJ VIOLENCIA DOMESTICA-SECRETARIA 5.139,92 0,00 0,00 2.112,02 0,00 0,00 7.251,94 565,39 350,48 0,00 915,87 6.336,07 726,01 0,00 30/06/2015
314 537600 ARIELA FREIRE MONTIJO ANALISTA DO MP ATIVO ARCOS - COMARCA; ARCOS-PJ-01PJ 5.842,66 0,00 0,00 0,00 0,00 0,00 5.842,66 642,69 508,49 0,00 1.151,18 4.691,48 726,01 0,00 30/06/2015
315 182000 ARILSON ALEXANDRE MARTINS MAGALHAES OFICIAL DO MP ATIVO JOÃO MONLEVADE - COMARCA; JOAO MONLEVADE-PJ-01PJ 9.011,08 3.604,43 0,00 6.307,76 0,00 0,00 18.923,27 1.387,71 2.114,01 0,00 3.501,72 15.421,55 900,22 0,00 30/06/2015
316 511000 ARISLANE CAROLINA DA SILVA ANALISTA DO MP ATIVO CAMPINA VERDE - COMARCA; CAMPINA VERDE-PJ-UNPJ 6.032,93 361,98 0,00 3.197,46 0,00 0,00 9.592,37 703,44 695,79 0,00 1.399,23 8.193,14 726,01 0,00 30/06/2015
317 170000 ARLEY BRITES DA SILVA ASSESSOR ATIVO BELO HORIZONTE - COMARCA; EXTINTA - DIVISÃO DE MATERIAL PERMANENTE 0,00 1.252,55 4.175,17 2.713,86 0,00 0,00 8.141,58 513,01 525,43 0,00 1.038,44 7.103,14 961,01 0,00 30/06/2015
318 120400 ARLINDO CASSIO DA CRUZ OFICIAL DO MP ATIVO SÃO GONÇALO DO SAPUCAÍ - COMARCA; SAO GONCALO DO SAPUCAI-PJ-01PJ 13.616,17 9.531,32 0,00 11.573,75 0,00 0,00 34.721,24 2.546,22 4.639,58 0,00 7.185,80 27.535,44 989,69 0,00 30/06/2015
319 243700 ARLINDO MARCIO LACERDA OFICIAL DO MP ATIVO CONTAGEM - COMARCA; CONTAGEM-PJ-03PJ 7.435,23 3.405,39 0,00 5.420,31 0,00 0,00 16.260,93 1.063,24 1.819,42 0,00 2.882,66 13.378,27 4.788,82 372,42 30/06/2015
320 392100 ARNALDO DE ANDRADE OFICIAL DO MP ATIVO DIVINÓPOLIS - COMARCA; DIVINOPOLIS-PJ-02PJ 6.032,93 1.778,11 0,00 3.905,52 0,00 0,00 11.716,56 863,78 1.431,38 0,00 2.295,16 9.421,40 726,01 1.419,06 30/06/2015
321 352801 ARTHUR JONAS MENDONCA E ARAUJO ANALISTA DO MP ATIVO UBERABA - COMARCA; UBERABA-PJ-12PJ 7.435,23 743,52 0,00 4.089,38 0,00 0,00 12.268,13 899,66 1.028,12 0,00 1.927,78 10.340,35 961,01 0,00 30/06/2015
322 302100 AUGUSTO ROUSSEAU DE CASTRO ANALISTA DO MP ATIVO CATAGUASES - COMARCA; CATAGUASES-PJ-02PJ 11.643,70 2.328,74 0,00 6.986,22 0,00 0,00 20.958,66 1.633,89 2.766,04 0,00 4.399,93 16.558,73 1.026,28 908,60 30/06/2015
323 540200 AUREA AVELAR OFICIAL DO MP ATIVO FERROS - COMARCA; FERROS-PJ-UNPJ 3.445,03 0,00 0,00 1.722,52 0,00 0,00 5.167,55 378,95 58,72 0,00 437,67 4.729,88 726,01 0,00 30/06/2015
324 633500 AUREA GONTIJO BIRCHAL ASSESSOR I ATIVO BELO HORIZONTE - COMARCA; COORD DE GABINETE DO PGJ 0,00 0,00 6.641,51 3.320,76 0,00 0,00 9.962,27 513,01 1.015,63 0,00 1.528,64 8.433,63 726,01 0,00 30/06/2015
325 183200 AURELIANO MAGELA DE REZENDE COORDENADOR/OFICIAL ATIVO BELO HORIZONTE - COMARCA; COORD DE GABINETE DO PGJ 0,00 3.276,30 10.921,00 7.098,65 0,00 0,00 21.295,95 1.373,86 2.657,09 0,00 4.030,95 17.265,00 726,01 0,00 30/06/2015
326 629400 AYESKA DA COSTA VAL MOURA DABIEN OFICIAL DO MP ATIVO BELO HORIZONTE - COMARCA; BH-18PJ VIOLENCIA DOMESTICA-SECRETARIA 3.336,37 0,00 0,00 1.668,19 0,00 0,00 5.004,56 367,00 90,61 0,00 457,61 4.546,95 726,01 0,00 30/06/2015
327 436800 BARBARA ROCHA LADEIA COLEN OFICIAL DO MP ATIVO BELO HORIZONTE - COMARCA; ASSESS TECNICO-JUR JUNTO AS PROC. DE JUST 5.307,28 530,73 0,00 2.318,17 0,00 0,00 8.156,18 682,68 666,49 0,00 1.349,17 6.807,01 910,11 446,45 30/06/2015
328 546500 BARBARA ZACARONI GOULART OFICIAL DO MP ATIVO BETIM - COMARCA; BETIM-PJ-08PJ 3.445,03 0,00 0,00 1.480,48 0,00 0,00 4.925,51 448,42 205,20 0,00 653,62 4.271,89 726,01 736,75 30/06/2015
329 316500 BEATRIZ ABILVIA DA SILVA ANALISTA DO MP ATIVO GOVERNADOR VALADARES - COMARCA; GOVERNADOR VALADARES-PJ-07PJ 10.576,63 2.115,33 0,00 6.345,98 0,00 0,00 19.037,94 1.484,15 2.380,73 0,00 3.864,88 15.173,06 845,73 811,25 30/06/2015
330 311800 BEATRIZ APARECIDA SOARES GANEM OFICIAL DO MP ATIVO ITAMBACURI - COMARCA; ITAMBACURI-PJ-02PJ 6.857,79 1.371,56 0,00 4.114,68 0,00 0,00 12.344,03 905,23 988,36 0,00 1.893,59 10.450,44 726,01 0,00 30/06/2015
331 266800 BEATRIZ AUGUSTA VILACA GOMES DA SILVA OFICIAL DO MP ATIVO BELO HORIZONTE - COMARCA; BH-05PJ-JUÍZO SUCESSÕES-SEC 6.032,93 1.206,59 0,00 0,00 0,00 0,00 7.239,52 796,35 902,51 0,00 1.698,86 5.540,66 726,01 0,00 30/06/2015
332 235200 BEATRIZ BOTELHO BATISTA OFICIAL DO MP ATIVO BELO HORIZONTE - COMARCA; BH-21PJ TUTELA FUNDACOES-SECRETARIA 6.973,67 2.092,10 0,00 4.532,89 0,00 0,00 13.598,66 997,23 1.349,49 0,00 2.346,72 11.251,94 726,01 0,00 30/06/2015
333 113500 BEATRIZ DE LOURDES SOUZA ASSESSOR ATIVO BELO HORIZONTE - COMARCA; BH-02PJ FAMILIA-PROM DEC PAT 0,00 4.649,06 6.641,51 5.645,29 0,00 0,00 16.935,86 513,01 1.697,16 0,00 2.210,17 14.725,69 726,01 0,00 30/06/2015
334 182300 BEATRIZ PAULA SOUSA RAMOS OFICIAL DO MP ATIVO MARIANA - COMARCA; MARIANA-PJ-01PJ 9.011,08 3.604,43 0,00 0,00 0,00 0,00 12.615,51 1.387,71 2.114,01 0,00 3.501,72 9.113,79 726,01 0,00 30/06/2015
335 507000 BELCHIOR FRANKLIN AMARAL LEITE ANALISTA DO MP ATIVO BELO HORIZONTE - COMARCA; CENTRAL DE APOIO TECNICO 6.641,51 398,49 0,00 2.784,16 0,00 0,00 9.824,16 774,40 697,27 0,00 1.471,67 8.352,49 3.777,01 258,13 30/06/2015
336 345100 BENITO ELIAS RODRIGUES ANALISTA DO MP ATIVO BARBACENA - COMARCA; BARBACENA-PJ-SECRETARIA 10.243,18 1.024,32 0,00 5.633,75 0,00 0,00 16.901,25 1.317,58 2.062,24 0,00 3.379,82 13.521,43 1.081,24 743,02 30/06/2015
337 207300 BENITO VIEIRA DOS SANTOS ANALISTA DO MP ATIVO BELO HORIZONTE - COMARCA; COMB CRIMES PRAT POR AG POL MUN-ASSESSORIA 14.715,61 4.414,68 0,00 9.565,15 0,00 2.104,33 30.799,77 2.104,33 3.062,64 0,00 5.166,97 25.632,80 726,01 0,00 30/06/2015
338 480200 BERNADETE NUNES DOS SANTOS ANALISTA DO MP ATIVO GUANHÃES - COMARCA; GUANHAES-PJ-02PJ 7.200,74 1.440,15 0,00 3.222,45 0,00 0,00 11.863,34 950,50 1.245,50 0,00 2.196,00 9.667,34 726,01 0,00 30/06/2015
339 378400 BETANIA FARNESI DE SOUZA E SILVA OFICIAL DO MP ATIVO SETE LAGOAS - COMARCA; SETE LAGOAS-PJ-03PJ 5.480,05 1.644,02 0,00 0,00 0,00 0,00 7.124,07 783,65 822,12 0,00 1.605,77 5.518,30 961,01 0,00 30/06/2015
340 387400 BETANIA MENDONCA DE ASSIS ANALISTA DO MP ATIVO BELO HORIZONTE - COMARCA; BH-08PJ JUIZADO ESPECIAL-SECRETARIA 8.727,00 872,70 0,00 4.799,85 0,00 0,00 14.399,55 1.055,97 1.480,17 0,00 2.536,14 11.863,41 726,01 0,00 30/06/2015
341 450300 BIANCA OLIVEIRA DE ALBUQUERQUE ANALISTA DO MP ATIVO BELO HORIZONTE - COMARCA; BH-10PJ EXECUÇÃO PENAL-SECRETARIA 7.435,23 743,52 0,00 4.089,38 0,00 0,00 12.268,13 899,66 1.132,39 0,00 2.032,05 10.236,08 1.196,01 0,00 30/06/2015
342 535400 BIANCA SALOTO ROSSI ANALISTA DO MP ATIVO SANTOS DUMONT - COMARCA; SANTOS DUMONT-PJ-01PJ 5.842,66 0,00 0,00 2.921,33 0,00 0,00 8.763,99 642,69 560,63 0,00 1.203,32 7.560,67 726,01 0,00 30/06/2015
343 120800 BRAS MARQUES DE SOUZA ANALISTA DO MP ATIVO BELO HORIZONTE - COMARCA; EXTINTA - SUPERINTENDENCIA ADMINISTRATIVA-SAD 19.311,46 13.518,03 0,00 15.235,56 0,00 0,00 48.065,05 3.351,82 6.432,03 2.358,38 12.142,23 35.922,82 4.788,82 372,42 30/06/2015
344 460900 BRENO CRISTIANO DE SOUZA REZENDE ANALISTA DO MP ATIVO ITAÚNA - COMARCA; ITAUNA-PJ-02PJ 6.032,93 361,98 0,00 3.197,46 0,00 0,00 9.592,37 703,44 695,79 0,00 1.399,23 8.193,14 816,01 0,00 30/06/2015
345 239000 BRENO VENANCIO ROMANINI OFICIAL DO MP ATIVO BELO HORIZONTE - COMARCA; BH-20PJ ORD ECON TRIBUTARIA-SECRETARIA 6.432,09 1.286,42 0,00 2.924,87 0,00 0,00 10.643,38 902,58 1.138,87 0,00 2.041,45 8.601,93 726,01 486,72 30/06/2015
346 202201 BRIGITTE AMARALINA CALDAS MEDEIROS OFICIAL DO MP ATIVO NANUQUE - COMARCA; NANUQUE-PJ-01PJ 7.677,29 2.303,19 0,00 1.663,41 0,00 0,00 11.643,89 1.097,85 1.573,36 0,00 2.671,21 8.972,68 726,01 0,00 30/06/2015
347 513600 BRUNA KARLA MARTINS CARVALHO ANALISTA DO MP ATIVO GOVERNADOR VALADARES - COMARCA; GOVERNADOR VALADARES-PJ-01PJ 6.032,93 361,98 0,00 3.197,46 0,00 0,00 9.592,37 703,44 695,79 0,00 1.399,23 8.193,14 726,01 0,00 30/06/2015
348 415100 BRUNA MARIA SOARES OLIVEIRA COSTA RAMOS ANALISTA DO MP ATIVO UBÁ - COMARCA; COORD REG BACIA DO RIO PARAIBA DO SUL 8.727,00 872,70 0,00 3.531,77 0,00 0,00 13.131,47 1.231,47 1.870,67 0,00 3.102,14 10.029,33 726,01 1.595,51 30/06/2015
349 470000 BRUNA MORAES MARQUES ANALISTA DO MP ATIVO TOMBOS - COMARCA; TOMBOS-PJ-UNPJ 7.200,74 432,04 0,00 3.816,39 0,00 0,00 11.449,17 839,61 790,21 0,00 1.629,82 9.819,35 961,01 0,00 30/06/2015
350 614700 BRUNA NATTANY DE LIMA OFICIAL DO MP ATIVO MANTENA - COMARCA; MANTENA-PJ-02PJ 3.336,37 0,00 0,00 0,00 1.112,12 0,00 4.448,49 434,27 404,66 0,00 838,93 3.609,56 726,01 611,50 30/06/2015
351 631800 BRUNA RAPOSO JORGE OFICIAL DO MP ATIVO JUIZ DE FORA - COMARCA; JUIZ DE FORA-PJ-19PJ 3.336,37 0,00 0,00 1.668,19 0,00 0,00 5.004,56 367,00 90,61 0,00 457,61 4.546,95 726,01 0,00 30/06/2015
352 463800 BRUNO ALVES TEIXEIRA ANALISTA DO MP ATIVO UBERLÂNDIA - COMARCA; UBERLANDIA-PJ-04PJ 7.200,74 432,04 0,00 3.816,39 0,00 0,00 11.449,17 839,61 998,76 0,00 1.838,37 9.610,80 726,01 0,00 30/06/2015
353 538500 BRUNO AUGUSTO DA SILVA OFICIAL DO MP ATIVO SANTA LUZIA - COMARCA; SANTA LUZIA-PJ-03PJ 3.445,03 0,00 0,00 0,00 0,00 0,00 3.445,03 378,95 105,11 0,00 484,06 2.960,97 726,01 0,00 30/06/2015
354 318200 BRUNO BARROS DE SOUZA OFICIAL DO MP ATIVO UBÁ - COMARCA; UBA-PJ-04PJ 6.432,09 1.286,42 0,00 3.859,26 0,00 0,00 11.577,77 849,04 620,75 0,00 1.469,79 10.107,98 726,01 0,00 30/06/2015
355 459600 BRUNO CASTELAR LUGAO MENDES OFICIAL DO MP ATIVO GOVERNADOR VALADARES - COMARCA; GOVERNADOR VALADARES-PJ-05PJ 5.139,92 308,40 0,00 2.724,16 0,00 0,00 8.172,48 599,32 464,12 0,00 1.063,44 7.109,04 726,01 0,00 30/06/2015
356 427400 BRUNO CESAR RIBEIRO DE PAIVA ANALISTA DO MP ATIVO BELO HORIZONTE - COMARCA; ASSESS JUR DO CONS SUPERIOR DO MINISTERIO PUB 8.727,00 872,70 0,00 4.799,85 0,00 0,00 14.399,55 1.122,57 1.628,35 0,00 2.750,92 11.648,63 748,29 607,48 30/06/2015
357 380900 BRUNO CIRILO ANTUNES OFICIAL DO MP ATIVO VARGINHA - COMARCA; VARGINHA-PJ-05PJ 5.139,92 1.688,81 0,00 3.414,37 0,00 0,00 10.243,10 621,93 837,51 0,00 1.459,44 8.783,66 3.457,50 250,39 30/06/2015
358 329000 BRUNO DE MELO REIS ANALISTA DO MP ATIVO PATROCÍNIO - COMARCA; PATROCINIO-PJ-02PJ 10.243,18 2.048,64 0,00 6.145,91 0,00 0,00 18.437,73 1.352,10 2.086,93 0,00 3.439,03 14.998,70 726,01 0,00 30/06/2015
359 601700 BRUNO DIAS JUNQUEIRA PEREIRA ANALISTA DO MP ATIVO BELO HORIZONTE - COMARCA; ASSESS TECNICO-JUR JUNTO AS PROC. DE JUST 5.307,28 0,00 0,00 2.653,64 0,00 0,00 7.960,92 583,80 429,60 0,00 1.013,40 6.947,52 726,01 0,00 30/06/2015
360 378300 BRUNO HERDY LOPES DE OLIVEIRA ANALISTA DO MP ATIVO MANTENA - COMARCA; MANTENA-PJ-SECRETARIA 8.727,00 872,70 0,00 4.799,85 0,00 0,00 14.399,55 1.055,97 1.480,17 0,00 2.536,14 11.863,41 726,01 0,00 30/06/2015
361 529700 BRUNO JOSE BUENO DIAS OFICIAL DO MP ATIVO SÃO SEBASTIÃO DO PARAÍSO - COMARCA; SAO SEBASTIAO DO PARAISO-PJ-02PJ 3.792,57 0,00 0,00 1.896,29 0,00 0,00 5.688,86 417,18 123,07 0,00 540,25 5.148,61 961,01 0,00 30/06/2015
362 350100 BRUNO LAUD SERRANO DOS REIS OFICIAL DO MP ATIVO UBÁ - COMARCA; UBA-PJ-03PJ 5.480,05 1.096,01 0,00 3.288,03 0,00 0,00 9.864,09 723,37 687,99 0,00 1.411,36 8.452,73 961,01 0,00 30/06/2015
363 373800 BRUNO MARTINO DE ALBUQUERQUE ANALISTA DO MP ATIVO PONTE NOVA - COMARCA; PONTE NOVA-PJ-03PJ 8.727,00 872,70 0,00 4.799,85 0,00 0,00 14.399,55 1.055,97 1.375,89 0,00 2.431,86 11.967,69 961,01 0,00 30/06/2015
364 470400 BRUNO NOVAIS CABRAL ANALISTA DO MP ATIVO MUTUM - COMARCA; MUTUM-PJ-UNPJ 7.200,74 432,04 0,00 3.816,39 0,00 0,00 11.449,17 839,61 998,76 0,00 1.838,37 9.610,80 4.295,98 327,25 30/06/2015
365 369200 BRUNO ROBERTO DIAS DE OLIVEIRA OFICIAL DO MP ATIVO BELO HORIZONTE - COMARCA; BH-22PJ PES COM DEF E IDOSOS 6.229,29 622,93 0,00 3.426,11 0,00 0,00 10.278,33 801,26 913,45 0,00 1.714,71 8.563,62 726,01 432,00 30/06/2015
366 547700 BRUNO ROBERTO SOUZA GONCALVES ANALISTA DO MP ATIVO PARACATU - COMARCA; PARACATU-PJ-03PJ 5.842,66 0,00 0,00 0,00 0,00 0,00 5.842,66 760,48 822,70 0,00 1.583,18 4.259,48 726,01 1.070,76 30/06/2015
367 546100 BRUNO SA VIEIRA ANALISTA DO MP ATIVO ERVÁLIA - COMARCA; ERVALIA-PJ-UNPJ 5.842,66 0,00 0,00 2.921,33 0,00 0,00 8.763,99 642,69 560,63 0,00 1.203,32 7.560,67 726,01 0,00 30/06/2015
368 438200 BRUNO SALES PEREIRA ANALISTA DO MP ATIVO BELO HORIZONTE - COMARCA; CENTRAL DE APOIO TECNICO-SETOR CONTABIL 7.435,23 743,52 0,00 4.089,38 0,00 0,00 12.268,13 899,66 1.080,25 0,00 1.979,91 10.288,22 961,01 0,00 30/06/2015
369 537400 BRUNO SANT'ANA CESAR ANALISTA DO MP ATIVO CONTAGEM - COMARCA; CONTAGEM-PJ-09PJ 5.842,66 0,00 0,00 2.921,33 0,00 0,00 8.763,99 642,69 560,63 0,00 1.203,32 7.560,67 726,01 0,00 30/06/2015
370 405800 CAIO FERNANDO RODRIGUES DE OLIVEIRA ANALISTA DO MP ATIVO BELO HORIZONTE - COMARCA; ASSESS TECNICO-JUR JUNTO AS PROC. DE JUST 8.727,00 872,70 0,00 4.799,85 0,00 0,00 14.399,55 1.122,57 1.628,35 0,00 2.750,92 11.648,63 748,29 607,48 30/06/2015
371 530000 CAIO GUEDES DE OLIVEIRA ANALISTA DO MP ATIVO DIAMANTINA - COMARCA; DIAMANTINA-PJ-03PJ 5.842,66 0,00 0,00 2.345,73 0,00 0,00 8.188,39 642,69 508,49 0,00 1.151,18 7.037,21 961,01 0,00 30/06/2015
372 491400 CAIO MIRANDA JUNQUEIRA ANALISTA DO MP ATIVO BUENO BRANDAO - COMARCA; BUENO BRANDAO-PJ-UNPJ 6.032,93 361,98 0,00 3.197,46 0,00 0,00 9.592,37 703,44 643,66 0,00 1.347,10 8.245,27 961,01 0,00 30/06/2015
373 415800 CAMILA ALVES DA SILVA ANALISTA DO MP ATIVO CAETÉ - COMARCA; CAETE-PJ-01PJ 8.451,80 845,18 0,00 0,00 0,00 0,00 9.296,98 1.022,67 1.406,08 0,00 2.428,75 6.868,23 726,01 0,00 30/06/2015
374 555800 CAMILA CAROLINE ROCHA CHAVES OFICIAL DO MP ATIVO SALINAS - COMARCA; SALINAS-PJ-01PJ 3.445,03 0,00 0,00 1.480,48 0,00 0,00 4.925,51 378,95 105,11 0,00 484,06 4.441,45 726,01 0,00 30/06/2015
375 445200 CAMILA CONDE ROCHA ANALISTA DO MP ATIVO CONTAGEM - COMARCA; CONTAGEM-PJ-08PJ 7.435,23 743,52 0,00 4.089,38 2.726,25 0,00 14.994,38 899,66 1.882,11 0,00 2.781,77 12.212,61 726,01 0,00 30/06/2015
376 419900 CAMILA CUNNINGHAM PIMENTA DE PADUA ANALISTA DO MP ATIVO BELO HORIZONTE - COMARCA; ASSESSORIA PSICOSSOCIAL 8.727,00 872,70 0,00 4.799,85 0,00 0,00 14.399,55 1.122,57 1.656,10 0,00 2.778,67 11.620,88 726,01 706,35 30/06/2015
377 507700 CAMILA ELIZABETH RODRIGUES ANALISTA DO MP ATIVO BELO HORIZONTE - COMARCA; BH-02PJ FAMILIA-SECRETARIA 6.641,51 398,49 0,00 3.520,00 0,00 0,00 10.560,00 774,40 853,68 0,00 1.628,08 8.931,92 726,01 0,00 30/06/2015
378 372700 CAMILA FONSECA LIMONGE ANALISTA DO MP ATIVO BETIM - COMARCA; BETIM-PJ-12PJ 8.727,00 872,70 0,00 4.799,85 0,00 0,00 14.399,55 1.055,97 1.480,17 0,00 2.536,14 11.863,41 726,01 0,00 30/06/2015
379 621300 CAMILA GOLFETO DE SOUSA VALENTE OFICIAL DO MP ATIVO ESPERA FELIZ - COMARCA; ESPERA FELIZ-PJ-UNPJ 3.030,62 0,00 0,00 1.515,31 1.010,21 0,00 5.556,14 333,37 144,44 0,00 477,81 5.078,33 1.391,98 0,00 30/06/2015
380 409800 CAMILA GONCALVES COSTA RIBEIRO ANALISTA DO MP ATIVO INHAPIM - COMARCA; INHAPIM-PJ-02PJ 8.185,27 818,53 0,00 4.501,90 0,00 0,00 13.505,70 990,42 1.282,18 0,00 2.272,60 11.233,10 961,01 0,00 30/06/2015
381 335000 CAMILA GONTIJO DE PAIVA ANALISTA DO MP ATIVO BELO HORIZONTE - COMARCA; COORD DE CONTROLE DA CONSTITUCIONALIDADE 9.920,24 992,02 0,00 0,00 0,00 0,00 10.912,26 1.200,35 1.697,14 0,00 2.897,49 8.014,77 726,01 0,00 30/06/2015
382 547800 CAMILA MATTARELLI DE ABREU E SILVA ANALISTA DO MP ATIVO BELO HORIZONTE - COMARCA; COORD DE INCLUSAO E MOBILIZACAO SOCIAIS 5.307,28 0,00 0,00 2.653,64 0,00 0,00 7.960,92 690,80 712,26 0,00 1.403,06 6.557,86 726,01 1.134,86 30/06/2015
383 430000 CANDIDA MARINA COSTA ANALISTA DO MP ATIVO BELO HORIZONTE - COMARCA; DIVISAO DE DOCUMENTACAO JURIDICA 8.451,80 845,18 0,00 4.648,49 0,00 0,00 13.945,47 1.022,67 1.406,08 0,00 2.428,75 11.516,72 726,01 0,00 30/06/2015
384 614300 CARINA CORTIELHA OFICIAL DO MP ATIVO BELO HORIZONTE - COMARCA; BH-23PJ CIVEL-RECEPCAO 3.030,62 0,00 0,00 1.318,87 0,00 0,00 4.349,49 333,37 59,49 0,00 392,86 3.956,63 726,01 0,00 30/06/2015
385 380400 CARINA DIAS FACANHA DE SOUZA ANALISTA DO MP ATIVO SANTA RITA DO SAPUCAÍ - COMARCA; SANTA RITA DO SAPUCAI-PJ-SECRETARIA 8.727,00 872,70 0,00 0,00 3.199,90 0,00 12.799,60 1.055,97 2.360,14 0,00 3.416,11 9.383,49 961,01 0,00 30/06/2015
386 255000 CARLA ADRIANA DE MENEZES OFICIAL DO MP ATIVO BELO HORIZONTE - COMARCA; CENT DE APOIO TEC-SETOR DEF,IDOSO E INFANC 6.973,67 1.394,73 0,00 4.184,20 0,00 0,00 12.552,60 951,12 1.246,88 0,00 2.198,00 10.354,60 865,07 290,87 30/06/2015
387 425100 CARLA ADRIANA DINIZ AMARAL OFICIAL DO MP ATIVO CONTAGEM - COMARCA; CONTAGEM-PJ-08PJ 5.480,05 548,01 0,00 3.014,03 0,00 0,00 9.042,09 704,90 646,90 0,00 1.351,80 7.690,29 726,01 380,10 30/06/2015
388 508100 CARLA ALESSANDRA FONSECA ANALISTA DO MP ATIVO BELO HORIZONTE - COMARCA; CAO-ORDEM ECONOMICA E TRIBUTARIA-SECRETARIA 6.641,51 398,49 0,00 0,00 0,00 0,00 7.040,00 814,23 942,30 0,00 1.756,53 5.283,47 726,01 362,10 30/06/2015
389 607100 CARLA ANGELICA DIAS MIRANDA OFICIAL DO MP ATIVO JABOTICATUBAS - COMARCA; JABOTICATUBAS-PJ-UNPJ 3.445,03 0,00 0,00 1.510,79 0,00 0,00 4.955,82 378,95 44,50 0,00 423,45 4.532,37 961,01 0,00 30/06/2015
390 351500 CARLA APARECIDA MENDES RAMIRIO OFICIAL DO MP ATIVO PASSOS - COMARCA; PASSOS-PJ-01PJ 6.032,93 603,29 0,00 3.318,11 0,00 0,00 9.954,33 729,98 702,72 0,00 1.432,70 8.521,63 961,01 0,00 30/06/2015
391 206200 CARLA BORGES DA COSTA COORDENADOR/ANALISTA ATIVO BELO HORIZONTE - COMARCA; DIRETORIA DE PROJETOS DE EDIFICACOES 14.715,61 8.070,44 0,00 0,00 0,00 0,00 22.786,05 2.266,20 4.773,60 0,00 7.039,80 15.746,25 4.788,82 372,42 30/06/2015
392 442800 CARLA GONCALVES COSTA SOALHEIRO ANALISTA DO MP ATIVO GOVERNADOR VALADARES - COMARCA; GOVERNADOR VALADARES-PJ-11PJ 7.435,23 743,52 0,00 4.089,38 0,00 0,00 12.268,13 899,66 1.080,25 0,00 1.979,91 10.288,22 961,01 0,00 30/06/2015
393 321500 CARLA GONCALVES MASSOTE OFICIAL DO MP ATIVO CAMPO BELO - COMARCA; CAMPO BELO-PJ-01PJ 6.432,09 1.286,42 0,00 3.859,26 0,00 0,00 11.577,77 849,04 1.019,74 0,00 1.868,78 9.708,99 726,01 0,00 30/06/2015
394 429200 CARLA HAUTEQUESTT BECHARA ANALISTA DO MP ATIVO BELO HORIZONTE - COMARCA; DIVISAO DE DOCUMENTACAO JURIDICA 8.451,80 845,18 0,00 4.648,49 0,00 0,00 13.945,47 1.022,67 1.406,08 0,00 2.428,75 11.516,72 726,01 0,00 30/06/2015
395 247500 CARLA MATILDE GUIMARAES DE OLIVEIRA OFICIAL DO MP ATIVO ITAJUBA - COMARCA; ITAJUBA-PJ-05PJ 7.435,23 2.230,57 0,00 4.832,90 0,00 0,00 14.498,70 1.130,30 1.593,43 0,00 2.723,73 11.774,97 726,01 609,68 30/06/2015
396 226100 CARLA MERLI DA CONCEICAO ANALISTA DO MP ATIVO BELO HORIZONTE - COMARCA; CENTRAL DE APOIO TECNICO-SETOR CONTABIL 13.097,56 2.619,51 0,00 7.858,54 0,00 0,00 23.575,61 1.728,88 2.977,39 0,00 4.706,27 18.869,34 726,01 0,00 30/06/2015
397 181401 CARLO MICHEL GAUDENSI COELHO ANALISTA DO MP ATIVO BELO HORIZONTE - COMARCA; BH-08PJ JUIZADO ESPECIAL-SECRETARIA 8.185,27 2.455,58 0,00 5.320,43 0,00 0,00 15.961,28 1.170,49 1.734,99 0,00 2.905,48 13.055,80 726,01 0,00 30/06/2015
398 634000 CARLOS ALBERTO AMORMINO TRIGUEIRO ANALISTA DO MP ATIVO BELO HORIZONTE - COMARCA; DIRET DE APOIO AS PROCURADORIAS DE JUSTICA 4.668,87 0,00 0,00 1.945,36 0,00 0,00 6.614,23 513,58 256,15 0,00 769,73 5.844,50 961,01 0,00 30/06/2015
399 637900 CARLOS ALBERTO DE MOURA OFICIAL DO MP ATIVO SETE LAGOAS - COMARCA; SETE LAGOAS-PJ-05PJ 3.030,62 0,00 0,00 0,00 0,00 0,00 3.030,62 333,37 45,27 0,00 378,64 2.651,98 1.196,01 0,00 30/06/2015
400 638700 CARLOS ALBERTO FERREIRA BRAGA ANALISTA DO MP ATIVO RIBEIRÃO DAS NEVES - COMARCA; RIBEIRAO DAS NEVES-PJ-11PJ 4.668,87 0,00 0,00 778,15 0,00 0,00 5.447,02 924,44 1.187,51 0,00 2.111,95 3.335,07 1.320,02 3.735,09 30/06/2015
401 375801 CARLOS ALBERTO ROCHA ANALISTA DO MP ATIVO ELOI MENDES - COMARCA; ELOI MENDES-PJ-SECRETARIA 6.432,09 0,00 0,00 0,00 0,00 0,00 6.432,09 786,37 880,30 0,00 1.666,67 4.765,42 4.788,82 1.089,11 30/06/2015
402 462800 CARLOS ANDREI SOARES FAGUNDES ANALISTA DO MP ATIVO MONTES CLAROS - COMARCA; MONTES CLAROS-PJ-09PJ 7.200,74 432,04 0,00 0,00 0,00 0,00 7.632,78 839,61 946,62 0,00 1.786,23 5.846,55 961,01 0,00 30/06/2015
403 370300 CARLOS AUGUSTO BUENO DIAS ASSESSOR ATIVO BELO HORIZONTE - COMARCA; DIRETORIA DE FISCALIZACAO DE OBRAS 0,00 0,00 8.451,80 0,00 0,00 0,00 8.451,80 513,01 966,90 0,00 1.479,91 6.971,89 726,01 0,00 30/06/2015
404 505100 CARLOS CEZAR CARVALHO ANALISTA DO MP ATIVO RIBEIRÃO DAS NEVES - COMARCA; RIBEIRAO DAS NEVES-PJ-04PJ 6.032,93 1.809,88 0,00 0,00 0,00 0,00 7.842,81 862,71 945,89 0,00 1.808,60 6.034,21 726,01 0,00 30/06/2015
405 195900 CARLOS DE SOUZA FERREIRA OFICIAL DO MP ATIVO COROMANDEL - COMARCA; COROMANDEL-PJ-UNPJ 8.185,27 5.729,69 0,00 0,00 0,00 0,00 13.914,96 1.530,65 2.484,19 0,00 4.014,84 9.900,12 726,01 0,00 30/06/2015
406 196800 CARLOS EDUARDO DE OLIVEIRA MARINHO OFICIAL DO MP ATIVO ALPINÓPOLIS - COMARCA; ALPINOPOLIS-PJ-UNPJ 9.920,24 4.960,12 0,00 7.440,18 0,00 0,00 22.320,54 1.636,84 2.720,47 0,00 4.357,31 17.963,23 2.173,39 111,13 30/06/2015
407 491800 CARLOS EDUARDO ROMAN OFICIAL DO MP ATIVO BARBACENA - COMARCA; BARBACENA-PJ-09PJ 4.241,01 424,10 0,00 0,00 0,00 0,00 4.665,11 513,16 298,06 0,00 811,22 3.853,89 726,01 0,00 30/06/2015
408 299300 CARLOS HENRIQUE BICALHO ANALISTA DO MP ATIVO BELO HORIZONTE - COMARCA; BH-17PJ PATRIMONIO PUBLICO-SECRETARIA 10.576,63 3.172,99 0,00 6.874,81 0,00 0,00 20.624,43 1.512,46 2.495,86 0,00 4.008,32 16.616,11 726,01 0,00 30/06/2015
409 205100 CARLOS HENRIQUE ESTEVES OFICIAL DO MP ATIVO ITAMBACURI - COMARCA; ITAMBACURI-PJ-01PJ 10.243,18 3.072,95 0,00 6.658,07 0,00 0,00 19.974,20 1.557,13 2.543,13 0,00 4.100,26 15.873,94 726,01 839,64 30/06/2015
410 351600 CARLOS HENRIQUE FELICIO DA FONSECA OFICIAL DO MP ATIVO LIMA DUARTE - COMARCA; LIMA DUARTE-PJ-UNPJ 6.032,93 1.206,59 0,00 3.619,76 0,00 0,00 10.859,28 796,35 902,51 0,00 1.698,86 9.160,42 726,01 0,00 30/06/2015
411 85400 CARLOS JOSE VIEIRA OFICIAL DO MP ATIVO BELO HORIZONTE - COMARCA; DIRETORIA DO COLEGIO E DA CAMARA DE PJ 19.311,46 13.518,02 0,00 15.235,56 0,00 0,00 48.065,04 3.351,82 6.588,44 2.358,37 12.298,63 35.766,41 4.788,82 372,43 30/06/2015
412 229100 CARLOS MERCES DE OLIVEIRA ANALISTA DO MP ATIVO BELO HORIZONTE - COMARCA; CENTRAL DE APOIO TECN-SETOR DE MEIO AMBIENTE 12.414,13 3.724,24 0,00 8.069,19 0,00 0,00 24.207,56 1.775,22 2.323,44 0,00 4.098,66 20.108,90 726,01 0,00 30/06/2015
413 538300 CARLOS RANGEL SILVA DE MELO ANALISTA DO MP ATIVO BELO HORIZONTE - COMARCA; DIVISAO DE CONTROLE IMOBILIARIO 5.307,28 1.061,46 0,00 2.489,39 0,00 0,00 8.858,13 700,56 689,39 0,00 1.389,95 7.468,18 726,01 0,00 30/06/2015
414 265100 CARLOS REIFF MIRANDA ANALISTA DO MP ATIVO BELO HORIZONTE - COMARCA; BH-19PJ SAUDE-SECRETARIA 150PJ 10.576,63 2.115,33 0,00 6.345,98 0,00 0,00 19.037,94 1.484,15 2.469,54 0,00 3.953,69 15.084,25 726,01 933,66 30/06/2015
415 305400 CARLOS ROCHA DE SOUZA OFICIAL DO MP ATIVO MONTALVÂNIA - COMARCA; MONTALVANIA-PJ-SECRETARIA 4.977,82 995,56 0,00 2.986,69 0,00 0,00 8.960,07 657,07 389,41 0,00 1.046,48 7.913,59 1.330,79 0,00 30/06/2015
416 365100 CARLOS WAGNER SANDER MORAIS COORDENADOR/OFICIAL ATIVO BELO HORIZONTE - COMARCA; DIRETORIA DE ADMINISTRACAO FINANCEIRA 0,00 1.092,10 10.921,00 0,00 0,00 0,00 12.013,10 729,98 2.722,67 0,00 3.452,65 8.560,45 726,01 1.778,81 30/06/2015
417 399900 CARMELITA EVANGELISTA DE SOUZA OFICIAL DO MP ATIVO JOÃO PINHEIRO - COMARCA; JOAO PINHEIRO-PJ-01PJ 5.658,41 565,84 0,00 0,00 0,00 0,00 6.224,25 684,67 654,02 0,00 1.338,69 4.885,56 726,01 0,00 30/06/2015
418 390400 CARMEM APARECIDA ANTUNES RESENDE OFICIAL DO MP ATIVO IGARAPÉ - COMARCA; IGARAPE-PJ-SECRETARIA 5.480,05 4.932,05 0,00 5.206,05 0,00 1.217,55 16.835,70 1.217,55 2.122,38 0,00 3.339,93 13.495,77 869,52 669,70 30/06/2015
419 202000 CARMEN LUCIA MARIZ DE MACEDO OFICIAL DO MP ATIVO BELO HORIZONTE - COMARCA; COORD COMB REPRES TRAFICO ILICITO ENTORPECEN 9.920,24 4.960,12 0,00 7.440,18 0,00 0,00 22.320,54 1.936,86 3.335,89 0,00 5.272,75 17.047,79 726,01 2.727,50 30/06/2015
420 228500 CAROLINA CHIARELLA DOS SANTOS RIBEIRO OFICIAL DO MP ATIVO BELO HORIZONTE - COMARCA; BH-13ª PJ JUÍXO DE TÓXICOS 5.307,28 1.061,46 0,00 3.184,37 0,00 0,00 9.553,11 700,56 1.294,64 0,00 1.995,20 7.557,91 961,01 2.580,08 30/06/2015
421 446500 CAROLINA COSTA VAL RODRIGUES ANALISTA DO MP ATIVO CONTAGEM - COMARCA; CONTAGEM-PJ-05PJ 7.435,23 743,52 0,00 4.089,38 0,00 0,00 12.268,13 899,66 1.132,39 0,00 2.032,05 10.236,08 726,01 0,00 30/06/2015
422 603501 CAROLINA DOMINGOS BRANDAO ANALISTA DO MP ATIVO CARATINGA - COMARCA; CARATINGA-PJ-03PJ 4.820,91 0,00 0,00 1.980,68 0,00 0,00 6.801,59 530,30 329,26 0,00 859,56 5.942,03 726,01 0,00 30/06/2015
423 404300 CAROLINA DOS SANTOS VIEIRA ANALISTA DO MP ATIVO BELO HORIZONTE - COMARCA; BH-08PJ JUIZADO ESPECIAL-SECRETARIA 8.727,00 872,70 0,00 4.799,85 0,00 0,00 14.399,55 1.055,97 1.375,89 0,00 2.431,86 11.967,69 1.196,01 0,00 30/06/2015
424 551200 CAROLINA LOPES ARANTES MASCARENHAS ANALISTA DO MP ATIVO BELO HORIZONTE - COMARCA; EXTINTA - COORD DEFESA DO DIREITO DE FAMILIA 5.842,66 0,00 0,00 0,00 1.947,55 0,00 7.790,21 760,48 1.306,14 0,00 2.066,62 5.723,59 961,01 1.070,76 30/06/2015
425 622600 CAROLINA LOREDO LOPES OFICIAL DO MP ATIVO RIBEIRÃO DAS NEVES - COMARCA; RIBEIRAO DAS NEVES-PJ-12PJ 3.030,62 0,00 0,00 0,00 0,00 0,00 3.030,62 333,37 59,49 0,00 392,86 2.637,76 726,01 0,00 30/06/2015
426 382200 CAROLINA MENDES CHAVES LIN ANALISTA DO MP ATIVO BELO HORIZONTE - COMARCA; SUPERINTENDENCIA DE RECURSOS HUMANOS 6.973,67 697,37 0,00 3.835,52 2.557,01 0,00 14.063,57 843,81 1.659,17 0,00 2.502,98 11.560,59 0,00 0,00 30/06/2015
427 619100 CAROLINA MENEZES ZAKHIA NARDELLI ANALISTA DO MP ATIVO NEPOMUCENO - COMARCA; NEPOMUCENO-PJ-UNPJ 4.668,87 0,00 0,00 1.928,24 0,00 0,00 6.597,11 513,58 298,81 0,00 812,39 5.784,72 2.593,56 140,07 30/06/2015
428 461900 CAROLINA MURTA TEIXEIRA DIAS ANALISTA DO MP ATIVO BELO HORIZONTE - COMARCA; DIRET DE FORMACAO, APERFEIC. E POS-GRADUACAO 7.200,74 432,04 0,00 2.897,20 0,00 0,00 10.529,98 839,61 998,76 0,00 1.838,37 8.691,61 726,01 0,00 30/06/2015
429 509600 CAROLINA PINTO DE OLIVEIRA SOUZA ANALISTA DO MP ATIVO MURIAÉ - COMARCA; MURIAE-PJ-01PJ 6.641,51 398,49 0,00 2.732,03 0,00 0,00 9.772,03 774,40 801,54 0,00 1.575,94 8.196,09 1.196,01 0,00 30/06/2015
430 629100 CAROLINA RODRIGUES AMARAL ANALISTA DO MP ATIVO BELO HORIZONTE - COMARCA; PROC. JUSTICA DIR. DIFUSOS E COLETIVOS-SEC 5.139,92 0,00 0,00 2.569,96 0,00 0,00 7.709,88 565,39 393,14 0,00 958,53 6.751,35 726,01 0,00 30/06/2015
431 502600 CAROLINA RODRIGUES RUBEN ANALISTA DO MP ATIVO BELO HORIZONTE - COMARCA; EXTINTA-DEF DIREIT HUM-COMB A VIOL DOMEST-18 6.641,51 398,49 0,00 2.705,96 0,00 0,00 9.745,96 774,40 853,68 0,00 1.628,08 8.117,88 3.542,01 258,13 30/06/2015
432 529600 CAROLINA VAZ DE MELO MAMBRINI ANALISTA DO MP ATIVO MINAS NOVAS - COMARCA; MINAS NOVAS-PJ-UNPJ 5.842,66 0,00 0,00 2.921,33 0,00 0,00 8.763,99 642,69 560,63 0,00 1.203,32 7.560,67 726,01 0,00 30/06/2015
433 517600 CAROLINE ALVES DE OLIVEIRA MULLER ANALISTA DO MP ATIVO VISCONDE DO RIO BRANCO - COMARCA; VISCONDE DO RIO BRANCO-PJ-01PJ 6.641,51 398,49 0,00 3.520,00 0,00 0,00 10.560,00 774,40 801,54 0,00 1.575,94 8.984,06 961,01 0,00 30/06/2015
434 373200 CAROLINE ANTUNES RIBEIRO OFICIAL DO MP ATIVO JACUI - COMARCA; JACUI-PJ-UNPJ 6.032,93 603,29 0,00 3.318,11 0,00 0,00 9.954,33 863,78 896,14 0,00 1.759,92 8.194,41 3.615,50 1.459,67 30/06/2015
435 556800 CAROLINE DE SOUZA CARDOSO OFICIAL DO MP ATIVO BRASÍLIA DE MINAS - COMARCA; BRASILIA DE MINAS-PJ-02PJ 3.129,28 0,00 0,00 1.564,64 0,00 0,00 4.693,92 344,22 66,08 0,00 410,30 4.283,62 726,01 0,00 30/06/2015
436 499400 CAROLINE MARQUES DE LOURDES MARZULLO OFICIAL DO MP ATIVO JUIZ DE FORA - COMARCA; JUIZ DE FORA-PJ-20PJ 4.241,01 254,46 0,00 2.247,74 1.498,49 0,00 8.241,70 494,50 642,99 0,00 1.137,49 7.104,21 1.196,01 0,00 30/06/2015
437 616800 CAROLINE MONTEIRO DE BARROS ANALISTA DO MP ATIVO CONTAGEM - COMARCA; CONTAGEM-PJ-11PJ 4.668,87 0,00 0,00 2.334,44 0,00 0,00 7.003,31 513,58 298,81 0,00 812,39 6.190,92 726,01 0,00 30/06/2015
438 618100 CAROLINE VASCONCELOS COSTA LANZA ANALISTA DO MP ATIVO PARAOPEBA - COMARCA; PARAOPEBA-PJ-UNPJ 5.139,92 0,00 0,00 2.569,96 0,00 0,00 7.709,88 565,39 393,14 0,00 958,53 6.751,35 726,01 0,00 30/06/2015
439 604000 CASSIA APARECIDA DA SILVA OFICIAL DO MP ATIVO CANÁPOLIS - COMARCA; CANAPOLIS-PJ-UNPJ 3.129,28 0,00 0,00 0,00 0,00 0,00 3.129,28 344,22 66,08 0,00 410,30 2.718,98 726,01 0,00 30/06/2015
440 268800 CASSIA BEATRIZ TEIXEIRA OFICIAL DO MP ATIVO BELO HORIZONTE - COMARCA; COMB CRIMES PRAT POR AG POL MUN-SECRETARIA 6.973,67 1.394,73 0,00 4.184,20 0,00 0,00 12.552,60 920,52 1.178,81 0,00 2.099,33 10.453,27 726,01 0,00 30/06/2015
441 500000 CASSIA DE OLIVEIRA COSTA VIANA ANALISTA DO MP ATIVO SETE LAGOAS - COMARCA; SETE LAGOAS-PJ-09PJ 6.641,51 1.328,30 0,00 0,00 2.656,60 0,00 10.626,41 876,68 1.811,82 0,00 2.688,50 7.937,91 726,01 0,00 30/06/2015
442 368800 CASSIA LUISA BATISTA MENDONCA WEBER OFICIAL DO MP ATIVO BELO HORIZONTE - COMARCA; PROCON-MG-SEC DE EDUCACAO PARA O CONSUMO 5.139,92 513,99 0,00 2.826,96 1.884,64 0,00 10.365,51 661,16 1.119,99 0,00 1.781,15 8.584,36 961,01 356,62 30/06/2015
443 622200 CASSIA VAZ DE AZEVEDO LISBOA MARZANO ASSESSOR ADMINISTRATIVO I ATIVO BELO HORIZONTE - COMARCA; CGMP-SECRETARIA DA CORREGEDORIA-GERAL DO MP 0,00 0,00 2.500,62 1.112,77 0,00 0,00 3.613,39 354,93 44,14 0,00 399,07 3.214,32 961,01 0,00 30/06/2015
444 121000 CASSIO HENRIQUE AFONSO DA SILVA COORDENADOR/OFICIAL ATIVO BELO HORIZONTE - COMARCA; DIR ANALISES TECNOLOGIA INTELIGENCIA 11.643,70 8.442,89 0,00 10.043,30 0,00 0,00 30.129,89 2.042,36 4.291,40 0,00 6.333,76 23.796,13 5.574,50 1.524,26 30/06/2015
445 121100 CASSIO MOREIRA DE MIRANDA AGENTE DO MP ATIVO BELO HORIZONTE - COMARCA; PROCON-MG-SECRETARIA DE FISCALIZACOES 3.557,16 3.664,84 0,00 3.611,00 0,00 0,00 10.833,00 665,19 257,29 0,00 922,48 9.910,52 726,01 0,00 30/06/2015
446 512001 CATARINA NATALINO CALIXTO ASSESSOR/ANALISTA ATIVO BELO HORIZONTE - COMARCA; EXTINTA - DIVISÃO DE APOIO À LICITAÇÃO 0,00 0,00 6.641,51 3.320,76 0,00 0,00 9.962,27 565,39 801,57 0,00 1.366,96 8.595,31 726,01 0,00 30/06/2015
447 606200 CATARINE DE SIQUEIRA DE QUADROS ANALISTA DO MP ATIVO RIBEIRÃO DAS NEVES - COMARCA; RIBEIRAO DAS NEVES-PJ-09PJ 4.820,91 0,00 0,00 2.410,46 0,00 0,00 7.231,37 530,30 286,60 0,00 816,90 6.414,47 961,01 0,00 30/06/2015
448 71800 CATIA EFIGENIA CARNEIRO DE FREITAS OFICIAL DO MP ATIVO BELO HORIZONTE - COMARCA; ASSESSORIA JURIDICO-ADMINISTRATIVA 22.253,01 15.577,10 0,00 15.235,56 0,00 3.351,82 56.417,49 3.351,82 7.458,06 7.359,00 18.168,88 38.248,61 726,01 0,00 30/06/2015
449 622300 CECILIA APARECIDA PEREIRA ASSUNCAO OFICIAL DO MP ATIVO TRÊS PONTAS - COMARCA; TRES PONTAS-PJ-SECRETARIA 3.336,37 0,00 0,00 1.668,19 0,00 0,00 5.004,56 367,00 90,61 0,00 457,61 4.546,95 726,01 0,00 30/06/2015
450 538000 CECILIA FONTES DE MATOS PIMENTEL ANALISTA DO MP ATIVO PALMA - COMARCA; PALMA-PJ-SECRETARIA 5.842,66 0,00 0,00 2.921,33 0,00 0,00 8.763,99 642,69 560,63 0,00 1.203,32 7.560,67 726,01 0,00 30/06/2015
451 261300 CECILIO ANTONIO CAMPOS DOS REIS ANALISTA DO MP ATIVO BELO HORIZONTE - COMARCA; AUDITORIA INTERNA 11.643,70 2.328,74 0,00 6.986,22 0,00 0,00 20.958,66 1.536,97 2.550,39 0,00 4.087,36 16.871,30 726,01 0,00 30/06/2015
452 386400 CEFAS AMORELI DE FIGUEIREDO OFICIAL DO MP ATIVO CABO VERDE - COMARCA; CABO VERDE-PJ-SECRETARIA 4.521,68 452,17 0,00 2.486,93 0,00 0,00 7.460,78 547,12 359,88 0,00 907,00 6.553,78 726,01 0,00 30/06/2015
453 149000 CELIA MAGALHAES CLAROS SOSSI OFICIAL DO MP ATIVO GOVERNADOR VALADARES - COMARCA; GOVERNADOR VALADARES-PJ-01PJ 10.576,63 5.288,31 0,00 7.932,47 0,00 0,00 23.797,41 1.855,18 3.258,42 0,00 5.113,60 18.683,81 1.075,94 1.032,44 30/06/2015
454 113100 CELIA MARIA ALVES PINTO OFICIAL DO MP ATIVO BELO HORIZONTE - COMARCA; PROCON-MG-SEC DE EDUCACAO PARA O CONSUMO 6.973,67 4.881,57 0,00 5.927,62 0,00 1.304,08 19.086,94 1.304,08 2.390,83 0,00 3.694,91 15.392,03 726,01 0,00 30/06/2015
455 421000 CELINA BENEDITA DE SOUZA ALMEIDA OFICIAL DO MP ATIVO CAMBUÍ - COMARCA; CAMBUI-PJ-01PJ 5.480,05 2.192,03 0,00 3.836,04 0,00 0,00 11.508,12 897,14 1.074,65 0,00 1.971,79 9.536,33 967,89 505,93 30/06/2015
456 252900 CELIO DE MELO CASTOR ANALISTA DO MP ATIVO BELO HORIZONTE - COMARCA; BH-20PJ ORD ECON TRIBUTARIA-SECRETARIA 11.643,70 2.328,74 0,00 6.986,22 0,00 0,00 20.958,66 1.536,97 2.498,26 0,00 4.035,23 16.923,43 726,01 0,00 30/06/2015
457 395700 CELIO FERREIRA LIMA OFICIAL DO MP ATIVO CONTAGEM - COMARCA; CONTAGEM-PJ-07PJ 5.139,92 513,99 0,00 2.826,96 0,00 0,00 8.480,87 621,93 462,30 0,00 1.084,23 7.396,64 961,01 0,00 30/06/2015
458 281300 CELMA REGINA PEREIRA SANTOS ANALISTA DO MP ATIVO BELO HORIZONTE - COMARCA; DIVISAO DE DOCUMENTACAO JURIDICA 11.643,70 2.328,74 0,00 6.986,22 0,00 0,00 20.958,66 1.633,89 2.806,42 0,00 4.440,31 16.518,35 726,01 1.027,93 30/06/2015
459 535600 CELSO MEDEIROS DE PAIVA OFICIAL DO MP ATIVO RIO PRETO - COMARCA; RIO PRETO-PJ-SECRETARIA 3.445,03 0,00 0,00 1.722,52 0,00 0,00 5.167,55 378,95 76,67 0,00 455,62 4.711,93 726,01 0,00 30/06/2015
460 367000 CESAR NARVAES DE AVELAR COORDENADOR/OFICIAL ATIVO BELO HORIZONTE - COMARCA; DIVISAO DE MEMORIA INSTITUCIONAL 0,00 960,74 9.607,41 3.992,41 0,00 0,00 14.560,56 799,92 1.816,90 0,00 2.616,82 11.943,74 726,01 0,00 30/06/2015
461 226500 CESAR SILVEIRA BARROUIN OFICIAL DO MP ATIVO BELO HORIZONTE - COMARCA; DIRETORIA DE ADMINISTRACAO FINANCEIRA 7.435,23 2.230,57 0,00 0,00 0,00 0,00 9.665,80 1.063,24 1.496,34 0,00 2.559,58 7.106,22 726,01 0,00 30/06/2015
462 121400 CEZAR MORENO CONCEICAO TAVARES OFICIAL DO MP ATIVO BELO HORIZONTE - COMARCA; COORD DE INCLUSAO E MOBILIZACAO SOCIAIS 10.243,18 5.121,59 0,00 7.682,39 0,00 0,00 23.047,16 1.690,12 2.891,17 0,00 4.581,29 18.465,87 726,01 0,00 30/06/2015
463 243800 CHARLES MARTINS MUNIZ OFICIAL DO MP ATIVO BELO HORIZONTE - COMARCA; LAB TECNOLOGIA CONTRA LAVAGEM DINHEIRO 7.435,23 2.230,57 0,00 4.832,90 0,00 0,00 14.498,70 1.130,30 1.645,56 0,00 2.775,86 11.722,84 750,40 611,92 30/06/2015
464 193500 CHARLIN CESAR KOURLY OFICIAL DO MP ATIVO UBERLÂNDIA - COMARCA; UBERLANDIA-PJ-10PJ 9.920,24 2.976,07 0,00 6.448,16 0,00 0,00 19.344,47 1.527,72 2.529,81 0,00 4.057,53 15.286,94 726,01 992,02 30/06/2015
465 385500 CHILLEN PEIXOTO DE MOURA OFICIAL DO MP ATIVO BELO HORIZONTE - COMARCA; BH-14PJ DEFESA CONSUMIDOR-GAB 112PJ 5.658,41 565,84 0,00 2.442,78 0,00 0,00 8.667,03 684,67 654,02 0,00 1.338,69 7.328,34 726,01 0,00 30/06/2015
466 534500 CHRISTIAN DOUGLAS BRITO RUAS OFICIAL DO MP ATIVO SÃO JOÃO DA PONTE - COMARCA; SAO JOAO DA PONTE-PJ-SECRETARIA 3.445,03 0,00 0,00 1.480,48 0,00 0,00 4.925,51 378,95 105,11 0,00 484,06 4.441,45 1.069,05 0,00 30/06/2015
467 370600 CHRISTIAN KARINE FELIX PRATES ASSESSOR ATIVO BELO HORIZONTE - COMARCA; ASSESS ESPECIAL DO PGJ ATUACAO JUNTO A PGJAI 0,00 0,00 8.451,80 4.225,90 0,00 0,00 12.677,70 513,01 1.513,46 0,00 2.026,47 10.651,23 4.341,73 309,90 30/06/2015
468 435800 CHRISTIANA BAHIA ANDRADE PINA ANALISTA DO MP ATIVO BELO HORIZONTE - COMARCA; LAB TECNOLOGIA CONTRA LAVAGEM DINHEIRO 8.451,80 845,18 0,00 4.648,49 3.098,99 0,00 17.044,46 1.022,67 2.258,30 0,00 3.280,97 13.763,49 961,01 0,00 30/06/2015
469 516800 CHRISTIANE FERREIRA DO NASCIMENTO ANALISTA DO MP ATIVO ESTRELA DO SUL - COMARCA; ESTRELA DO SUL-PJ-UNPJ 6.032,93 361,98 0,00 2.497,84 0,00 0,00 8.892,75 703,44 695,79 0,00 1.399,23 7.493,52 726,01 0,00 30/06/2015
470 176000 CHRISTIANE JUNQUEIRA PULITI ANDRADE DE BARROS ASSESSOR ATIVO BELO HORIZONTE - COMARCA; GABINETE DO PROCURADOR-GERAL DE JUSTICA 0,00 9.908,64 14.155,19 12.031,92 0,00 0,00 36.095,75 2.647,02 4.968,13 0,00 7.615,15 28.480,60 4.788,82 372,42 30/06/2015
471 319200 CHRISTIANE MARIA DE ASSIS RUSSO OFICIAL DO MP ATIVO BELO HORIZONTE - COMARCA; CAO-ORDEM ECONOMICA E TRIBUTARIA-SECRETARIA 6.432,09 1.286,42 0,00 0,00 0,00 0,00 7.718,51 849,04 967,61 0,00 1.816,65 5.901,86 961,01 0,00 30/06/2015
472 510300 CHRISTIANE MARY DE CARVALHO FERREIRA ANALISTA DO MP ATIVO BELO HORIZONTE - COMARCA; DIRETORIA DE SISTEMAS DE INFORMACAO 6.032,93 361,98 0,00 3.197,46 2.131,64 0,00 11.724,01 703,44 1.229,86 0,00 1.933,30 9.790,71 961,01 0,00 30/06/2015
473 424900 CHRISTIANE PEREIRA TURNER DE ARAUJO OFICIAL DO MP ATIVO BELO HORIZONTE - COMARCA; CAO-PATRIMONIO PUBLICO 5.307,28 530,73 0,00 2.919,01 0,00 0,00 8.757,02 642,18 507,36 0,00 1.149,54 7.607,48 961,01 0,00 30/06/2015
474 513700 CHRISTIANE VIEIRA SOARES PEDERSOLI ANALISTA DO MP ATIVO BELO HORIZONTE - COMARCA; PROCON-MG-GAB DO COORDENADOR DO PROCON-MG 6.641,51 398,49 0,00 3.520,00 0,00 0,00 10.560,00 774,40 1.045,56 0,00 1.819,96 8.740,04 726,01 697,76 30/06/2015
475 412300 CHRYSTIAN MACHADO RIBEIRO ANALISTA DO MP ATIVO VARGINHA - COMARCA; VARGINHA-PJ-04PJ 8.727,00 872,70 0,00 3.531,77 0,00 0,00 13.131,47 1.122,57 1.656,10 0,00 2.778,67 10.352,80 5.091,54 1.106,52 30/06/2015
476 513800 CHRYSTIANE DO NASCIMENTO DE MAGALHAES OFICIAL DO MP ATIVO UBERLÂNDIA - COMARCA; UBERLANDIA-PJ-10PJ 4.241,01 254,46 0,00 2.247,74 0,00 0,00 6.743,21 494,50 188,47 0,00 682,97 6.060,24 961,01 0,00 30/06/2015
477 497900 CIBELE DE FREITAS SANCHES DIAS ANALISTA DO MP ATIVO SABARÁ - COMARCA; SABARA-PJ-03PJ 6.032,93 361,98 0,00 3.197,46 0,00 0,00 9.592,37 703,44 695,79 0,00 1.399,23 8.193,14 726,01 0,00 30/06/2015
478 500900 CIBELLE SILVA PRADO ALVARENGA ANALISTA DO MP ATIVO ITANHANDU - COMARCA; ITANHANDU-PJ-UNPJ 6.641,51 398,49 0,00 0,00 0,00 0,00 7.040,00 774,40 853,68 0,00 1.628,08 5.411,92 726,01 0,00 30/06/2015
479 629800 CINIRA DE ASSIS SILVA ANALISTA DO MP ATIVO IPATINGA - COMARCA; IPATINGA-PJ-02PJ 4.668,87 0,00 0,00 0,00 0,00 0,00 4.668,87 513,58 298,81 0,00 812,39 3.856,48 726,01 0,00 30/06/2015
480 296400 CINTIA APARECIDA MOREIRA NAVES E RODRIGUES ANALISTA DO MP ATIVO CAMPO BELO - COMARCA; CAMPO BELO-PJ-02PJ 10.576,63 2.115,33 0,00 6.345,98 0,00 0,00 19.037,94 1.396,12 2.237,00 0,00 3.633,12 15.404,82 976,99 1,46 30/06/2015
481 407900 CINTIA NETO COMELLI ANALISTA DO MP ATIVO BELO HORIZONTE - COMARCA; CENTRAL DE APOIO TECNICO-SETOR CONTABIL 8.727,00 872,70 0,00 4.799,85 0,00 0,00 14.399,55 1.122,57 1.628,35 0,00 2.750,92 11.648,63 726,01 605,44 30/06/2015
482 304700 CINTIA QUEIROZ OFICIAL DO MP ATIVO BELO HORIZONTE - COMARCA; DIR GESTAO SISTEMAS ATIVIDADE-FIM 6.857,79 1.371,56 0,00 4.114,68 0,00 0,00 12.344,03 905,23 1.144,77 0,00 2.050,00 10.294,03 726,01 0,00 30/06/2015
483 286100 CIRO CANGUSSU CORDEIRO OFICIAL DO MP ATIVO IPATINGA - COMARCA; IPATINGA-PJ-09PJ 4.977,82 995,56 0,00 2.986,69 0,00 0,00 8.960,07 657,07 540,49 0,00 1.197,56 7.762,51 4.788,82 372,42 30/06/2015
484 412500 CLARICE GOMES MAROTTA ANALISTA DO MP ATIVO BELO HORIZONTE - COMARCA; ASSESS TECNICO-JUR JUNTO AS PROC. DE JUST 8.451,80 1.690,36 0,00 5.071,08 0,00 0,00 15.213,24 1.173,02 1.740,60 0,00 2.913,62 12.299,62 2.498,79 684,14 30/06/2015
485 605300 CLARISSA AZEVEDO ROCHA OFICIAL DO MP ATIVO BELO HORIZONTE - COMARCA; EXTINTA - DIVISÃO DE COMPRAS 3.445,03 0,00 0,00 0,00 0,00 0,00 3.445,03 378,95 105,11 0,00 484,06 2.960,97 726,01 0,00 30/06/2015
486 308100 CLARISSA DUARTE MARTINS DIRETOR/ANALISTA ATIVO BELO HORIZONTE - COMARCA; SUPERINTENDENCIA DE RECURSOS HUMANOS 0,00 2.831,04 14.155,19 8.493,12 0,00 0,00 25.479,35 1.396,12 3.365,78 0,00 4.761,90 20.717,45 726,01 0,00 30/06/2015
487 497100 CLARISSA ROCHA GUIDI ANALISTA DO MP ATIVO BELO HORIZONTE - COMARCA; EXTINTA - JUIZO DE FAMILIA-02 PJ-02 VARA 6.641,51 398,49 0,00 3.520,00 0,00 0,00 10.560,00 774,40 853,68 0,00 1.628,08 8.931,92 726,01 0,00 30/06/2015
488 463700 CLAUDIA ADRIANA FERRAO DIAS ANALISTA DO MP ATIVO SETE LAGOAS - COMARCA; SETE LAGOAS-PJ-06PJ 7.200,74 432,04 0,00 0,00 0,00 0,00 7.632,78 839,61 894,49 0,00 1.734,10 5.898,68 726,01 0,00 30/06/2015
489 415400 CLAUDIA ALMEIDA DE VASCONCELLOS BARROS ASSESSOR/OFICIAL ATIVO BELO HORIZONTE - COMARCA; DIRET DE PESSOAL DO MINISTERIO PUBLICO - DPMP 0,00 845,18 8.451,80 3.434,11 0,00 0,00 12.731,09 1.062,02 1.395,25 0,00 2.457,27 10.273,82 726,01 0,00 30/06/2015
490 389600 CLAUDIA ALVES PERDOMO ASSESSOR ATIVO BELO HORIZONTE - COMARCA; PROCON-MG-GAB DO COORDENADOR DO PROCON-MG 0,00 0,00 8.451,80 4.225,90 0,00 0,00 12.677,70 513,01 1.513,46 0,00 2.026,47 10.651,23 726,01 0,00 30/06/2015
491 207000 CLAUDIA APARECIDA VILELA MACHADO ANALISTA DO MP ATIVO BELO HORIZONTE - COMARCA; CENTRAL DE APOIO TECNICO-SETOR CONTABIL 13.616,17 4.084,85 0,00 8.850,51 0,00 0,00 26.551,53 1.947,11 3.410,83 0,00 5.357,94 21.193,59 1.679,48 65,86 30/06/2015
492 365700 CLAUDIA BREGUEZ CUNHA ANALISTA DO MP ATIVO VARGINHA - COMARCA; VARGINHA-PJ-07PJ 9.920,24 992,02 0,00 5.456,13 0,00 0,00 16.368,39 1.420,37 2.382,63 0,00 3.803,00 12.565,39 726,01 2.333,52 30/06/2015
493 430500 CLAUDIA CECILIA SANTANA VENCESLAU COORDENADOR/OFICIAL ATIVO BELO HORIZONTE - COMARCA; DIRET DE DESENV DE RECURSOS HUMANOS-DDRH 0,00 1.092,10 10.921,00 6.006,55 0,00 0,00 18.019,65 642,18 2.205,51 0,00 2.847,69 15.171,96 961,01 0,00 30/06/2015
494 112400 CLAUDIA CRISTINA FIUZA DE AVELAR AGENTE DO MP ATIVO BELO HORIZONTE - COMARCA; SERVICO MEDICO-DEPTO PERIC MEDICA SAUDE OCUP 6.857,79 3.428,90 0,00 5.143,35 3.428,90 0,00 18.858,94 1.202,91 2.750,06 0,00 3.952,97 14.905,97 726,01 648,84 30/06/2015
495 149400 CLAUDIA DINIZ OFICIAL DO MP ATIVO BELO HORIZONTE - COMARCA; BH-09PJ AUDITORIA MILITAR-SECRETARIA 12.598,78 6.299,39 0,00 0,00 0,00 0,00 18.898,17 2.078,80 3.755,97 0,00 5.834,77 13.063,40 2.641,63 175,60 30/06/2015
496 480400 CLAUDIA GOULART DE SOUZA OFICIAL DO MP ATIVO PASSOS - COMARCA; PASSOS-PJ-06PJ 4.668,87 466,89 0,00 2.567,88 0,00 0,00 7.703,64 564,93 392,31 0,00 957,24 6.746,40 726,01 0,00 30/06/2015
497 519800 CLAUDIA HELENA CORREA DE ALMEIDA ANALISTA DO MP ATIVO BELO HORIZONTE - COMARCA; BH-12PJ JUIZO CRIMINAL-GAB 090PJ 6.641,51 398,49 0,00 3.520,00 0,00 0,00 10.560,00 774,40 853,68 0,00 1.628,08 8.931,92 726,01 0,00 30/06/2015
498 422100 CLAUDIA IACOMINI CABRAL ANALISTA DO MP ATIVO BELO HORIZONTE - COMARCA; CENT DE APOIO TEC-SETOR DEF,IDOSO E INFANC 8.451,80 4.225,90 0,00 6.338,85 0,00 0,00 19.016,55 1.394,55 2.233,51 0,00 3.628,06 15.388,49 726,01 0,00 30/06/2015
499 258200 CLAUDIA LAGE MICHALAROS ANALISTA DO MP ATIVO BELO HORIZONTE - COMARCA; CENTRAL DE APOIO TECN-SETOR DE MEIO AMBIENTE 11.643,70 5.821,85 0,00 6.095,57 0,00 0,00 23.561,12 1.921,21 3.353,20 0,00 5.274,41 18.286,71 726,01 0,00 30/06/2015
500 284600 CLAUDIA LENI DE ABREU OFICIAL DO MP ATIVO CONTAGEM - COMARCA; CONTAGEM-PJ-22PJ 4.977,82 1.493,35 0,00 3.235,59 0,00 0,00 9.706,76 711,83 714,46 0,00 1.426,29 8.280,47 726,01 0,00 30/06/2015
501 433600 CLAUDIA LUIZA SANTIAGO FELICIO ANALISTA DO MP ATIVO BELO HORIZONTE - COMARCA; CAO-SAUDE-TECNICO JURIDICO 8.451,80 845,18 0,00 3.486,25 0,00 0,00 12.783,23 1.022,67 1.301,80 0,00 2.324,47 10.458,76 961,01 0,00 30/06/2015
502 317000 CLAUDIA MACHADO ALVES OFICIAL DO MP ATIVO BELO HORIZONTE - COMARCA; SUPRIN DE PLANEJAMENTO E COORDENACAO 5.307,28 1.061,46 0,00 3.184,37 0,00 0,00 9.553,11 700,56 689,39 0,00 1.389,95 8.163,16 726,01 0,00 30/06/2015
503 155300 CLAUDIA MACIEL MIRANDA OFICIAL DO MP ATIVO CONGONHAS - COMARCA; CONGONHAS-PJ-02PJ 10.243,18 4.097,27 0,00 0,00 0,00 0,00 14.340,45 1.577,45 2.536,19 0,00 4.113,64 10.226,81 2.625,50 152,58 30/06/2015
504 242200 CLAUDIA MICHELLE DIAS MUNIZ BALEEIRO OFICIAL DO MP ATIVO MONTE AZUL - COMARCA; MONTE AZUL-PJ-SECRETARIA 7.200,74 2.160,22 0,00 4.680,48 0,00 0,00 14.041,44 1.029,71 1.317,46 0,00 2.347,17 11.694,27 726,01 0,00 30/06/2015
505 623000 CLAUDIA PATRICIA SILVA RODRIGUES RAPOSEIRAS OFICIAL DO MP ATIVO BELO HORIZONTE - COMARCA; DIVISÃO DE EDUCAÇÃO PARA O CONSUMO 3.030,62 0,00 0,00 1.515,31 1.010,21 0,00 5.556,14 333,37 172,88 0,00 506,25 5.049,89 726,01 0,00 30/06/2015
506 418400 CLAUDIA REGINA MARTINS BONIFACIO OFICIAL DO MP ATIVO ITUIUTABA - COMARCA; ITUIUTABA-PJ-06PJ 5.480,05 548,01 0,00 3.014,03 0,00 0,00 9.042,09 704,90 594,76 0,00 1.299,66 7.742,43 775,88 384,67 30/06/2015
507 498300 CLAUDIA SOUTO FARIAS BRAUN OFICIAL DO MP ATIVO TEÓFILO OTONI - COMARCA; TEOFILO OTONI-PJ-SECRETARIA 3.916,07 234,96 0,00 1.790,18 1.383,68 0,00 7.324,89 456,61 378,47 0,00 835,08 6.489,81 726,01 0,00 30/06/2015
508 206500 CLAUDIA VALERIA FONSECA ANDRADE ANALISTA DO MP ATIVO BELO HORIZONTE - COMARCA; BH-23PJ INF-FISC MED SOC FEC 13.616,17 5.446,47 0,00 9.531,32 0,00 0,00 28.593,96 2.096,89 3.744,08 0,00 5.840,97 22.752,99 726,01 0,00 30/06/2015
509 277500 CLAUDIO ANTONIO BORGES ALVARES OFICIAL DO MP ATIVO BELO HORIZONTE - COMARCA; TRIBUNAL DO JURI-07 PJ-01 TRIBUNAL 6.973,67 1.394,73 0,00 4.184,20 2.789,47 0,00 15.342,07 920,52 1.945,91 0,00 2.866,43 12.475,64 726,01 0,00 30/06/2015
510 444800 CLAUDIO ARESIO DO CARMO ANALISTA DO MP ATIVO SETE LAGOAS - COMARCA; SETE LAGOAS-PJ-01PJ 7.435,23 2.230,57 0,00 4.832,90 0,00 0,00 14.498,70 1.063,24 1.444,21 0,00 2.507,45 11.991,25 726,01 0,00 30/06/2015
511 541600 CLAUDIO DE OLIVEIRA MELO OFICIAL DO MP ATIVO PARACATU - COMARCA; PARACATU-PJ-01PJ 3.445,03 0,00 0,00 1.503,68 0,00 0,00 4.948,71 378,95 58,72 0,00 437,67 4.511,04 1.666,01 0,00 30/06/2015
512 545100 CLAUDIO HENRIQUE MACEDO DE SOUZA FRANSOZO ANALISTA DO MP ATIVO OURO PRETO - COMARCA; OURO PRETO-PJ-01PJ 5.307,28 0,00 0,00 0,00 0,00 0,00 5.307,28 583,80 429,60 0,00 1.013,40 4.293,88 726,01 0,00 30/06/2015
513 353500 CLAUDIO HENRIQUE PEDRO DA ROCHA OFICIAL DO MP ATIVO BELO HORIZONTE - COMARCA; CAO-CRIMINAL-SECRETARIA 6.032,93 603,29 0,00 3.318,11 0,00 0,00 9.954,33 729,98 650,58 0,00 1.380,56 8.573,77 726,01 0,00 30/06/2015
514 265800 CLAUDIO KUPIDLOWSKY FERNANDES ASSESSOR/OFICIAL ATIVO BELO HORIZONTE - COMARCA; EXTINTA - SECRETARIA ADMINISTRATIVA 0,00 1.860,89 9.304,45 5.582,67 0,00 0,00 16.748,01 920,52 1.207,04 0,00 2.127,56 14.620,45 961,01 0,00 30/06/2015
515 193600 CLAUDIO LEITE FONTES OFICIAL DO MP ATIVO ITUIUTABA - COMARCA; ITUIUTABA-PJ-02PJ 6.032,93 1.809,88 0,00 3.921,41 0,00 0,00 11.764,22 862,71 833,47 0,00 1.696,18 10.068,04 726,01 0,00 30/06/2015
516 329400 CLAUDIO MARCIO BERNARDES OFICIAL DO MP ATIVO ITAÚNA - COMARCA; ITAUNA-PJ-04PJ 6.432,09 2.572,84 0,00 3.365,97 0,00 0,00 12.370,90 990,54 1.282,46 0,00 2.273,00 10.097,90 810,01 0,00 30/06/2015
517 270200 CLAUDIO RABELO ALVES OFICIAL DO MP ATIVO FORMIGA - COMARCA; FORMIGA-PJ-SECRETARIA 6.973,67 1.394,73 0,00 4.184,20 0,00 0,00 12.552,60 920,52 970,26 0,00 1.890,78 10.661,82 726,01 0,00 30/06/2015
518 264700 CLAUDIO ROBERTO KFURI DE ARAUJO ANALISTA DO MP ATIVO BELO HORIZONTE - COMARCA; CENTRAL DE APOIO TECNICO-SETOR DE INFORMATICA 11.643,70 2.328,74 0,00 6.986,22 0,00 0,00 20.958,66 1.536,97 2.446,12 0,00 3.983,09 16.975,57 726,01 0,00 30/06/2015
519 188600 CLAUDIO SALES OFICIAL DO MP ATIVO NEPOMUCENO - COMARCA; NEPOMUCENO-PJ-SECRETARIA 9.011,08 6.307,75 0,00 7.659,42 0,00 0,00 22.978,25 1.685,07 2.879,92 0,00 4.564,99 18.413,26 961,01 0,00 30/06/2015
520 543300 CLAUDIO SILVA DE CARVALHO ANALISTA DO MP ATIVO CAMPO BELO - COMARCA; CAMPO BELO-PJ-04PJ 5.307,28 0,00 0,00 2.653,64 0,00 0,00 7.960,92 583,80 341,34 0,00 925,14 7.035,78 726,01 0,00 30/06/2015
521 160700 CLAUDIO VICENTE HESS ASSESSOR ATIVO BELO HORIZONTE - COMARCA; EXTINTA - SUPERINTENDENCIA ADMINISTRATIVA-SAD 0,00 4.368,40 10.921,00 7.644,70 0,00 0,00 22.934,10 513,01 3.237,39 0,00 3.750,40 19.183,70 4.788,82 372,42 30/06/2015
522 312900 CLAUDIO VIEIRA FIRPE ASSESSOR/OFICIAL ATIVO BELO HORIZONTE - COMARCA; DIRETORIA DE RELACOES PUBLICAS E CERIMONIAL 0,00 1.690,36 8.451,80 5.071,08 0,00 0,00 15.213,24 962,33 1.655,09 0,00 2.617,42 12.595,82 961,01 0,00 30/06/2015
523 634100 CLEA CRISTINA GUERRA DE FREITAS COSTA OFICIAL DO MP ATIVO BELO HORIZONTE - COMARCA; BH-18PJ VIOLENCIA DOMESTICA 3.030,62 0,00 0,00 0,00 0,00 0,00 3.030,62 333,37 45,27 0,00 378,64 2.651,98 961,01 0,00 30/06/2015
524 459200 CLEIA ZILLE PEREIRA ANALISTA DO MP ATIVO BELO HORIZONTE - COMARCA; ASSESS TECNICO-JUR JUNTO AS PROC. DE JUST 7.200,74 432,04 0,00 3.816,39 0,00 0,00 11.449,17 839,61 998,76 0,00 1.838,37 9.610,80 1.196,01 0,00 30/06/2015
525 481800 CLEIDE CARDOSO DA SILVA ANALISTA DO MP ATIVO MANHUAÇU - COMARCA; MANHUACU-PJ-04PJ 7.200,74 432,04 0,00 3.816,39 2.544,26 0,00 13.993,43 839,61 1.594,16 0,00 2.433,77 11.559,66 1.196,01 0,00 30/06/2015
526 347600 CLEIDIMAR DE OLIVEIRA SILVA OFICIAL DO MP ATIVO PATOS DE MINAS - COMARCA; COORD REG BACIAS PARACATU,URUCUIA E ABAETE 5.842,66 1.168,53 0,00 3.505,60 0,00 0,00 10.516,79 771,23 638,08 0,00 1.409,31 9.107,48 726,01 0,00 30/06/2015
527 396500 CLEIDISON BATISTA DE ANDRADE OFICIAL DO MP ATIVO RESPLENDOR - COMARCA; RESPLENDOR-PJ-UNPJ 4.521,68 452,17 0,00 2.486,93 0,00 0,00 7.460,78 547,12 231,91 0,00 779,03 6.681,75 961,01 0,00 30/06/2015
528 535100 CLEISON ALVES DA SILVA ANALISTA DO MP ATIVO BOA ESPERANÇA - COMARCA; BOA ESPERANCA-PJ-01PJ 5.842,66 0,00 0,00 2.921,33 0,00 0,00 8.763,99 642,69 456,36 0,00 1.099,05 7.664,94 961,01 0,00 30/06/2015
529 298100 CLEONICE AUGUSTA BARROS DE OLIVEIRA ANALISTA DO MP ATIVO JUIZ DE FORA - COMARCA; JUIZ DE FORA-PJ-08PJ 11.276,58 2.255,32 0,00 6.765,95 0,00 0,00 20.297,85 1.488,51 2.442,57 0,00 3.931,08 16.366,77 726,01 0,00 30/06/2015
530 60200 CLERES DE ALMEIDA AGENTE DO MP ATIVO BELO HORIZONTE - COMARCA; EXTINTA - DIVISAO DE TRANSPORTES 4.668,87 3.735,10 0,00 4.201,99 0,00 0,00 12.605,96 1.106,67 1.488,71 0,00 2.595,38 10.010,58 726,01 1.656,69 30/06/2015
531 114300 CLERES PEREIRA DA SILVA JUNIOR ASSESSOR ATIVO BELO HORIZONTE - COMARCA; GAECO - SECRETARIA 0,00 1.670,07 4.175,17 2.922,62 0,00 0,00 8.767,86 513,01 640,24 0,00 1.153,25 7.614,61 1.196,01 0,00 30/06/2015
532 264100 CLETO HENRIQUE ANDRADE SILVA ANALISTA DO MP ATIVO BELO HORIZONTE - COMARCA; DIRETORIA DE SISTEMAS DE INFORMACAO 11.643,70 2.328,74 0,00 6.986,22 0,00 0,00 20.958,66 1.536,97 2.393,98 0,00 3.930,95 17.027,71 726,01 0,00 30/06/2015
533 334400 CLEUBA DE OLIVEIRA BARCELOS GONCALVES OFICIAL DO MP ATIVO DIVINÓPOLIS - COMARCA; COORD REG SAUDE MACRORREGIAO SANITARIA OESTE 6.432,09 1.286,42 0,00 2.977,00 0,00 0,00 10.695,51 919,79 1.072,90 0,00 1.992,69 8.702,82 726,01 643,21 30/06/2015
534 347500 CLEUSA CORDEIRO DA MATA PIMENTA OFICIAL DO MP ATIVO CAMPO BELO - COMARCA; CAMPO BELO-PJ-02PJ 6.229,29 4.360,51 0,00 5.294,90 0,00 0,00 15.884,70 1.164,88 1.618,22 0,00 2.783,10 13.101,60 726,01 0,00 30/06/2015
535 510200 CLEZIO SALES SILVA OFICIAL DO MP ATIVO BRASÓPOLIS - COMARCA; BRASOPOLIS-PJ-UNPJ 3.557,16 213,43 0,00 1.603,63 0,00 0,00 5.374,22 414,76 148,57 0,00 563,33 4.810,89 726,01 0,00 30/06/2015
536 323000 CLOTILDE DE PADUA VIEIRA OFICIAL DO MP ATIVO BELO HORIZONTE - COMARCA; CGMP-DIVISAO DE APOIO ADMINISTRATIVO 4.521,68 904,34 0,00 2.713,01 0,00 0,00 8.139,03 596,86 458,66 0,00 1.055,52 7.083,51 726,01 0,00 30/06/2015
537 285200 CLOVIS ANDRE LUDTKE OFICIAL DO MP ATIVO BELO HORIZONTE - COMARCA; DIVISAO DE MANUTENCAO PREDIAL 6.973,67 1.394,73 0,00 4.184,20 0,00 0,00 12.552,60 951,12 1.246,88 0,00 2.198,00 10.354,60 726,01 278,12 30/06/2015
538 381100 CONCEICAO APARECIDA TEIXEIRA ARANTES ANALISTA DO MP ATIVO BELO HORIZONTE - COMARCA; BH-23PJ INFRACIONAL-ASS JURIDICA 7.677,29 767,73 0,00 4.222,51 0,00 0,00 12.667,53 928,95 1.145,42 0,00 2.074,37 10.593,16 726,01 0,00 30/06/2015
539 249900 CONSTANTINO CEZAR GOMES MOTA OFICIAL DO MP ATIVO MONTES CLAROS - COMARCA; COORD REG BACIA RIOS VERDE GRANDE E PARDO 5.139,92 1.027,98 0,00 3.083,95 0,00 0,00 9.251,85 678,47 588,10 0,00 1.266,57 7.985,28 726,01 0,00 30/06/2015
540 481000 CRISHMA ANALIA LOMBELLO ANALISTA DO MP ATIVO JUIZ DE FORA - COMARCA; JUIZ DE FORA-PJ-13PJ 7.200,74 432,04 0,00 3.816,39 0,00 0,00 11.449,17 839,61 946,62 0,00 1.786,23 9.662,94 726,01 0,00 30/06/2015
541 187500 CRISLEY PATRICK TOSTES OFICIAL DO MP ATIVO JUIZ DE FORA - COMARCA; JUIZ DE FORA-PJ-21PJ 10.243,18 3.072,95 0,00 6.658,07 0,00 0,00 19.974,20 1.557,13 2.595,27 0,00 4.152,40 15.821,80 1.366,18 898,32 30/06/2015
542 523900 CRISTHYANE BAZOLI COSTA GUEDES OFICIAL DO MP ATIVO BELO HORIZONTE - COMARCA; BH-23PJ CIVEL-SEC EXP CIVEIS 3.916,07 234,96 0,00 2.075,52 0,00 0,00 6.226,55 456,61 199,36 0,00 655,97 5.570,58 726,01 0,00 30/06/2015
543 187000 CRISTIAN DAYVSON EVANGELISTA OFICIAL DO MP ATIVO JUIZ DE FORA - COMARCA; JUIZ DE FORA-PJ-09PJ 9.011,08 2.703,32 0,00 0,00 0,00 0,00 11.714,40 1.288,58 1.945,60 0,00 3.234,18 8.480,22 726,01 0,00 30/06/2015
544 319800 CRISTIANA GONCALVES DOS SANTOS GUSMAO OFICIAL DO MP ATIVO BELO HORIZONTE - COMARCA; BH-14PJ DEFESA CONSUMIDOR-SECRETARIA 6.229,29 1.245,86 0,00 3.737,58 0,00 0,00 11.212,73 822,27 960,18 0,00 1.782,45 9.430,28 2.643,32 175,75 30/06/2015
545 520600 CRISTIANA JANAINA BARBOZA JUVENCIO DOS SANTOS ANALISTA DO MP ATIVO BELO HORIZONTE - COMARCA; EXTINTA - JUIZO DE FAMILIA-02 PJ-02 VARA 6.641,51 398,49 0,00 3.520,00 0,00 0,00 10.560,00 774,40 853,68 0,00 1.628,08 8.931,92 726,01 0,00 30/06/2015
546 195600 CRISTIANA SOARES HALABI OFICIAL DO MP ATIVO UBERABA - COMARCA; UBERABA-PJ-11PJ 8.727,00 2.618,10 0,00 5.672,55 0,00 0,00 17.017,65 1.247,96 1.907,35 0,00 3.155,31 13.862,34 3.701,73 272,77 30/06/2015
547 218900 CRISTIANE ALVES BELLES OFICIAL DO MP ATIVO JUIZ DE FORA - COMARCA; JUIZ DE FORA-PJ-10PJ 4.977,82 995,56 0,00 2.986,69 0,00 0,00 8.960,07 657,07 488,35 0,00 1.145,42 7.814,65 726,01 0,00 30/06/2015
548 263600 CRISTIANE CARVALHO COUTINHO OFICIAL DO MP ATIVO BELO HORIZONTE - COMARCA; BH-23PJ INFRACIONAL-SEC EXP 6.973,67 1.394,73 0,00 4.184,20 0,00 0,00 12.552,60 951,12 1.194,74 0,00 2.145,86 10.406,74 1.100,07 290,87 30/06/2015
549 541000 CRISTIANE COELHO ALVES OFICIAL DO MP ATIVO ITABIRA - COMARCA; ITABIRA-PJ-01PJ 3.445,03 0,00 0,00 0,00 1.148,34 0,00 4.593,37 378,95 269,46 0,00 648,41 3.944,96 726,01 0,00 30/06/2015
550 441700 CRISTIANE CORRADO DE ANDRADE ANALISTA DO MP ATIVO BELO HORIZONTE - COMARCA; DIRETORIA DE SISTEMAS DE INFORMACAO 8.451,80 845,18 0,00 4.648,49 0,00 0,00 13.945,47 1.022,67 1.406,08 0,00 2.428,75 11.516,72 726,01 0,00 30/06/2015
551 375100 CRISTIANE DAS DORES ERCIO DE LIMA OFICIAL DO MP ATIVO GOVERNADOR VALADARES - COMARCA; COOR REG INCLUSAO MOBILIZ VALE DO RIO DOCE 4.977,82 497,78 0,00 2.737,80 0,00 0,00 8.213,40 602,32 470,79 0,00 1.073,11 7.140,29 726,01 0,00 30/06/2015
552 631600 CRISTIANE DE FREITAS NEVES OFICIAL DO MP ATIVO IPATINGA - COMARCA; IPATINGA-PJ-SECRETARIA 3.030,62 0,00 0,00 0,00 0,00 0,00 3.030,62 333,37 59,49 0,00 392,86 2.637,76 726,01 0,00 30/06/2015
553 178800 CRISTIANE DE LIMA HOSKEN OFICIAL DO MP ATIVO BELO HORIZONTE - COMARCA; BH-14PJ DEFESA CONSUMIDOR-GAB 113PJ 9.920,24 2.976,07 0,00 6.448,16 0,00 0,00 19.344,47 1.503,71 2.319,98 0,00 3.823,69 15.520,78 726,01 773,78 30/06/2015
554 494000 CRISTIANE DE MELO MARQUEZ OLIVEIRA ANALISTA DO MP ATIVO UBERLÂNDIA - COMARCA; UBERLANDIA-PJ-06PJ 6.641,51 398,49 0,00 3.520,00 0,00 0,00 10.560,00 774,40 853,68 0,00 1.628,08 8.931,92 726,01 0,00 30/06/2015
555 266100 CRISTIANE DE OLIVEIRA CASTRO OFICIAL DO MP ATIVO BELO HORIZONTE - COMARCA; PROCON-MG-SECRETARIA DE FISCALIZACOES 7.200,74 2.614,97 0,00 4.907,86 0,00 0,00 14.723,57 950,50 1.464,30 0,00 2.414,80 12.308,77 961,01 0,00 30/06/2015
556 329500 CRISTIANE DOS REIS SILVA OFICIAL DO MP ATIVO ARAXÁ - COMARCA; ARAXA-PJ-04PJ 5.658,41 1.131,68 0,00 3.395,05 0,00 0,00 10.185,14 746,91 688,24 0,00 1.435,15 8.749,99 961,01 0,00 30/06/2015
557 301600 CRISTIANE GODINHO PIRES ANALISTA DO MP ATIVO BETIM - COMARCA; BETIM-PJ-07PJ 10.921,00 2.184,20 0,00 6.552,60 0,00 0,00 19.657,80 1.441,57 2.338,14 0,00 3.779,71 15.878,09 1.155,25 39,35 30/06/2015
558 406100 CRISTIANE GONCALVES CHAVES ANALISTA DO MP ATIVO BELO HORIZONTE - COMARCA; BH-09PJ AUDITORIA MILITAR-SECRETARIA 8.727,00 1.745,40 0,00 5.236,20 0,00 0,00 15.708,60 1.151,96 1.693,76 0,00 2.845,72 12.862,88 726,01 0,00 30/06/2015
559 487600 CRISTIANE LOPES DE OLIVEIRA OFICIAL DO MP ATIVO CARMO DA MATA - COMARCA; CARMO DA MATA-PJ-SECRETARIA 3.916,07 234,96 0,00 0,00 0,00 0,00 4.151,03 456,61 170,92 0,00 627,53 3.523,50 726,01 0,00 30/06/2015
560 502500 CRISTIANE MACIEL DE OLIVEIRA GOMES ANALISTA DO MP ATIVO JUIZ DE FORA - COMARCA; JUIZ DE FORA-PJ-05PJ 6.641,51 398,49 0,00 0,00 0,00 0,00 7.040,00 774,40 853,68 0,00 1.628,08 5.411,92 726,01 0,00 30/06/2015
561 285500 CRISTIANE MAGALHAES LOURENCO ANALISTA DO MP ATIVO BELO HORIZONTE - COMARCA; CENTRAL DE APOIO TECNICO-SETOR CONTABIL 10.576,63 2.115,33 0,00 6.345,98 0,00 0,00 19.037,94 1.396,12 2.132,72 0,00 3.528,84 15.509,10 726,01 0,00 30/06/2015
562 536500 CRISTIANE MICHELE DE SOUZA ANALISTA DO MP ATIVO BARÃO DE COCAIS - COMARCA; BARAO DE COCAIS-PJ-UNPJ 5.842,66 0,00 0,00 2.921,33 0,00 0,00 8.763,99 642,69 508,49 0,00 1.151,18 7.612,81 961,01 0,00 30/06/2015
563 346600 CRISTIANE NOGUEIRA ANDRADE ANALISTA DO MP ATIVO BELO HORIZONTE - COMARCA; CENTRAL DE APOIO TECNICO-SETOR CONTABIL 10.243,18 1.024,32 0,00 5.633,75 0,00 0,00 16.901,25 1.317,58 2.094,81 0,00 3.412,39 13.488,86 1.592,83 865,24 30/06/2015
564 234000 CRISTIANE OLIVEIRA TOSTES OFICIAL DO MP ATIVO JUIZ DE FORA - COMARCA; JUIZ DE FORA-PJ-08PJ 8.727,00 1.745,40 0,00 5.236,20 0,00 0,00 15.708,60 1.151,96 1.693,76 0,00 2.845,72 12.862,88 726,01 0,00 30/06/2015
565 445800 CRISTIANE ORZIL COSTA OFICIAL DO MP ATIVO SANTA LUZIA - COMARCA; SANTA LUZIA-PJ-05PJ 4.043,58 404,36 0,00 0,00 1.482,65 0,00 5.930,59 489,27 627,00 0,00 1.116,27 4.814,32 726,01 0,00 30/06/2015
566 616100 CRISTIANE PAES RODRIGUES MARCICANO ANALISTA DO MP ATIVO CATAGUASES - COMARCA; CATAGUASES-PJ-05PJ 4.820,91 0,00 0,00 2.410,46 0,00 0,00 7.231,37 563,75 401,55 0,00 965,30 6.266,07 726,01 354,76 30/06/2015
567 612300 CRISTIANE RIBEIRO DOS REIS ARCANJO OFICIAL DO MP ATIVO BELO HORIZONTE - COMARCA; BH-17PJ PATRIMONIO PUBLICO-SECRETARIA 3.445,03 0,00 0,00 1.722,52 0,00 0,00 5.167,55 378,95 76,67 0,00 455,62 4.711,93 726,01 0,00 30/06/2015
568 215000 CRISTIANE RODRIGUES DE CARVALHO ASSESSOR ATIVO BELO HORIZONTE - COMARCA; BH-14PJ DEFESA CONSUMIDOR-GAB 005PJ 0,00 1.252,55 4.175,17 2.713,86 0,00 0,00 8.141,58 513,01 681,84 0,00 1.194,85 6.946,73 726,01 0,00 30/06/2015
569 257700 CRISTIANE RODRIGUES PAES NUNES ANALISTA DO MP ATIVO BELO HORIZONTE - COMARCA; BH-22PJ PES COM DEF E IDOSOS-ORIENTACAO PSIC 11.643,70 2.328,74 0,00 6.986,22 0,00 0,00 20.958,66 1.633,89 2.713,90 0,00 4.347,79 16.610,87 886,19 895,76 30/06/2015
570 510800 CRISTIANE SANTOS FERNANDES ORNELES ANALISTA DO MP ATIVO BELO HORIZONTE - COMARCA; COORD ESTADUAL DAS PJS DE HAB. E URBANISMO 6.641,51 398,49 0,00 0,00 0,00 0,00 7.040,00 774,40 801,54 0,00 1.575,94 5.464,06 726,01 0,00 30/06/2015
571 535700 CRISTIANE SANTOS MIRANDA OFICIAL DO MP ATIVO BETIM - COMARCA; BETIM-PJ-02PJ 3.792,57 0,00 0,00 1.896,29 0,00 0,00 5.688,86 417,18 123,07 0,00 540,25 5.148,61 726,01 0,00 30/06/2015
572 536200 CRISTIANO DE OLIVEIRA ANALISTA DO MP ATIVO CONCEIÇÃO DO MATO DENTRO - COMARCA; CONCEICAO DO MATO DENTRO-PJ-UNPJ 5.842,66 0,00 0,00 2.921,33 0,00 0,00 8.763,99 642,69 560,63 0,00 1.203,32 7.560,67 726,01 0,00 30/06/2015
573 477400 CRISTIANO SOARES ELEUTERIO ANALISTA DO MP ATIVO BELO HORIZONTE - COMARCA; BH-17PJ PATRIMONIO PUBLICO 7.200,74 432,04 0,00 3.816,39 2.544,26 0,00 13.993,43 839,61 1.698,43 0,00 2.538,04 11.455,39 726,01 0,00 30/06/2015
574 449400 CRISTIANO TEIXEIRA RODRIGUES LANA ANALISTA DO MP ATIVO BELO HORIZONTE - COMARCA; ASSESS TECNICO-JUR JUNTO AS PROC. DE JUST 7.435,23 743,52 0,00 4.089,38 0,00 0,00 12.268,13 899,66 1.132,39 0,00 2.032,05 10.236,08 726,01 0,00 30/06/2015
575 239400 CRISTINA DE FATIMA CRUZ E SILVA OFICIAL DO MP ATIVO MONTE SANTO DE MINAS - COMARCA; MONTE SANTO DE MINAS-PJ-SECRETARIA 7.435,23 1.487,05 0,00 4.461,14 0,00 0,00 13.383,42 981,45 1.314,37 0,00 2.295,82 11.087,60 726,01 0,00 30/06/2015
576 544000 CRISTINA DE OLIVEIRA TERRA ANALISTA DO MP ATIVO MATOZINHOS - COMARCA; MATOZINHOS-PJ-02PJ 5.842,66 0,00 0,00 0,00 0,00 0,00 5.842,66 642,69 560,63 0,00 1.203,32 4.639,34 726,01 0,00 30/06/2015
577 356800 CRISTINA DE PINHO BARROSO OFICIAL DO MP ATIVO SABINÓPOLIS - COMARCA; SABINOPOLIS-PJ-UNPJ 4.977,82 995,56 0,00 2.986,69 1.991,13 0,00 10.951,20 657,07 1.035,91 0,00 1.692,98 9.258,22 1.046,01 0,00 30/06/2015
578 449100 CRISTINA KISTEMANN CHIODI ASSESSOR ATIVO BELO HORIZONTE - COMARCA; COORD-GERAL DAS PJS POR BACIA HIDRO. DE MG 0,00 0,00 9.304,45 4.652,23 0,00 0,00 13.956,68 513,01 1.747,94 0,00 2.260,95 11.695,73 726,01 0,00 30/06/2015
579 348201 CRISTINA MARIA DA SILVA ANALISTA DO MP ATIVO PATOS DE MINAS - COMARCA; PATOS DE MINAS-PJ-02PJ 7.200,74 720,07 0,00 3.960,41 2.640,27 0,00 14.521,49 871,29 1.795,33 0,00 2.666,62 11.854,87 726,01 0,00 30/06/2015
580 434900 CRISTINA MELO DE MADUREIRA ANALISTA DO MP ATIVO BELO HORIZONTE - COMARCA; CAO-CRIMINAL-SECRETARIA 8.451,80 845,18 0,00 4.648,49 0,00 0,00 13.945,47 1.022,67 1.406,08 0,00 2.428,75 11.516,72 961,01 0,00 30/06/2015
581 117100 CRISTINA PEDROSA GARABINI COORDENADOR/ANALISTA ATIVO BELO HORIZONTE - COMARCA; DIRET DE INFORMACAO E CONHECIMENTO-DINC/CEAF 18.576,08 15.624,30 0,00 15.235,56 0,00 0,00 49.435,94 3.351,82 6.484,17 3.729,27 13.565,26 35.870,68 726,01 0,00 30/06/2015
582 307700 CRISTINA TEIXEIRA MARQUES OFICIAL DO MP ATIVO BELO HORIZONTE - COMARCA; CENTRAL DE APOIO TECNICO-SECRETARIA 6.032,93 1.206,59 0,00 3.619,76 0,00 0,00 10.859,28 942,31 1.227,27 0,00 2.169,58 8.689,70 726,01 1.326,90 30/06/2015
583 265300 CRISTOVAO SANCHES DE MEDEIROS ANALISTA DO MP ATIVO BELO HORIZONTE - COMARCA; DIRETORIA DE CONTABILIDADE 10.576,63 2.115,33 0,00 6.345,98 4.230,65 0,00 23.268,59 1.484,15 3.544,16 0,00 5.028,31 18.240,28 726,01 800,28 30/06/2015
584 349800 CROZEIR LUIZ DA SILVA OFICIAL DO MP ATIVO UNAÍ - COMARCA; UNAI-PJ-SECRETARIA 5.842,66 584,27 0,00 3.213,47 0,00 0,00 9.640,40 706,96 651,49 0,00 1.358,45 8.281,95 726,01 0,00 30/06/2015
585 490500 CYNTHIA CRISTINA DE SOUZA OLIVEIRA VALENTE ANALISTA DO MP ATIVO BELO HORIZONTE - COMARCA; BH-09PJ AUDITORIA MILITAR 6.641,51 398,49 0,00 0,00 0,00 0,00 7.040,00 774,40 853,68 0,00 1.628,08 5.411,92 961,01 0,00 30/06/2015
586 389800 CYNTHIA GARIGLIO DOS SANTOS OFICIAL DO MP ATIVO PERDIZES - COMARCA; PERDIZES-PJ-SECRETARIA 4.521,68 452,17 0,00 2.486,93 0,00 0,00 7.460,78 547,12 274,57 0,00 821,69 6.639,09 961,01 0,00 30/06/2015
587 335101 CYNTHIA GONTIJO D ASSUNCAO ANALISTA DO MP ATIVO BELO HORIZONTE - COMARCA; PROC. JUSTICA DIR. DIFUSOS E COLETIVOS-SEC 7.200,74 432,04 0,00 3.816,39 0,00 0,00 11.449,17 839,61 998,76 0,00 1.838,37 9.610,80 726,01 0,00 30/06/2015
588 154000 CYNTHIA LOPES DOS SANTOS LAGES ASSESSOR ATIVO BELO HORIZONTE - COMARCA; PROCURADOR-GERAL DE JUSTICA- GABINETE 0,00 5.460,50 10.921,00 8.190,75 0,00 0,00 24.572,25 1.801,97 3.140,01 0,00 4.941,98 19.630,27 726,01 0,00 30/06/2015
589 269700 CYNTIA ROCHA CAVALCANTI OFICIAL DO MP ATIVO UBERLÂNDIA - COMARCA; UBERLANDIA-PJ-06PJ 7.200,74 1.440,15 0,00 4.320,45 0,00 0,00 12.961,34 950,50 1.245,50 0,00 2.196,00 10.765,34 726,01 0,00 30/06/2015
590 278000 DAIRTON LOPES MARTINS FILHO COORDENADOR/ANALISTA ATIVO BELO HORIZONTE - COMARCA; DIRETORIA DE SISTEMAS DE INFORMACAO 0,00 2.184,20 10.921,00 6.552,60 0,00 0,00 19.657,80 1.080,46 2.437,44 0,00 3.517,90 16.139,90 726,01 0,00 30/06/2015
591 392700 DALIANA CHAVES SILVA OFICIAL DO MP ATIVO ITAÚNA - COMARCA; ITAUNA-PJ-SECRETARIA 5.307,28 530,73 0,00 2.919,01 0,00 0,00 8.757,02 642,18 559,49 0,00 1.201,67 7.555,35 726,01 0,00 30/06/2015
592 558101 DALLEY TASSIA SILVA ANALISTA DO MP ATIVO MORADA NOVA DE MINAS - COMARCA; MORADA NOVA DE MINAS-PJ-UNPJ 5.307,28 0,00 0,00 0,00 0,00 0,00 5.307,28 583,80 341,34 0,00 925,14 4.382,14 726,01 0,00 30/06/2015
593 476700 DALTON DAUD ANALISTA DO MP ATIVO ARAGUARI - COMARCA; ARAGUARI-PJ-05PJ 7.200,74 432,04 0,00 3.816,39 0,00 0,00 11.449,17 839,61 894,49 0,00 1.734,10 9.715,07 726,01 0,00 30/06/2015
594 548700 DALVA DE SOUZA ROCHA ALMEIDA OFICIAL DO MP ATIVO IPATINGA - COMARCA; IPATINGA-PJ-01PJ 3.792,57 0,00 0,00 1.640,38 0,00 0,00 5.432,95 493,64 187,42 0,00 681,06 4.751,89 726,01 695,08 30/06/2015
595 426900 DANIEL ALVES DA SILVA OFICIAL DO MP ATIVO BELO HORIZONTE - COMARCA; EXTINTA - PROTOCOLO DA PGJ 4.379,06 437,91 0,00 2.021,97 0,00 0,00 6.838,94 529,87 243,15 0,00 773,02 6.065,92 726,01 0,00 30/06/2015
596 122000 DANIEL ANTONIO VIEIRA OFICIAL DO MP ATIVO ENTRE-RIOS DE MINAS - COMARCA; ENTRE RIOS DE MINAS-PJ-SECRETARIA 8.185,27 5.729,69 0,00 0,00 0,00 0,00 13.914,96 1.710,72 2.676,31 0,00 4.387,03 9.527,93 726,01 1.637,06 30/06/2015
597 272401 DANIEL AUGUSTO DOS REIS ANALISTA DO MP ATIVO BELO HORIZONTE - COMARCA; BH-22PJ PES COM DEF E IDOSOS-ASS JURIDICA 8.727,00 872,70 0,00 0,00 0,00 0,00 9.599,70 1.055,97 1.480,17 0,00 2.536,14 7.063,56 726,01 0,00 30/06/2015
598 536301 DANIEL BATISTA MARIANO ANALISTA DO MP ATIVO CURVELO - COMARCA; CURVELO-PJ-05PJ 5.139,92 0,00 0,00 2.569,96 0,00 0,00 7.709,88 565,39 393,14 0,00 958,53 6.751,35 726,01 0,00 30/06/2015
599 411000 DANIEL FERREIRA DA SILVA ANALISTA DO MP ATIVO GOVERNADOR VALADARES - COMARCA; GOVERNADOR VALADARES-PJ-15PJ 8.185,27 1.637,05 0,00 4.911,16 0,00 0,00 14.733,48 1.080,46 1.430,38 0,00 2.510,84 12.222,64 961,01 0,00 30/06/2015
600 309000 DANIEL GOMES DOS SANTOS ANALISTA DO MP ATIVO POÇOS DE CALDAS - COMARCA; POCOS DE CALDAS-PJ-03PJ 9.607,41 1.921,48 0,00 5.764,45 0,00 0,00 17.293,34 1.268,18 1.952,34 0,00 3.220,52 14.072,82 961,01 0,00 30/06/2015
601 554500 DANIEL GOMES PEREIRA OFICIAL DO MP ATIVO NANUQUE - COMARCA; NANUQUE-PJ-02PJ 3.129,28 0,00 0,00 1.564,64 0,00 0,00 4.693,92 344,22 66,08 0,00 410,30 4.283,62 731,77 0,00 30/06/2015
602 453000 DANIEL GONCALVES PEREIRA ANALISTA DO MP ATIVO UNAÍ - COMARCA; UNAI-PJ-04PJ 7.200,74 432,04 0,00 3.816,39 0,00 0,00 11.449,17 839,61 998,76 0,00 1.838,37 9.610,80 726,01 0,00 30/06/2015
603 495500 DANIEL GUIMARAES CABRAL OFICIAL DO MP ATIVO BELO HORIZONTE - COMARCA; BH-17PJ PATRIMONIO PUBLICO-SECRETARIA 3.557,16 213,43 0,00 1.885,30 0,00 0,00 5.655,89 414,76 148,57 0,00 563,33 5.092,56 726,01 0,00 30/06/2015
604 442900 DANIEL GUIMARAES GONCALVES ANALISTA DO MP ATIVO UBERLÂNDIA - COMARCA; UBERLANDIA-PJ-03PJ 7.435,23 743,52 0,00 4.089,38 0,00 0,00 12.268,13 899,66 1.132,39 0,00 2.032,05 10.236,08 726,01 0,00 30/06/2015
605 491200 DANIEL HENRIQUE SOUTO COSTA ANALISTA DO MP ATIVO CORAÇÃO DE JESUS - COMARCA; CORACAO DE JESUS-PJ-UNPJ 6.641,51 398,49 0,00 2.705,96 0,00 0,00 9.745,96 774,40 853,68 0,00 1.628,08 8.117,88 726,01 0,00 30/06/2015
606 464600 DANIEL PIACENTINI STIVANIN ANALISTA DO MP ATIVO ANDRADAS - COMARCA; ANDRADAS-PJ-02PJ 7.200,74 432,04 0,00 3.816,39 0,00 0,00 11.449,17 839,61 998,76 0,00 1.838,37 9.610,80 726,01 0,00 30/06/2015
607 417000 DANIEL QUEIROZ FERREIRA ANALISTA DO MP ATIVO SÃO SEBASTIÃO DO PARAÍSO - COMARCA; SAO SEBASTIAO DO PARAISO-PJ-05PJ 8.185,27 818,53 0,00 4.501,90 0,00 0,00 13.505,70 990,42 1.334,32 0,00 2.324,74 11.180,96 726,01 0,00 30/06/2015
608 396700 DANIEL SILVA CARNEVALLI DIRETOR/ANALISTA ATIVO BELO HORIZONTE - COMARCA; SUPERINTENDENCIA DE TECNOLOGIA DA INFORMACAO 0,00 1.415,52 14.155,19 7.785,36 0,00 0,00 23.356,07 1.055,97 3.122,19 0,00 4.178,16 19.177,91 726,01 0,00 30/06/2015
609 489300 DANIEL TABOZA ROCHA ANALISTA DO MP ATIVO IPATINGA - COMARCA; IPATINGA-PJ-08PJ 6.641,51 398,49 0,00 3.520,00 0,00 0,00 10.560,00 774,40 853,68 0,00 1.628,08 8.931,92 726,01 0,00 30/06/2015
610 414100 DANIEL TARDELI VALADAO ANALISTA DO MP ATIVO TRÊS CORACOES - COMARCA; TRES CORACOES-PJ-02PJ 8.185,27 818,53 0,00 3.339,53 0,00 0,00 12.343,33 990,42 1.334,32 0,00 2.324,74 10.018,59 1.360,42 58,15 30/06/2015
611 253200 DANIELA BATISTA LIMA BARBOSA ASSESSOR ATIVO BELO HORIZONTE - COMARCA; CENTRAL DE APOIO TECN-SETOR DE MEIO AMBIENTE 0,00 835,03 4.175,17 2.505,10 0,00 0,00 7.515,30 513,01 567,02 0,00 1.080,03 6.435,27 726,01 0,00 30/06/2015
612 505800 DANIELA BORGES DE MATTOS RESENDE ANALISTA DO MP ATIVO JUIZ DE FORA - COMARCA; JUIZ DE FORA-PJ-20PJ 6.641,51 398,49 0,00 3.520,00 0,00 0,00 10.560,00 774,40 853,68 0,00 1.628,08 8.931,92 961,01 0,00 30/06/2015
613 478000 DANIELA CARVALHO SOARES ANALISTA DO MP ATIVO SÃO JOÃO DEL REI - COMARCA; SAO JOAO DEL REI-PJ-01PJ 7.200,74 432,04 0,00 2.897,20 0,00 0,00 10.529,98 839,61 998,76 0,00 1.838,37 8.691,61 726,01 0,00 30/06/2015
614 275900 DANIELA CHAGAS SODRE ANALISTA DO MP ATIVO BELO HORIZONTE - COMARCA; CENTRAL DE APOIO TECNICO-SETOR CONTABIL 10.576,63 2.115,33 0,00 6.345,98 0,00 0,00 19.037,94 1.396,12 2.184,86 0,00 3.580,98 15.456,96 961,01 0,00 30/06/2015
615 234301 DANIELA CRUZ SOARES ANALISTA DO MP ATIVO BELO HORIZONTE - COMARCA; LAB TECNOLOGIA CONTRA LAVAGEM DINHEIRO 11.643,70 2.328,74 0,00 6.986,22 0,00 0,00 20.958,66 1.536,97 2.550,39 0,00 4.087,36 16.871,30 726,01 0,00 30/06/2015
616 638000 DANIELA DE ALMEIDA BATISTA ANALISTA DO MP ATIVO ANDRELÂNDIA - COMARCA; ANDRELANDIA-PJ-UNPJ 5.139,92 0,00 0,00 0,00 0,00 0,00 5.139,92 622,39 515,45 0,00 1.137,84 4.002,08 726,01 518,15 30/06/2015
617 301000 DANIELA DE ALMEIDA E OLIVEIRA ANALISTA DO MP ATIVO BELO HORIZONTE - COMARCA; DIRETORIA DE SISTEMAS DE INFORMACAO 10.576,63 2.115,33 0,00 6.345,98 0,00 0,00 19.037,94 1.396,12 2.237,00 0,00 3.633,12 15.404,82 4.788,82 372,42 30/06/2015
618 296000 DANIELA DE AZEVEDO SILVA ANALISTA DO MP ATIVO ITAJUBA - COMARCA; ITAJUBA-PJ-03PJ 10.921,00 2.184,20 0,00 6.552,60 0,00 0,00 19.657,80 1.441,57 2.338,14 0,00 3.779,71 15.878,09 726,01 0,00 30/06/2015
619 453500 DANIELA DE CASTRO SOUSA BARBOSA ANALISTA DO MP ATIVO BELO HORIZONTE - COMARCA; BH-08PJ JUIZADO ESPECIAL-SECRETARIA 7.200,74 720,07 0,00 3.960,41 0,00 0,00 11.881,22 1.102,55 1.583,81 0,00 2.686,36 9.194,86 1.014,04 2.128,77 30/06/2015
620 506000 DANIELA DE OLIVEIRA CAVALIERI ANALISTA DO MP ATIVO BELO HORIZONTE - COMARCA; BH-14PJ DEFESA CONSUMIDOR-GAB 005PJ 5.480,05 328,80 0,00 2.904,43 0,00 0,00 8.713,28 638,97 552,36 0,00 1.191,33 7.521,95 726,01 0,00 30/06/2015
621 546200 DANIELA DE VILHENA LEMES GONCALVES OFICIAL DO MP ATIVO TRÊS CORACOES - COMARCA; TRES CORACOES-PJ-05PJ 3.445,03 0,00 0,00 1.503,68 0,00 0,00 4.948,71 378,95 58,72 0,00 437,67 4.511,04 726,01 0,00 30/06/2015
622 356400 DANIELA LEAL FERRAZ ANALISTA DO MP ATIVO MONTES CLAROS - COMARCA; COORD REG PJ DEF EDUC DIR CRIANCA ADOL NORTE 9.011,08 901,11 0,00 4.956,10 0,00 0,00 14.868,29 1.090,34 1.556,65 0,00 2.646,99 12.221,30 726,01 0,00 30/06/2015
623 501000 DANIELA LOURENCO SANTOS DA SILVA GUIMARAES ANALISTA DO MP ATIVO BELO HORIZONTE - COMARCA; BH-12PJ JUIZO CRIMINAL-GAB 086PJ 6.641,51 398,49 0,00 3.520,00 0,00 0,00 10.560,00 774,40 853,68 0,00 1.628,08 8.931,92 961,01 0,00 30/06/2015
624 195801 DANIELA MARIA DE OLIVEIRA QUEIROZ ANALISTA DO MP ATIVO ARAGUARI - COMARCA; ARAGUARI-PJ-06PJ 8.451,80 2.535,54 0,00 5.493,67 3.662,45 0,00 20.143,46 1.208,61 2.826,96 0,00 4.035,57 16.107,89 726,01 0,00 30/06/2015
625 511400 DANIELA MARIA LARA DE OLIVEIRA ANALISTA DO MP ATIVO BOA ESPERANÇA - COMARCA; BOA ESPERANCA-PJ-02PJ 6.032,93 361,98 0,00 0,00 0,00 0,00 6.394,91 703,44 643,66 0,00 1.347,10 5.047,81 726,01 0,00 30/06/2015
626 252101 DANIELA PAULA ALVES PENA ANALISTA DO MP ATIVO CONTAGEM - COMARCA; CONTAGEM-PJ-APO TECNICO 9.011,08 2.703,32 0,00 4.214,04 0,00 0,00 15.928,44 1.369,83 2.178,51 0,00 3.548,34 12.380,10 947,59 758,91 30/06/2015
627 604700 DANIELA PEIXOTO NOGUEIRA OFICIAL DO MP ATIVO BELO HORIZONTE - COMARCA; DIRET DE FORMACAO, APERFEIC. E POS-GRADUACAO 3.445,03 0,00 0,00 0,00 1.148,34 0,00 4.593,37 378,95 906,37 0,00 1.285,32 3.308,05 726,01 2.242,79 30/06/2015
628 429600 DANIELA PIMENTA NUNES MACHADO ANALISTA DO MP ATIVO BELO HORIZONTE - COMARCA; BH-05PJ JUÍZO DE SUCESSÕES 8.451,80 845,18 0,00 0,00 0,00 0,00 9.296,98 1.022,67 1.406,08 0,00 2.428,75 6.868,23 726,01 0,00 30/06/2015
629 424300 DANIELA PORTO PINTO OFICIAL DO MP ATIVO BELO HORIZONTE - COMARCA; EXTINTA-DEFESA DA SAUDE-19 PJ-GABINETE 4.175,17 417,52 0,00 1.901,97 0,00 0,00 6.494,66 505,20 283,56 0,00 788,76 5.705,90 726,01 0,00 30/06/2015
630 462000 DANIELA SOUSA GOMES DO AMARAL ANALISTA DO MP ATIVO BETIM - COMARCA; BETIM-PJ-04PJ 7.200,74 432,04 0,00 2.897,20 0,00 0,00 10.529,98 839,61 998,76 0,00 1.838,37 8.691,61 961,01 0,00 30/06/2015
631 427000 DANIELA TEIXEIRA DINIZ ANDRADE ANALISTA DO MP ATIVO BELO HORIZONTE - COMARCA; DIRETORIA DE PROJETOS DE EDIFICACOES 7.435,23 743,52 0,00 0,00 0,00 0,00 8.178,75 899,66 1.080,25 0,00 1.979,91 6.198,84 961,01 0,00 30/06/2015
632 337200 DANIELA TOLEDO SENIUK ANALISTA DO MP ATIVO BELO HORIZONTE - COMARCA; CGMP-SECRETARIA DA CORREGEDORIA-GERAL DO MP 9.011,08 1.802,22 0,00 3.949,39 0,00 0,00 14.762,69 1.488,43 2.390,26 0,00 3.878,69 10.884,00 726,01 2.717,89 30/06/2015
633 605600 DANIELE ALZIRA SILVA CABRAL MOREIRA OFICIAL DO MP ATIVO BELO HORIZONTE - COMARCA; BH-10PJ EXECUÇÃO PENAL 3.445,03 0,00 0,00 1.722,52 0,00 0,00 5.167,55 378,95 105,11 0,00 484,06 4.683,49 726,01 0,00 30/06/2015
634 195500 DANIELE CHAVES FONSECA OFICIAL DO MP ATIVO BELO HORIZONTE - COMARCA; ASSESSORIA ESPECIAL DO PGJ 9.920,24 2.976,07 0,00 0,00 0,00 0,00 12.896,31 1.508,06 2.486,08 0,00 3.994,14 8.902,17 852,24 824,93 30/06/2015
635 323400 DANIELE MEGALE SANTINI OFICIAL DO MP ATIVO BELO HORIZONTE - COMARCA; ASSESS TECNICO-JUR JUNTO AS PROC. DE JUST 6.641,51 1.328,30 0,00 3.984,91 0,00 0,00 11.954,72 876,68 1.029,11 0,00 1.905,79 10.048,93 726,01 0,00 30/06/2015
636 357900 DANIELE REJANE PINTO VERSIEUX OFICIAL DO MP ATIVO PEDRO LEOPOLDO - COMARCA; PEDRO LEOPOLDO-PJ-03PJ 6.032,93 603,29 0,00 3.318,11 0,00 0,00 9.954,33 729,98 754,86 0,00 1.484,84 8.469,49 726,01 0,00 30/06/2015
637 389500 DANIELE VASCONCELOS AMORIM OFICIAL DO MP ATIVO SÃO SEBASTIÃO DO PARAÍSO - COMARCA; SAO SEBASTIAO DO PARAISO-PJ-04PJ 5.480,05 548,01 0,00 3.014,03 0,00 0,00 9.042,09 663,09 606,01 0,00 1.269,10 7.772,99 726,01 0,00 30/06/2015
638 629700 DANIELLA BASTOS MARTINS BICALHO OFICIAL DO MP ATIVO GOVERNADOR VALADARES - COMARCA; GOVERNADOR VALADARES-PJ-SECRETARIA 3.030,62 0,00 0,00 0,00 0,00 0,00 3.030,62 333,37 59,49 0,00 392,86 2.637,76 726,01 0,00 30/06/2015
639 265000 DANIELLE CASTANHEIRA SCALABRINI OFICIAL DO MP ATIVO BELO HORIZONTE - COMARCA; JUNTA RECURSAL DO PROCON ESTADUAL 6.432,09 1.286,42 0,00 3.859,26 0,00 0,00 11.577,77 902,58 982,46 0,00 1.885,04 9.692,73 829,19 496,18 30/06/2015
640 490100 DANIELLE DE AVILA SILVA LOPES ANALISTA DO MP ATIVO BELO HORIZONTE - COMARCA; PROC. JUSTICA DIR. DIFUSOS E COLETIVOS-SEC 6.641,51 1.328,30 0,00 3.984,91 0,00 0,00 11.954,72 876,68 1.081,25 0,00 1.957,93 9.996,79 726,01 0,00 30/06/2015
641 549600 DANIELLE GOMES LOPES RODRIGUES OFICIAL DO MP ATIVO ITABIRA - COMARCA; ITABIRA-PJ-03PJ 3.792,57 0,00 0,00 0,00 1.264,19 0,00 5.056,76 493,64 576,65 0,00 1.070,29 3.986,47 961,01 695,08 30/06/2015
642 613000 DANIELLE SILVA OLIVEIRA FRANKLIN OFICIAL DO MP ATIVO BELO HORIZONTE - COMARCA; DIRETORIA DE ADMINISTRACAO FINANCEIRA 3.445,03 0,00 0,00 0,00 0,00 0,00 3.445,03 378,95 105,11 0,00 484,06 2.960,97 726,01 0,00 30/06/2015
643 380800 DANILLO RIBEIRO ANTUNES ANALISTA DO MP ATIVO MONTES CLAROS - COMARCA; MONTES CLAROS-PJ-SECRETARIA 8.727,00 872,70 0,00 4.799,85 0,00 0,00 14.399,55 1.055,97 1.375,89 0,00 2.431,86 11.967,69 3.574,98 261,16 30/06/2015
644 453700 DANILO BOTELHO DE CARVALHO ASSESSOR/ANALISTA ATIVO BELO HORIZONTE - COMARCA; DIRETORIA DE ADMINISTRACAO FINANCEIRA 0,00 845,18 8.451,80 4.648,49 0,00 0,00 13.945,47 908,48 2.058,28 0,00 2.966,76 10.978,71 1.001,31 2.261,16 30/06/2015
645 391200 DANILO D'AVILA MENDES ANALISTA DO MP ATIVO SÃO ROMÃO - COMARCA; SAO ROMAO-PJ-UNPJ 8.727,00 872,70 0,00 4.799,85 0,00 0,00 14.399,55 1.055,97 1.480,17 0,00 2.536,14 11.863,41 726,01 0,00 30/06/2015
646 494900 DANILO GAVIAO AVELINO DE MELLO ANALISTA DO MP ATIVO POUSO ALEGRE - COMARCA; POUSO ALEGRE-PJ-08PJ 6.641,51 398,49 0,00 2.705,96 0,00 0,00 9.745,96 774,40 853,68 0,00 1.628,08 8.117,88 726,01 0,00 30/06/2015
647 604300 DANILO NASCIMENTO SALGADO ANALISTA DO MP ATIVO JANAÚBA - COMARCA; JANAUBA-PJ-01PJ 5.307,28 0,00 0,00 2.653,64 0,00 0,00 7.960,92 583,80 429,60 0,00 1.013,40 6.947,52 726,01 0,00 30/06/2015
648 600700 DANILO OLIVEIRA CARILLI OFICIAL DO MP ATIVO ARAGUARI - COMARCA; ARAGUARI-PJ-07PJ 3.129,28 0,00 0,00 0,00 1.043,09 0,00 4.172,37 344,22 225,20 0,00 569,42 3.602,95 726,01 0,00 30/06/2015
649 550800 DANTE MENDES BIANCHETTI FILHO ANALISTA DO MP ATIVO BARBACENA - COMARCA; BARBACENA-PJ-SECRETARIA 5.307,28 0,00 0,00 0,00 0,00 0,00 5.307,28 690,80 712,26 0,00 1.403,06 3.904,22 726,01 1.134,86 30/06/2015
650 298300 DANUZA MONICA DE SOUZA DINIZ ANALISTA DO MP ATIVO DIVINÓPOLIS - COMARCA; DIVINOPOLIS-PJ-02PJ 8.727,00 1.745,40 0,00 5.236,20 0,00 0,00 15.708,60 1.224,62 1.803,27 0,00 3.027,89 12.680,71 1.056,25 690,75 30/06/2015
651 398700 DARCY LUIZ MILEO GREGATTI OFICIAL DO MP ATIVO LAMBARI - COMARCA; LAMBARI-PJ-SECRETARIA 5.658,41 565,84 0,00 2.442,78 0,00 0,00 8.667,03 684,67 654,02 0,00 1.338,69 7.328,34 726,01 0,00 30/06/2015
652 406200 DARIANA AUGUSTA DE TOLEDO PATROCINIO ASSESSOR/OFICIAL ATIVO BELO HORIZONTE - COMARCA; EXTINTA - DIRETORIA DE CONTRATOS E CONVÊNIOS 0,00 845,18 8.451,80 4.648,49 0,00 0,00 13.945,47 663,09 1.504,96 0,00 2.168,05 11.777,42 726,01 0,00 30/06/2015
653 305000 DARLI LEITE DE OLIVEIRA OFICIAL DO MP ATIVO ARAÇUAÍ - COMARCA; ARACUAI-PJ-01PJ 4.977,82 995,56 0,00 2.986,69 0,00 0,00 8.960,07 657,07 436,21 0,00 1.093,28 7.866,79 961,01 0,00 30/06/2015
654 122200 DAVID RIBEIRO DOS SANTOS ANALISTA DO MP ATIVO BORDA DA MATA - COMARCA; BORDA DA MATA-PJ-UNPJ 15.298,25 10.708,79 0,00 13.003,52 0,00 0,00 39.010,56 2.860,77 5.495,86 0,00 8.356,63 30.653,93 4.788,82 372,42 30/06/2015
655 389400 DAWSON CANEDO MARQUES OFICIAL DO MP ATIVO VARGINHA - COMARCA; VARGINHA-PJ-06PJ 6.032,93 603,29 0,00 0,00 0,00 0,00 6.636,22 863,78 1.052,55 0,00 1.916,33 4.719,89 1.569,18 1.272,09 30/06/2015
656 537200 DAYANE TEIXEIRA DE OLIVEIRA CASELLI ANALISTA DO MP ATIVO BONFINÓPOLIS DE MINAS - COMARCA; BONFINOPOLIS DE MINAS-PJ-UNPJ 5.842,66 0,00 0,00 2.921,33 0,00 0,00 8.763,99 642,69 560,63 0,00 1.203,32 7.560,67 726,01 0,00 30/06/2015
657 256100 DAYSE ROSALY PEREIRA BATISTA OFICIAL DO MP ATIVO BELO HORIZONTE - COMARCA; PROCON-MG-SECRETARIA DE FISCALIZACOES 6.032,93 2.381,41 0,00 4.207,17 0,00 0,00 12.621,51 796,35 1.225,59 0,00 2.021,94 10.599,57 726,01 0,00 30/06/2015
658 311901 DEBORA APARECIDA DA SILVA ASSESSOR ATIVO BELO HORIZONTE - COMARCA; BH-23PJ CIVEL-SETOR ATEND PUB 0,00 0,00 2.500,62 1.250,31 833,54 0,00 4.584,47 354,93 172,55 0,00 527,48 4.056,99 726,01 0,00 30/06/2015
659 194301 DEBORA APARECIDA DOS SANTOS ANALISTA DO MP ATIVO UBERLÂNDIA - COMARCA; UBERLANDIA-PJ-SEC FAMILIA 11.276,58 3.382,97 0,00 7.329,78 0,00 0,00 21.989,33 1.612,55 2.666,43 0,00 4.278,98 17.710,35 726,01 0,00 30/06/2015
660 518800 DEBORA CARVALHO FIORATTO OFICIAL DO MP ATIVO BELO HORIZONTE - COMARCA; EXTINTA - DIVISÃO DE APOIO À LICITAÇÃO 4.241,01 254,46 0,00 0,00 0,00 0,00 4.495,47 494,50 264,09 0,00 758,59 3.736,88 1.196,01 0,00 30/06/2015
661 444900 DEBORA CLAUDIA PEREIRA ALVES ANALISTA DO MP ATIVO BELO HORIZONTE - COMARCA; BH-08PJ JUIZADO ESPECIAL-SECRETARIA 7.435,23 743,52 0,00 3.073,35 0,00 0,00 11.252,10 899,66 1.132,39 0,00 2.032,05 9.220,05 961,01 0,00 30/06/2015
662 617700 DEBORA COMANDUCI SCHREIDER ANALISTA DO MP ATIVO BICAS - COMARCA; BICAS-PJ-UNPJ 4.668,87 0,00 0,00 0,00 0,00 0,00 4.668,87 513,58 256,15 0,00 769,73 3.899,14 961,01 0,00 30/06/2015
663 555700 DEBORA CRISTINA BUITRAGO PEREIRA ANALISTA DO MP ATIVO BELO HORIZONTE - COMARCA; EXTINTA - DIRETORIA DE CONTRATOS E CONVÊNIOS 5.307,28 0,00 0,00 2.653,64 0,00 0,00 7.960,92 583,80 429,60 0,00 1.013,40 6.947,52 726,01 0,00 30/06/2015
664 513100 DEBORA CRISTINA PEREIRA DE OLIVEIRA ANALISTA DO MP ATIVO BELO HORIZONTE - COMARCA; BH-23PJ CIVEL-SETOR JURIDICO 6.641,51 398,49 0,00 3.520,00 0,00 0,00 10.560,00 845,36 1.011,57 0,00 1.856,93 8.703,07 961,01 645,09 30/06/2015
665 612100 DEBORA DUARTE SILVA DE SOUZA OFICIAL DO MP ATIVO RIBEIRÃO DAS NEVES - COMARCA; RIBEIRAO DAS NEVES-PJ-06PJ 3.445,03 689,01 0,00 2.067,02 0,00 0,00 6.201,06 454,74 140,22 0,00 594,96 5.606,10 961,01 0,00 30/06/2015
666 539700 DEBORA SALES CARVALHO ANALISTA DO MP ATIVO PATOS DE MINAS - COMARCA; COORD REG PJ DEF EDU DIR CRI ADO AL PAR NOROE 5.842,66 0,00 0,00 0,00 0,00 0,00 5.842,66 642,69 560,63 0,00 1.203,32 4.639,34 726,01 0,00 30/06/2015
667 424100 DEBORA SANTOS E ALVES ANALISTA DO MP ATIVO JANUÁRIA - COMARCA; JANUARIA-PJ-01PJ 8.727,00 872,70 0,00 4.799,85 0,00 0,00 14.399,55 1.122,57 1.628,35 0,00 2.750,92 11.648,63 748,29 607,48 30/06/2015
668 426301 DEBORA SCUCATO MACHADO SOARES OFICIAL DO MP ATIVO NOVA LIMA - COMARCA; NOVA LIMA-PJ-01PJ 3.792,57 379,26 0,00 1.755,40 0,00 0,00 5.927,23 458,90 202,14 0,00 661,04 5.266,19 961,01 0,00 30/06/2015
669 550200 DEBORA TRINDADE LEITE ANALISTA DO MP ATIVO MANHUAÇU - COMARCA; MANHUACU-PJ-05PJ 5.842,66 0,00 0,00 2.921,33 0,00 0,00 8.763,99 760,48 718,42 0,00 1.478,90 7.285,09 726,01 1.070,76 30/06/2015
670 438000 DEBORAH COSTA LAGE ANALISTA DO MP ATIVO BELO HORIZONTE - COMARCA; ASSESS TECNICO-JUR JUNTO AS PROC. DE JUST 8.451,80 845,18 0,00 4.648,49 0,00 0,00 13.945,47 1.022,67 1.406,08 0,00 2.428,75 11.516,72 726,01 0,00 30/06/2015
671 475700 DEBORAH LOBAO LACERDA OFICIAL DO MP ATIVO BELO HORIZONTE - COMARCA; BH-17PJ PATRIMONIO PUBLICO-SECRETARIA 4.241,01 254,46 0,00 2.247,74 0,00 0,00 6.743,21 494,50 264,09 0,00 758,59 5.984,62 726,01 0,00 30/06/2015
672 613700 DEISER MARIA FERREIRA ROSCOE OFICIAL DO MP ATIVO BELO HORIZONTE - COMARCA; DIRETORIA DE PAGAMENTO DE PESSOAL-DPAG 3.445,03 0,00 0,00 1.722,52 0,00 0,00 5.167,55 378,95 105,11 0,00 484,06 4.683,49 726,01 0,00 30/06/2015
673 551900 DEISY ROCHA SILVA FREIRE ANALISTA DO MP ATIVO JOÃO PINHEIRO - COMARCA; JOAO PINHEIRO-PJ-01PJ 5.307,28 0,00 0,00 0,00 0,00 0,00 5.307,28 583,80 429,60 0,00 1.013,40 4.293,88 726,01 0,00 30/06/2015
674 501900 DELI RAQUEL RODRIGUES ANALISTA DO MP ATIVO ITUIUTABA - COMARCA; ITUIUTABA-PJ-04PJ 6.641,51 398,49 0,00 0,00 0,00 0,00 7.040,00 774,40 853,68 0,00 1.628,08 5.411,92 726,01 0,00 30/06/2015
675 378600 DELIANE LOPES VIEIRA BREIJAO NEVES ANALISTA DO MP ATIVO JUIZ DE FORA - COMARCA; JUIZ DE FORA-PJ-12PJ 8.727,00 872,70 0,00 4.799,85 0,00 0,00 14.399,55 1.055,97 1.428,03 0,00 2.484,00 11.915,55 961,01 0,00 30/06/2015
676 522500 DELMINDA MARIA LEAO E SILVA OFICIAL DO MP ATIVO ITAGUARA - COMARCA; ITAGUARA-PJ-UNPJ 3.557,16 2.490,02 0,00 3.023,59 2.015,73 0,00 11.086,50 893,29 1.672,53 0,00 2.565,82 8.520,68 726,01 2.073,60 30/06/2015
677 487700 DENIA FERREIRA MAIA SILVA OFICIAL DO MP ATIVO TRÊS CORACOES - COMARCA; TRES CORACOES-PJ-01PJ 3.916,07 234,96 0,00 1.761,75 0,00 0,00 5.912,78 456,61 170,92 0,00 627,53 5.285,25 726,01 0,00 30/06/2015
678 424800 DENIS APARECIDO CAMPOS DELFINO ANALISTA DO MP ATIVO LUZ - COMARCA; LUZ-PJ-UNPJ 8.185,27 818,53 0,00 4.501,90 0,00 0,00 13.505,70 990,42 1.125,77 0,00 2.116,19 11.389,51 961,01 0,00 30/06/2015
679 381400 DENISE ANGELICA MELLO DE PAULA OFICIAL DO MP ATIVO BELO HORIZONTE - COMARCA; BH-18PJ DIREITOS HUMANOS-SECRETARIA 6.032,93 603,29 0,00 3.318,11 0,00 0,00 9.954,33 863,78 1.108,30 0,00 1.972,08 7.982,25 726,01 1.419,06 30/06/2015
680 196300 DENISE DE ALMEIDA VILELA FURTADO OFICIAL DO MP ATIVO BELO HORIZONTE - COMARCA; CENTRAL DE APOIO TECNICO-SECRETARIA 7.435,23 2.230,57 0,00 0,00 0,00 0,00 9.665,80 1.063,24 1.444,21 0,00 2.507,45 7.158,35 726,01 0,00 30/06/2015
681 336900 DENISE DE SOUSA MORAES SILVA OFICIAL DO MP ATIVO MATEUS LEME - COMARCA; MATEUS LEME-PJ-02PJ 4.977,82 497,78 0,00 2.737,80 0,00 0,00 8.213,40 602,32 470,79 0,00 1.073,11 7.140,29 726,01 0,00 30/06/2015
682 271100 DENISE ELOY PEIXOTO OFICIAL DO MP ATIVO BELO HORIZONTE - COMARCA; DIRET DE DESENV DE RECURSOS HUMANOS-DDRH 7.200,74 1.440,15 0,00 4.320,45 0,00 0,00 12.961,34 950,50 1.245,50 0,00 2.196,00 10.765,34 726,01 0,00 30/06/2015
683 385400 DENISE FREITAS DE ASSIS OFICIAL DO MP ATIVO CARATINGA - COMARCA; CARATINGA-PJ-05PJ 5.307,28 1.705,55 0,00 3.506,42 0,00 0,00 10.519,25 642,18 778,29 0,00 1.420,47 9.098,78 4.788,82 372,42 30/06/2015
684 437100 DENISE NOGUEIRA MAGRI MENDES ANALISTA DO MP ATIVO BELO HORIZONTE - COMARCA; LAB TECNOLOGIA CONTRA LAVAGEM DINHEIRO 8.451,80 1.690,36 0,00 0,00 3.380,72 0,00 13.522,88 1.115,64 2.386,22 0,00 3.501,86 10.021,02 726,01 0,00 30/06/2015
685 524700 DENISE RAMOS GUIMARAES OFICIAL DO MP ATIVO BELO HORIZONTE - COMARCA; BH-07PJ 01 TRIBUNAL JURI-SECRETARIA 3.916,07 234,96 0,00 2.075,52 1.383,68 0,00 7.610,23 456,61 527,12 0,00 983,73 6.626,50 726,01 0,00 30/06/2015
686 239100 DENISE RIBEIRO DOS SANTOS CAETANO OFICIAL DO MP ATIVO ITANHANDU - COMARCA; ITANHANDU-PJ-SECRETARIA 7.435,23 1.487,05 0,00 4.461,14 0,00 0,00 13.383,42 981,45 1.210,09 0,00 2.191,54 11.191,88 726,01 0,00 30/06/2015
687 325500 DENISE ROSA TORRES COORDENADOR/OFICIAL ATIVO BELO HORIZONTE - COMARCA; DIRETORIA DE PESSOAL ADMINISTRATIVO - DPAD 0,00 1.921,48 9.607,41 5.764,45 0,00 0,00 17.293,34 849,04 2.067,60 0,00 2.916,64 14.376,70 726,01 0,00 30/06/2015
688 437200 DENISE VIVIANE DOS SANTOS ANALISTA DO MP ATIVO BELO HORIZONTE - COMARCA; ASSESS TECNICA DA CORREGEDORIA-GERAL DO MP 7.435,23 743,52 0,00 4.089,38 0,00 0,00 12.268,13 899,66 1.080,25 0,00 1.979,91 10.288,22 961,01 0,00 30/06/2015
689 267900 DENISIA DE ALMEIDA SALES OFICIAL DO MP ATIVO BELO HORIZONTE - COMARCA; CAO-CRIMINAL-SECRETARIA 5.139,92 1.027,98 0,00 3.083,95 0,00 0,00 9.251,85 678,47 588,10 0,00 1.266,57 7.985,28 726,01 0,00 30/06/2015
690 480300 DESIREE ARANTES FERREIRA GOUVEA OFICIAL DO MP ATIVO PRATÁPOLIS - COMARCA; PRATAPOLIS-PJ-UNPJ 3.916,07 234,96 0,00 1.747,53 0,00 0,00 5.898,56 456,61 199,36 0,00 655,97 5.242,59 726,01 0,00 30/06/2015
691 355300 DEYSE CRISTINA MORAIS OFICIAL DO MP ATIVO PASSOS - COMARCA; PASSOS-PJ-02PJ 6.032,93 603,29 0,00 3.318,11 0,00 0,00 9.954,33 776,03 857,31 0,00 1.633,34 8.320,99 726,01 418,60 30/06/2015
692 523700 DIANA CAMPOS RESENDE OFICIAL DO MP ATIVO SÃO JOÃO DEL REI - COMARCA; SAO JOAO DEL REI-PJ-04PJ 4.241,01 1.696,40 0,00 2.968,71 0,00 0,00 8.906,12 653,12 479,55 0,00 1.132,67 7.773,45 726,01 0,00 30/06/2015
693 241900 DIANA CARDOSO MARTINS OFICIAL DO MP ATIVO BELO HORIZONTE - COMARCA; CAO-DH APOIO COMUNITARIO-SEC ADM 6.229,29 1.245,86 0,00 3.737,58 0,00 0,00 11.212,73 874,11 1.097,12 0,00 1.971,23 9.241,50 726,01 549,80 30/06/2015
694 410100 DIANA GORDILHO SILVEIRA SENA ANALISTA DO MP ATIVO BELO HORIZONTE - COMARCA; ASSESS TECNICO-JUR JUNTO AS PROC. DE JUST 8.727,00 872,70 0,00 4.799,85 0,00 0,00 14.399,55 1.176,88 1.749,19 0,00 2.926,07 11.473,48 748,29 1.101,22 30/06/2015
695 553000 DIANA MARIA MARQUES ANALISTA DO MP ATIVO BETIM - COMARCA; BETIM-PJ-13PJ 5.307,28 0,00 0,00 2.169,74 0,00 0,00 7.477,02 690,80 660,12 0,00 1.350,92 6.126,10 726,01 1.134,86 30/06/2015
696 520000 DIARLE TOSTE DOS SANTOS ANALISTA DO MP ATIVO RIO POMBA - COMARCA; RIO POMBA-PJ-UNPJ 6.641,51 398,49 0,00 3.520,00 2.346,67 0,00 12.906,67 774,40 1.446,88 0,00 2.221,28 10.685,39 5.023,82 372,42 30/06/2015
697 539800 DIEGO CAMARGOS RODRIGUES OFICIAL DO MP ATIVO CONTAGEM - COMARCA; CONTAGEM-PJ-09PJ 3.445,03 0,00 0,00 1.722,52 0,00 0,00 5.167,55 378,95 105,11 0,00 484,06 4.683,49 726,01 0,00 30/06/2015
698 607300 DIEGO CERVEIRA DE SOUZA ANALISTA DO MP ATIVO PATOS DE MINAS - COMARCA; COORD REG BACIAS PARACATU,URUCUIA E ABAETE 5.307,28 0,00 0,00 2.653,64 0,00 0,00 7.960,92 583,80 429,60 0,00 1.013,40 6.947,52 726,01 0,00 30/06/2015
699 446900 DIEGO DE FREITAS OFICIAL DO MP ATIVO UBERABA - COMARCA; UBERABA-PJ-06PJ 4.379,06 437,91 0,00 2.408,49 0,00 0,00 7.225,46 570,46 402,37 0,00 972,83 6.252,63 947,43 385,64 30/06/2015
700 379801 DIEGO OSORIO DA SILVA CORDEIRO ANALISTA DO MP ATIVO CONSELHEIRO LAFAIETE - COMARCA; CONSELHEIRO LAFAIETE-PJ-08PJ 5.842,66 0,00 0,00 2.921,33 0,00 0,00 8.763,99 760,48 871,78 0,00 1.632,26 7.131,73 726,01 1.249,22 30/06/2015
701 288800 DILENE NEPOMUCENO ALVES OFICIAL DO MP ATIVO BELO HORIZONTE - COMARCA; DIRETORIA DE PESSOAL ADMINISTRATIVO - DPAD 6.973,67 1.394,73 0,00 3.134,53 0,00 0,00 11.502,93 920,52 1.178,81 0,00 2.099,33 9.403,60 726,01 0,00 30/06/2015
702 270101 DILSON DO AMARAL ANALISTA DO MP ATIVO RIO CASCA - COMARCA; RIO CASCA-PJ-UNPJ 5.842,66 0,00 0,00 2.921,33 0,00 0,00 8.763,99 642,69 560,63 0,00 1.203,32 7.560,67 726,01 0,00 30/06/2015
703 466000 DIMITRI GUDE MARCIAL ANALISTA DO MP ATIVO NANUQUE - COMARCA; NANUQUE-PJ-02PJ 6.641,51 398,49 0,00 3.520,00 0,00 0,00 10.560,00 774,40 801,54 0,00 1.575,94 8.984,06 5.113,42 372,42 30/06/2015
704 516300 DINORA APARECIDA MACEDO BRANDAO ANALISTA DO MP ATIVO BELO HORIZONTE - COMARCA; ASSESS JUR DO CONS SUPERIOR DO MINISTERIO PUB 5.480,05 328,80 0,00 2.904,43 0,00 0,00 8.713,28 638,97 552,36 0,00 1.191,33 7.521,95 726,01 0,00 30/06/2015
705 511700 DIOGENES HENRIQUES PEREIRA LOURENCO ANALISTA DO MP ATIVO CONTAGEM - COMARCA; CONTAGEM-PJ-22PJ 6.641,51 398,49 0,00 3.520,00 0,00 0,00 10.560,00 774,40 853,68 0,00 1.628,08 8.931,92 4.788,82 372,42 30/06/2015
706 604100 DIOGO CESAR DE OLIVEIRA HONORIO ASSESSOR ATIVO PIUMHI - COMARCA; PIUMHI-PJ-02PJ 0,00 0,00 2.500,62 0,00 0,00 0,00 2.500,62 354,93 75,96 0,00 430,89 2.069,73 726,01 0,00 30/06/2015
707 387800 DIOGO FELIX DA SILVA OFICIAL DO MP ATIVO CONSELHEIRO PENA - COMARCA; CONSELHEIRO PENA-PJ-01PJ 4.521,68 452,17 0,00 0,00 0,00 0,00 4.973,85 547,12 359,88 0,00 907,00 4.066,85 726,01 0,00 30/06/2015
708 259600 DIOGO MESQUITA MAIA ANALISTA DO MP ATIVO BELO HORIZONTE - COMARCA; DIRET DE APOIO AS PROCURADORIAS DE JUSTICA 10.576,63 7.403,64 0,00 8.990,14 0,00 0,00 26.970,41 2.102,54 3.756,49 0,00 5.859,03 21.111,38 5.590,69 1.747,10 30/06/2015
709 364100 DIOGO OLIVEIRA CANUTO OFICIAL DO MP ATIVO BELO HORIZONTE - COMARCA; EXTINTA-04ª PJ JUÍZO REG PÚBLICOS-SECRETARIA 6.032,93 603,29 0,00 2.575,69 0,00 0,00 9.211,91 729,98 754,86 0,00 1.484,84 7.727,07 726,01 0,00 30/06/2015
710 386700 DIRCIMAR FERNANDES CARNEIRO OFICIAL DO MP ATIVO VISCONDE DO RIO BRANCO - COMARCA; VISCONDE DO RIO BRANCO-PJ-03PJ 5.480,05 2.740,03 0,00 4.110,04 0,00 0,00 12.330,12 1.059,22 1.487,41 0,00 2.546,63 9.783,49 768,51 1.409,20 30/06/2015
711 113800 DIRSON APARECIDO GUIMARAES ASSESSOR ATIVO BELO HORIZONTE - COMARCA; DIVISAO DE MANUTENCAO PREDIAL 0,00 3.340,14 4.175,17 3.757,66 0,00 0,00 11.272,97 513,01 765,38 0,00 1.278,39 9.994,58 726,01 0,00 30/06/2015
712 216700 DOMICIO VALDETE PEREIRA OFICIAL DO MP ATIVO TEÓFILO OTONI - COMARCA; COORD REG PJ DEF EDU DIR CRIAN ADOL JEQUI MUC 9.011,08 2.703,32 0,00 5.857,20 0,00 0,00 17.571,60 1.288,58 1.841,33 0,00 3.129,91 14.441,69 726,01 0,00 30/06/2015
713 85700 DONIZETTE PEREIRA DOS SANTOS OFICIAL DO MP ATIVO BELO HORIZONTE - COMARCA; EXTINTA - PROTOCOLO DA PGJ 17.188,14 13.750,51 0,00 15.235,56 0,00 0,00 46.174,21 3.351,82 6.484,17 467,54 10.303,53 35.870,68 4.788,82 372,43 30/06/2015
714 192701 DONIZETTI APARECIDO AMORIM ANALISTA DO MP ATIVO PRATÁPOLIS - COMARCA; PRATAPOLIS-PJ-UNPJ 6.032,93 1.809,88 0,00 3.921,41 0,00 0,00 11.764,22 862,71 998,03 0,00 1.860,74 9.903,48 726,01 0,00 30/06/2015
715 558700 DORCILIA FATIMA DE OLIVEIRA OFICIAL DO MP ATIVO DIVINÓPOLIS - COMARCA; DIVINOPOLIS-PJ-02PJ 3.445,03 0,00 0,00 1.722,52 0,00 0,00 5.167,55 378,95 76,67 0,00 455,62 4.711,93 726,01 0,00 30/06/2015
716 555300 DOUGLAS CUNHA DE SOUZA ANALISTA DO MP ATIVO VARZEA DA PALMA - COMARCA; VARZEA DA PALMA-PJ-01PJ 5.307,28 0,00 0,00 0,00 0,00 0,00 5.307,28 583,80 429,60 0,00 1.013,40 4.293,88 726,01 0,00 30/06/2015
717 265900 DOUGLAS GOMES MOREIRA ANALISTA DO MP ATIVO BELO HORIZONTE - COMARCA; CENTRAL DE APOIO TECNICO-SETOR DE ENGENHARIA 11.643,70 2.328,74 0,00 6.986,22 0,00 0,00 20.958,66 1.633,89 2.806,42 0,00 4.440,31 16.518,35 726,01 1.027,93 30/06/2015
718 241000 DOUGLAS MEIRELLES DE CASTRO OFICIAL DO MP ATIVO CONCEIÇÃO DO RIO VERDE - COMARCA; CONCEICAO DO RIO VERDE-PJ-UNPJ 7.677,29 2.303,19 0,00 4.990,24 0,00 0,00 14.970,72 1.097,85 1.469,09 0,00 2.566,94 12.403,78 961,01 0,00 30/06/2015
719 534900 DOUGLAS SILVA E SOUZA ANALISTA DO MP ATIVO CAMPOS GERAIS - COMARCA; CAMPOS GERAIS-PJ-SECRETARIA 5.842,66 0,00 0,00 2.921,33 0,00 0,00 8.763,99 642,69 508,49 0,00 1.151,18 7.612,81 4.788,82 372,42 30/06/2015
720 630700 DOUGLAS TAVEIRA LEMOS DE OLIVEIRA ANALISTA DO MP ATIVO BELO HORIZONTE - COMARCA; BH-18PJ VIOLENCIA DOMESTICA 5.139,92 0,00 0,00 2.569,96 0,00 0,00 7.709,88 565,39 393,14 0,00 958,53 6.751,35 726,01 0,00 30/06/2015
721 615600 DOUGLAS URIEL SOARES MOREIRA SILVA ANALISTA DO MP ATIVO IPATINGA - COMARCA; IPATINGA-PJ-01PJ 4.668,87 0,00 0,00 2.334,44 0,00 0,00 7.003,31 513,58 298,81 0,00 812,39 6.190,92 726,01 0,00 30/06/2015
722 638900 DOUGLAS WALLAS CONCEICAO NEVES OFICIAL DO MP ATIVO RIBEIRÃO DAS NEVES - COMARCA; RIBEIRAO DAS NEVES-PJ-SEC CIVEL 3.030,62 0,00 0,00 0,00 0,00 0,00 3.030,62 400,04 130,71 0,00 530,75 2.499,87 924,01 606,12 30/06/2015
723 146800 DUCINALVA AMARAL LOPES REIS OFICIAL DO MP ATIVO PARAISÓPOLIS - COMARCA; PARAISOPOLIS-PJ-UNPJ 11.276,58 5.638,29 0,00 8.457,44 0,00 0,00 25.372,31 1.860,64 3.166,28 0,00 5.026,92 20.345,39 961,01 0,00 30/06/2015
724 122500 DUILIO CARLOS FERREIRA UTSCH OFICIAL DO MP ATIVO CONCEIÇÃO DO MATO DENTRO - COMARCA; CONCEICAO DO MATO DENTRO-PJ-UNPJ 9.011,08 6.307,75 0,00 5.376,92 0,00 0,00 20.695,75 1.685,07 2.879,92 0,00 4.564,99 16.130,76 726,01 0,00 30/06/2015
725 201800 DULCINEIA ANDRE DE SOUZA OFICIAL DO MP ATIVO JEQUITINHONHA - COMARCA; JEQUITINHONHA-PJ-SECRETARIA 9.011,08 2.703,32 0,00 5.857,20 0,00 0,00 17.571,60 1.288,58 1.789,19 0,00 3.077,77 14.493,83 726,01 0,00 30/06/2015
726 395800 DUVIDIER MEDIRCIO JUNIOR ANALISTA DO MP ATIVO BELO HORIZONTE - COMARCA; CENTRAL DE APOIO TECNICO-SETOR DE ENGENHARIA 9.607,41 960,74 0,00 5.284,08 0,00 0,00 15.852,23 1.235,81 1.880,33 0,00 3.116,14 12.736,09 726,01 666,52 30/06/2015
727 604800 ECIA RAMILIS ISSA DE ABREU ANALISTA DO MP ATIVO MONTALVÂNIA - COMARCA; MONTALVANIA-PJ-UNPJ 4.820,91 0,00 0,00 0,00 0,00 0,00 4.820,91 530,30 329,26 0,00 859,56 3.961,35 726,01 0,00 30/06/2015
728 273000 EDELFINA APARECIDA GUIMARAES OFICIAL DO MP ATIVO BELO HORIZONTE - COMARCA; PROMOT ESTADUAL DE DEF PATRI CULT E TUR DE MG 6.432,09 3.216,05 0,00 0,00 0,00 0,00 9.648,14 1.128,22 1.588,79 0,00 2.717,01 6.931,13 729,78 608,75 30/06/2015
729 523300 EDER DOS SANTOS PATRICIO ANALISTA DO MP ATIVO NOVA SERRANA - COMARCA; NOVA SERRANA-PJ-03PJ 6.641,51 398,49 0,00 3.520,00 0,00 0,00 10.560,00 774,40 853,68 0,00 1.628,08 8.931,92 726,01 0,00 30/06/2015
730 356700 EDER JOSE PACHECO OFICIAL DO MP ATIVO CAMPO BELO - COMARCA; CAMPO BELO-PJ-SECRETARIA 6.229,29 622,93 0,00 2.645,38 0,00 0,00 9.497,60 753,74 807,72 0,00 1.561,46 7.936,14 900,73 0,00 30/06/2015
731 507900 EDERSON SILVA LOPES OFICIAL DO MP ATIVO BELO HORIZONTE - COMARCA; SERVICO MEDICO-DEPTO PERIC MEDICA SAUDE OCUP 3.557,16 213,43 0,00 1.885,30 0,00 0,00 5.655,89 414,76 91,70 0,00 506,46 5.149,43 961,01 0,00 30/06/2015
732 296200 EDGARD GOULART MATOSINHO DE LAET JUNIOR ANALISTA DO MP ATIVO GOVERNADOR VALADARES - COMARCA; GOVERNADOR VALADARES-PJ-12PJ 10.576,63 2.115,33 0,00 6.345,98 0,00 0,00 19.037,94 1.484,15 2.276,45 0,00 3.760,60 15.277,34 726,01 800,28 30/06/2015
733 295000 EDILA MARIA DA SILVEIRA OFICIAL DO MP ATIVO FORMIGA - COMARCA; FORMIGA-PJ-SECRETARIA 5.480,05 1.096,01 0,00 2.556,27 0,00 0,00 9.132,33 723,37 740,13 0,00 1.463,50 7.668,83 726,01 0,00 30/06/2015
734 332300 EDILA MARILAC MIRANDA PRADO OFICIAL DO MP ATIVO DIAMANTINA - COMARCA; COORD REG BACIAS RIOS JEQUITINHONHA E MUCURI 6.032,93 2.413,17 0,00 4.223,05 0,00 0,00 12.669,15 929,07 1.093,55 0,00 2.022,62 10.646,53 726,01 0,00 30/06/2015
735 376600 EDILANE CONSOLACAO ROSA NAZARETH ANALISTA DO MP ATIVO BETIM - COMARCA; BETIM-PJ-10PJ 8.727,00 872,70 0,00 3.531,77 0,00 0,00 13.131,47 1.055,97 1.480,17 0,00 2.536,14 10.595,33 726,01 0,00 30/06/2015
736 301500 EDILENE APARECIDA DE CARVALHO ANALISTA DO MP ATIVO BELO HORIZONTE - COMARCA; DIRETORIA DE ADMINISTRACAO FINANCEIRA 10.576,63 2.115,33 0,00 6.345,98 0,00 0,00 19.037,94 1.484,15 2.380,73 0,00 3.864,88 15.173,06 878,06 814,22 30/06/2015
737 309800 EDILZA DOS REIS OFICIAL DO MP ATIVO UBERLÂNDIA - COMARCA; UBERLANDIA-PJ-03PJ 6.857,79 1.371,56 0,00 4.114,68 0,00 0,00 12.344,03 905,23 1.092,64 0,00 1.997,87 10.346,16 726,01 0,00 30/06/2015
738 200500 EDINEIA MARIA DE OLIVEIRA ANTUNES OFICIAL DO MP ATIVO MONTES CLAROS - COMARCA; MONTES CLAROS-PJ-10PJ 9.920,24 2.976,07 0,00 6.448,16 0,00 0,00 19.344,47 1.678,61 2.865,56 0,00 4.544,17 14.800,30 1.273,98 2.392,51 30/06/2015
739 427700 EDISANGELA SOARES LOPES OFICIAL DO MP ATIVO PIRAPORA - COMARCA; PIRAPORA-PJ-02PJ 4.521,68 452,17 0,00 0,00 0,00 0,00 4.973,85 547,12 359,88 0,00 907,00 4.066,85 726,01 0,00 30/06/2015
740 555400 EDISON MONTEIRO SAMPAIO NETO ANALISTA DO MP ATIVO BELO HORIZONTE - COMARCA; BH-12PJ JUIZO CRIMINAL-GAB 094PJ 5.307,28 0,00 0,00 2.653,64 1.769,09 0,00 9.730,01 744,30 1.273,21 0,00 2.017,51 7.712,50 726,01 1.459,11 30/06/2015
741 517700 EDMILSON TADEU FERNANDES OFICIAL DO MP ATIVO POUSO ALEGRE - COMARCA; POUSO ALEGRE-PJ-SECRETARIA 4.241,01 254,46 0,00 2.247,74 0,00 0,00 6.743,21 494,50 264,09 0,00 758,59 5.984,62 726,01 0,00 30/06/2015
742 358400 EDNA APARECIDA SILVA FERREIRA OFICIAL DO MP ATIVO CORONEL FABRICIANO - COMARCA; CORONEL FABRICIANO-PJ-SECRETARIA 6.032,93 603,29 0,00 3.318,11 0,00 0,00 9.954,33 729,98 754,86 0,00 1.484,84 8.469,49 726,01 0,00 30/06/2015
743 331800 EDNA MARCIA CAMILO DA SILVA OFICIAL DO MP ATIVO SETE LAGOAS - COMARCA; SETE LAGOAS-PJ-07PJ 6.432,09 1.286,42 0,00 3.859,26 0,00 0,00 11.577,77 919,79 1.177,17 0,00 2.096,96 9.480,81 4.788,82 1.015,63 30/06/2015
744 422800 EDNILSON DE SOUZA FERREIRA ASSESSOR ATIVO BELO HORIZONTE - COMARCA; DIRET DE INFORMACAO E EXPEDICAO DE PROCESSOS 0,00 0,00 2.500,62 1.112,77 0,00 0,00 3.613,39 354,93 44,14 0,00 399,07 3.214,32 726,01 0,00 30/06/2015
745 327900 EDRIEL SANTANA PEREIRA OFICIAL DO MP ATIVO TUPACIGUARA - COMARCA; TUPACIGUARA-PJ-UNPJ 6.432,09 1.286,42 0,00 3.859,26 0,00 0,00 11.577,77 919,79 1.177,17 0,00 2.096,96 9.480,81 961,01 643,21 30/06/2015
746 482400 EDSON GARCIA OFICIAL DO MP ATIVO MACHADO - COMARCA; MACHADO-PJ-02PJ 3.916,07 234,96 0,00 2.075,52 0,00 0,00 6.226,55 456,61 142,49 0,00 599,10 5.627,45 726,01 0,00 30/06/2015
747 225601 EDSON LABRE FILHO ANALISTA DO MP ATIVO VARGINHA - COMARCA; VARGINHA-PJ-01PJ 10.576,63 2.115,33 0,00 6.345,98 0,00 0,00 19.037,94 1.484,15 2.380,73 0,00 3.864,88 15.173,06 845,73 811,25 30/06/2015
748 602700 EDSON NOGUEIRA BUENO OFICIAL DO MP ATIVO PITANGUI - COMARCA; PITANGUI-PJ-02PJ 3.129,28 0,00 0,00 0,00 1.043,09 0,00 4.172,37 344,22 225,20 0,00 569,42 3.602,95 726,01 0,00 30/06/2015
749 414400 EDUARDO ABRANTES CAMPOS ANALISTA DO MP ATIVO OLIVEIRA - COMARCA; OLIVEIRA-PJ-02PJ 8.727,00 872,70 0,00 4.799,85 0,00 0,00 14.399,55 1.122,57 1.656,10 0,00 2.778,67 11.620,88 726,01 706,35 30/06/2015
750 476800 EDUARDO ALVES DE MOURA ANALISTA DO MP ATIVO UBERLÂNDIA - COMARCA; UBERLANDIA-PJ-19PJ 7.200,74 432,04 0,00 2.949,33 0,00 0,00 10.582,11 839,61 894,49 0,00 1.734,10 8.848,01 961,01 0,00 30/06/2015
751 390800 EDUARDO AMORIM PETTERSEN OFICIAL DO MP ATIVO CARANGOLA - COMARCA; CARANGOLA-PJ-03PJ 5.307,28 530,73 0,00 2.919,01 0,00 0,00 8.757,02 642,18 559,49 0,00 1.201,67 7.555,35 973,05 0,00 30/06/2015
752 633200 EDUARDO ANTONIO CODO SANTOS ASSESSOR ATIVO BELO HORIZONTE - COMARCA; ASSESSORIA ESPECIAL FINANCEIRA DO PGJAA 0,00 10.038,02 20.076,03 15.057,03 0,00 0,00 45.171,08 1.405,69 7.025,44 0,00 8.431,13 36.739,95 726,01 0,00 30/06/2015
753 461600 EDUARDO ANTONIO DE ASSIS FARIA ASSESSOR ATIVO BELO HORIZONTE - COMARCA; ASSESS EXECUTIVA DO CONSELHO SUPERIOR DO MP 0,00 0,00 4.175,17 0,00 0,00 0,00 4.175,17 513,01 308,55 0,00 821,56 3.353,61 726,01 0,00 30/06/2015
754 248800 EDUARDO DE CASTRO AMORIM ANALISTA DO MP ATIVO BELO HORIZONTE - COMARCA; BH-01PJ FAZENDA PUBLICA EXEC FISCAIS 12.022,83 2.404,57 0,00 7.213,70 0,00 0,00 21.641,10 1.587,01 2.661,75 0,00 4.248,76 17.392,34 726,01 0,00 30/06/2015
755 209100 EDUARDO DE SOUZA MAIA ANALISTA DO MP ATIVO BELO HORIZONTE - COMARCA; CAO-TS-TERCEIRO SETOR-ASSESSORIA JURIDICA 14.155,19 4.246,56 0,00 9.200,88 0,00 0,00 27.602,63 2.024,19 3.478,06 0,00 5.502,25 22.100,38 726,01 0,00 30/06/2015
756 633900 EDUARDO GONCALVES PIRES OFICIAL DO MP ATIVO BELO HORIZONTE - COMARCA; BH-19PJ SAUDE-SECRETARIA 150PJ 3.336,37 667,27 0,00 1.668,18 0,00 0,00 5.671,82 440,40 179,69 0,00 620,09 5.051,73 726,01 0,00 30/06/2015
757 350500 EDUARDO GONCALVES RIBEIRO OFICIAL DO MP ATIVO VESPASIANO - COMARCA; VESPASIANO-PJ-04PJ 4.977,82 497,78 0,00 2.201,24 0,00 0,00 7.676,84 602,32 470,79 0,00 1.073,11 6.603,73 726,01 0,00 30/06/2015
758 115800 EDUARDO HENRIQUE DE CAMPOS MAIA OFICIAL DO MP ATIVO BELO HORIZONTE - COMARCA; EXTINTA - DIVISAO DE SERVICOS GERAIS 10.243,18 4.097,27 0,00 7.170,23 4.780,15 0,00 26.290,83 1.577,45 3.850,73 0,00 5.428,18 20.862,65 726,01 0,00 30/06/2015
759 392600 EDUARDO HENRIQUE DOS SANTOS COSTA ELIAZAR OFICIAL DO MP ATIVO MATOZINHOS - COMARCA; MATOZINHOS-PJ-02PJ 5.307,28 530,73 0,00 0,00 0,00 0,00 5.838,01 682,68 493,20 0,00 1.175,88 4.662,13 1.275,90 371,49 30/06/2015
760 122900 EDUARDO JOSE COSTA SILVA OFICIAL DO MP ATIVO SETE LAGOAS - COMARCA; SETE LAGOAS-PJ-04PJ 13.616,17 9.531,32 0,00 11.573,75 0,00 0,00 34.721,24 2.546,22 4.795,99 0,00 7.342,21 27.379,03 4.788,82 372,42 30/06/2015
761 418700 EDUARDO LEMOS SIMOES OFICIAL DO MP ATIVO LAVRAS - COMARCA; COORD REG DO MA DA BACIA DO RIO GRANDE 5.139,92 513,99 0,00 2.826,96 0,00 0,00 8.480,87 621,93 514,43 0,00 1.136,36 7.344,51 726,01 0,00 30/06/2015
762 407500 EDUARDO MASCARENHAS CURI AZEVEDO ANALISTA DO MP ATIVO BELO HORIZONTE - COMARCA; DIRETORIA DE IMPRENSA 7.435,23 743,52 0,00 4.089,38 0,00 0,00 12.268,13 899,66 1.132,39 0,00 2.032,05 10.236,08 726,01 0,00 30/06/2015
763 601300 EDUARDO TRAD VIEIRA OFICIAL DO MP ATIVO RIBEIRÃO DAS NEVES - COMARCA; RIBEIRAO DAS NEVES-PJ-01PJ 3.129,28 0,00 0,00 0,00 1.043,09 0,00 4.172,37 344,22 225,20 0,00 569,42 3.602,95 961,01 0,00 30/06/2015
764 257600 EDUARDO VALADARES CABRAL ANALISTA DO MP ATIVO BELO HORIZONTE - COMARCA; PROCON-MG-GAB DO COORDENADOR DO PROCON-MG 9.607,41 1.921,48 0,00 0,00 3.842,96 0,00 15.371,85 1.268,18 3.126,22 0,00 4.394,40 10.977,45 726,01 425,72 30/06/2015
765 545700 EDVAIR FERREIRA DE CARVALHO OFICIAL DO MP ATIVO ARAGUARI - COMARCA; ARAGUARI-PJ-06PJ 3.445,03 0,00 0,00 1.722,52 0,00 0,00 5.167,55 378,95 58,72 0,00 437,67 4.729,88 726,01 0,00 30/06/2015
766 401700 EDWANIA AMORIM DO CARMO OFICIAL DO MP ATIVO RIBEIRÃO DAS NEVES - COMARCA; RIBEIRAO DAS NEVES-PJ-03PJ 5.480,05 548,01 0,00 3.014,03 0,00 0,00 9.042,09 663,09 606,01 0,00 1.269,10 7.772,99 726,01 0,00 30/06/2015
767 303600 EFIGENIO SARAIVA LOPES ANALISTA DO MP ATIVO BELO HORIZONTE - COMARCA; DIRETORIA DE PAGAMENTO DE PESSOAL-DPAG 11.643,70 2.328,74 0,00 6.986,22 0,00 0,00 20.958,66 1.633,89 2.702,15 0,00 4.336,04 16.622,62 4.788,82 1.400,35 30/06/2015
768 312000 ELAINE APARECIDA DE ARAUJO RODRIGUES ASSESSOR/OFICIAL ATIVO DIVINÓPOLIS - COMARCA; DIVINOPOLIS-PJ-02PJ 0,00 4.649,05 6.641,51 5.645,28 0,00 1.164,88 18.100,72 1.164,88 2.235,54 0,00 3.400,42 14.700,30 726,01 0,00 30/06/2015
769 286000 ELAINE APARECIDA SILVA BERZOINI OFICIAL DO MP ATIVO JUIZ DE FORA - COMARCA; JUIZ DE FORA-PJ-07PJ 6.973,67 1.394,73 0,00 4.184,20 0,00 0,00 12.552,60 920,52 1.178,81 0,00 2.099,33 10.453,27 726,01 0,00 30/06/2015
770 509000 ELAINE CANDIDA PONTES OFICIAL DO MP ATIVO BELO HORIZONTE - COMARCA; BH-02PJ FAMILIA-SECRETARIA 3.916,07 234,96 0,00 2.075,52 0,00 0,00 6.226,55 456,61 199,36 0,00 655,97 5.570,58 726,01 0,00 30/06/2015
771 283601 ELAINE CRISTINA MEQUELINO DUARTE ANALISTA DO MP ATIVO ALFENAS - COMARCA; ALFENAS-PJ-04PJ 8.727,00 872,70 0,00 4.799,85 0,00 0,00 14.399,55 1.055,97 1.375,89 0,00 2.431,86 11.967,69 1.196,01 0,00 30/06/2015
772 535500 ELAINE DE OLIVEIRA CAMPOS REIS OFICIAL DO MP ATIVO RIBEIRÃO DAS NEVES - COMARCA; RIBEIRAO DAS NEVES-PJ-11PJ 3.445,03 0,00 0,00 0,00 1.148,34 0,00 4.593,37 378,95 312,11 0,00 691,06 3.902,31 961,01 0,00 30/06/2015
773 455700 ELAINE DE OLIVEIRA CASTRO ANALISTA DO MP ATIVO POMPÉU - COMARCA; POMPEU-PJ-UNPJ 6.641,51 398,49 0,00 3.520,00 0,00 0,00 10.560,00 774,40 801,54 0,00 1.575,94 8.984,06 726,01 0,00 30/06/2015
774 367200 ELAINE MUNIZ BARBOSA ANALISTA DO MP ATIVO BELO HORIZONTE - COMARCA; DIRETORIA DE SISTEMAS DE INFORMACAO 9.920,24 992,02 0,00 5.456,13 0,00 0,00 16.368,39 1.420,37 2.290,95 0,00 3.711,32 12.657,07 726,01 2.000,16 30/06/2015
775 176900 ELAINE RIBEIRO TAVEIRA OFICIAL DO MP ATIVO BELO HORIZONTE - COMARCA; DIRETORIA DE PESSOAL ADMINISTRATIVO - DPAD 8.185,27 2.455,58 0,00 5.320,43 0,00 0,00 15.961,28 1.244,30 1.899,21 0,00 3.143,51 12.817,77 781,16 676,04 30/06/2015
776 496200 ELAINE SABRINA DIAS MOREIRA ANALISTA DO MP ATIVO CORONEL FABRICIANO - COMARCA; CORONEL FABRICIANO-PJ-03PJ 6.641,51 398,49 0,00 3.520,00 0,00 0,00 10.560,00 774,40 853,68 0,00 1.628,08 8.931,92 726,01 0,00 30/06/2015
777 489200 ELAINE VICENTINO GARCIA ANALISTA DO MP ATIVO BELO HORIZONTE - COMARCA; CENTRAL DE APOIO TECNICO-SETOR CONTABIL 6.641,51 1.328,30 0,00 3.984,91 0,00 0,00 11.954,72 876,68 976,98 0,00 1.853,66 10.101,06 1.196,01 0,00 30/06/2015
778 244500 ELCI ALVES DE SOUZA ASSESSOR ATIVO BELO HORIZONTE - COMARCA; CAO-CONFLITOS AGRARIOS-SECRETARIA 0,00 835,03 4.175,17 2.505,10 0,00 0,00 7.515,30 513,01 514,88 0,00 1.027,89 6.487,41 726,01 0,00 30/06/2015
779 472500 ELCI VAZ DE OLIVEIRA FILHO ANALISTA DO MP ATIVO PIUMHI - COMARCA; PIUMHI-PJ-02PJ 7.200,74 2.880,30 0,00 5.040,52 3.360,35 0,00 18.481,91 1.108,91 2.522,07 0,00 3.630,98 14.850,93 726,01 0,00 30/06/2015
780 385200 ELCI VIANA REIS OFICIAL DO MP ATIVO RIO PARDO DE MINAS - COMARCA; RIO PARDO DE MINAS-PJ-SECRETARIA 6.032,93 1.809,88 0,00 3.921,41 0,00 0,00 11.764,22 1.020,83 1.402,00 0,00 2.422,83 9.341,39 1.525,39 1.503,38 30/06/2015
781 289801 ELCIO JOSE DOS SANTOS ASSESSOR/ANALISTA ATIVO BELO HORIZONTE - COMARCA; EXTINTA - DIVISAO DE SERVICOS GERAIS 0,00 930,45 9.304,45 5.117,45 0,00 0,00 15.352,35 899,66 1.942,33 0,00 2.841,99 12.510,36 726,01 889,10 30/06/2015
782 123000 ELCIO VILHENA DE FARIA OFICIAL DO MP ATIVO BELO HORIZONTE - COMARCA; DIVISAO DE MEMORIA INSTITUCIONAL 13.616,17 10.892,94 0,00 12.254,56 0,00 2.696,00 39.459,67 2.696,00 5.870,65 0,00 8.566,65 30.893,02 726,01 0,00 30/06/2015
783 503200 ELDER GOMES DUTRA ANALISTA DO MP ATIVO IGARAPÉ - COMARCA; IGARAPE-PJ-01PJ 6.641,51 398,49 0,00 3.520,00 0,00 0,00 10.560,00 774,40 853,68 0,00 1.628,08 8.931,92 726,01 0,00 30/06/2015
784 319600 ELEN TULER DE ALBERGARIA ANALISTA DO MP ATIVO BELO HORIZONTE - COMARCA; BH-19PJ SAUDE 9.011,08 2.703,32 0,00 5.857,20 0,00 0,00 17.571,60 1.288,58 1.997,74 0,00 3.286,32 14.285,28 1.196,01 0,00 30/06/2015
785 333100 ELENILDA ROCHA DE MORAES MELO OFICIAL DO MP ATIVO MAR DE ESPANHA - COMARCA; MAR DE ESPANHA-PJ-SECRETARIA 4.977,82 995,56 0,00 2.986,69 0,00 0,00 8.960,07 711,83 662,32 0,00 1.374,15 7.585,92 726,01 497,78 30/06/2015
786 151000 ELI LOURENCO RIBEIRO AGENTE DO MP ATIVO BELO HORIZONTE - COMARCA; BH-17PJ PATRIMONIO PUBLICO-SECRETARIA 7.677,29 3.070,92 0,00 5.374,11 0,00 0,00 16.122,32 1.256,86 1.473,84 0,00 2.730,70 13.391,62 1.064,90 708,82 30/06/2015
787 205500 ELIANA ALVES DE SOUSA OFICIAL DO MP ATIVO GOVERNADOR VALADARES - COMARCA; GOVERNADOR VALADARES-PJ-07PJ 6.432,09 1.929,63 0,00 4.180,86 2.787,24 0,00 15.329,82 977,79 2.072,71 0,00 3.050,50 12.279,32 726,01 527,28 30/06/2015
788 628800 ELIANA APARECIDA PEREIRA ANALISTA DO MP ATIVO CAMBUÍ - COMARCA; CAMBUI-PJ-02PJ 4.668,87 0,00 0,00 0,00 0,00 0,00 4.668,87 513,58 298,81 0,00 812,39 3.856,48 726,01 0,00 30/06/2015
789 301700 ELIANA DA SILVEIRA ANALISTA DO MP ATIVO BELO HORIZONTE - COMARCA; ASSESS TECNICO-JUR JUNTO AS PROC. DE JUST 9.920,24 1.984,05 0,00 5.952,15 0,00 0,00 17.856,44 1.309,47 2.044,22 0,00 3.353,69 14.502,75 726,01 0,00 30/06/2015
790 103400 ELIANA DE FARIA MORAIS JOTTA OFICIAL DO MP ATIVO BELO HORIZONTE - COMARCA; DIRET DE PESSOAL DO MINISTERIO PUBLICO - DPMP 20.076,03 10.038,01 0,00 15.057,02 0,00 0,00 45.171,06 3.312,54 6.344,64 0,00 9.657,18 35.513,88 4.788,82 372,42 30/06/2015
791 251500 ELIANA DE LIMA MILAGRES FONSECA ANALISTA DO MP ATIVO CONTAGEM - COMARCA; CONTAGEM-PJ-06PJ 9.920,24 1.984,05 0,00 5.952,15 0,00 0,00 17.856,44 1.309,47 1.939,94 0,00 3.249,41 14.607,03 726,01 0,00 30/06/2015
792 503900 ELIANA DIAS DUTRA FERREIRA OFICIAL DO MP ATIVO GOVERNADOR VALADARES - COMARCA; GOVERNADOR VALADARES-PJ-10PJ 4.241,01 254,46 0,00 2.247,74 0,00 0,00 6.743,21 494,50 188,47 0,00 682,97 6.060,24 0,00 0,00 30/06/2015
793 413900 ELIANA PINTO DE OLIVEIRA NEVES ANALISTA DO MP ATIVO CAMPO BELO - COMARCA; CAMPO BELO-PJ-03PJ 8.185,27 818,53 0,00 4.501,90 0,00 0,00 13.505,70 990,42 1.334,32 0,00 2.324,74 11.180,96 726,01 0,00 30/06/2015
794 228200 ELIANA RODRIGUES DA CUNHA PINHEIRO DIRETOR/OFICIAL ATIVO BELO HORIZONTE - COMARCA; SUPERINTENDÊNCIA DE ENGENHARIA E ARQUITETURA 0,00 2.831,04 14.155,19 0,00 0,00 1.013,40 17.999,63 1.013,40 3.801,85 0,00 4.815,25 13.184,38 729,69 0,34 30/06/2015
795 386600 ELIANA SABINO CHAVES ANALISTA DO MP ATIVO CARATINGA - COMARCA; CARATINGA-PJ-06PJ 8.727,00 4.363,50 0,00 6.545,25 0,00 0,00 19.635,75 1.530,77 2.522,31 0,00 4.053,08 15.582,67 4.921,11 1.347,75 30/06/2015
796 297400 ELIANE AUGUSTA RIBEIRO COSTA ANALISTA DO MP ATIVO CONSELHEIRO LAFAIETE - COMARCA; CONSELHEIRO LAFAIETE-PJ-05PJ 10.576,63 2.115,33 0,00 6.345,98 0,00 0,00 19.037,94 1.396,12 2.080,58 0,00 3.476,70 15.561,24 741,99 1,46 30/06/2015
797 510600 ELIANE CAROLINA MAIA ANALISTA DO MP ATIVO IGARAPÉ - COMARCA; IGARAPE-PJ-02PJ 6.032,93 361,98 0,00 3.197,46 0,00 0,00 9.592,37 703,44 487,25 0,00 1.190,69 8.401,68 1.196,01 0,00 30/06/2015
798 269300 ELIANE EDLAMAR ROCHA OFICIAL DO MP ATIVO PEDRO LEOPOLDO - COMARCA; PEDRO LEOPOLDO-PJ-02PJ 7.200,74 1.440,15 0,00 4.320,45 0,00 0,00 12.961,34 1.098,14 1.521,85 0,00 2.619,99 10.341,35 961,01 1.342,16 30/06/2015
799 359100 ELIANE FARIAS DE OLIVEIRA ASSESSOR ATIVO BELO HORIZONTE - COMARCA; EXTINTA-TUTELA DAS FUNDACOES-21 PJ- GABINETE 0,00 0,00 2.500,62 1.250,31 833,54 0,00 4.584,47 354,93 200,99 0,00 555,92 4.028,55 726,01 0,00 30/06/2015
800 262600 ELIANE FERREIRA SOARES ASSESSOR ATIVO BELO HORIZONTE - COMARCA; BH-18PJ DIREITOS HUMANOS-SECRETARIA 0,00 1.252,55 4.175,17 2.242,32 1.809,24 0,00 9.479,28 513,01 1.127,24 0,00 1.640,25 7.839,03 961,01 0,00 30/06/2015
801 204400 ELIANE GLAUCE DE QUEIROS MAIA OFICIAL DO MP ATIVO GUANHÃES - COMARCA; GUANHAES-PJ-01PJ 9.011,08 2.703,32 0,00 5.857,20 0,00 0,00 17.571,60 1.288,58 1.997,74 0,00 3.286,32 14.285,28 1.196,01 0,00 30/06/2015
802 91800 ELIANE KAPLER COORDENADOR/OFICIAL ATIVO BELO HORIZONTE - COMARCA; DIRET DE CONTROLE E DE MANUTENCAO DE IMOVEIS 12.598,78 7.442,13 0,00 7.048,32 0,00 0,00 27.089,23 1.940,21 4.004,06 0,00 5.944,27 21.144,96 5.258,82 372,42 30/06/2015
803 334200 ELIANE MARCIA DE OLIVEIRA BRITO OFICIAL DO MP ATIVO BELO HORIZONTE - COMARCA; BH-08PJ JUIZADO ESPECIAL-SECRETARIA 4.977,82 995,56 0,00 2.361,83 0,00 0,00 8.335,21 711,83 714,46 0,00 1.426,29 6.908,92 726,01 497,78 30/06/2015
804 365900 ELIANE MARIA DE OLIVEIRA FERREIRA OFICIAL DO MP ATIVO SETE LAGOAS - COMARCA; SETE LAGOAS-PJ-11PJ 6.229,29 2.491,72 0,00 4.360,51 0,00 0,00 13.081,52 959,31 1.265,11 0,00 2.224,42 10.857,10 1.077,63 32,23 30/06/2015
805 320600 ELIANE STADLER DE SOUZA OFICIAL DO MP ATIVO FRANCISCO SÁ - COMARCA; FRANCISCO SA-PJ-SECRETARIA 6.229,29 1.245,86 0,00 3.737,58 0,00 0,00 11.212,73 874,11 1.023,39 0,00 1.897,50 9.315,23 726,01 471,26 30/06/2015
806 448900 ELIAS PEREIRA OTONI ASSESSOR ATIVO BELO HORIZONTE - COMARCA; EXTINTA - DIVISAO DE TRANSPORTES 0,00 0,00 4.175,17 1.785,09 0,00 0,00 5.960,26 513,01 265,89 0,00 778,90 5.181,36 726,01 0,00 30/06/2015
807 495400 ELICA SOUZA GASPARONI MATTOS OFICIAL DO MP ATIVO UBÁ - COMARCA; UBA-PJ-SECRETARIA 4.241,01 254,46 0,00 1.868,44 1.498,49 0,00 7.862,40 494,50 642,99 0,00 1.137,49 6.724,91 961,01 0,00 30/06/2015
808 86600 ELIENE FERREIRA DA SILVA OFICIAL DO MP ATIVO BELO HORIZONTE - COMARCA; BH-22PJ PES COM DEF E IDOSOS 17.188,14 8.594,07 0,00 12.891,11 0,00 0,00 38.673,32 2.836,04 5.284,43 0,00 8.120,47 30.552,85 5.258,82 372,42 30/06/2015
809 183800 ELIENE MARIA CUNHA OFICIAL DO MP ATIVO BELO HORIZONTE - COMARCA; DIRETORIA DE PESSOAL ADMINISTRATIVO - DPAD 9.920,24 2.976,07 0,00 0,00 0,00 0,00 12.896,31 1.418,59 2.234,88 0,00 3.653,47 9.242,84 726,01 0,00 30/06/2015
810 172300 ELINA APARECIDA SILVA ASSESSOR ATIVO BELO HORIZONTE - COMARCA; BH-19PJ SAUDE-SECRETARIA 130PJ 0,00 750,19 2.500,62 1.625,41 0,00 0,00 4.876,22 437,45 119,23 0,00 556,68 4.319,54 961,01 0,00 30/06/2015
811 492501 ELINE CAMPOS DA FONSECA CUNHA ANALISTA DO MP ATIVO JEQUERI - COMARCA; JEQUERI-PJ-UNPJ 4.668,87 280,13 0,00 2.024,84 0,00 0,00 6.973,84 544,39 354,91 0,00 899,30 6.074,54 961,01 0,00 30/06/2015
812 618900 ELISA MOURA VIEIRA MARCATTI OFICIAL DO MP ATIVO BELO HORIZONTE - COMARCA; BH-23PJ CIVEL-SEC EXP CIVEIS 3.336,37 0,00 0,00 1.668,19 0,00 0,00 5.004,56 400,63 146,71 0,00 547,34 4.457,22 726,01 407,67 30/06/2015
813 256500 ELISABETE NOGUEIRA ANALISTA DO MP ATIVO RIBEIRÃO DAS NEVES - COMARCA; RIBEIRAO DAS NEVES-PJ-10PJ 9.607,41 3.842,96 0,00 6.725,19 0,00 0,00 20.175,56 1.479,54 2.266,21 0,00 3.745,75 16.429,81 1.196,01 0,00 30/06/2015
814 355000 ELISANGELA DARLANTONI RIBEIRO OFICIAL DO MP ATIVO ARAXÁ - COMARCA; ARAXA-PJ-05PJ 5.658,41 565,84 0,00 3.112,13 0,00 0,00 9.336,38 684,67 601,89 0,00 1.286,56 8.049,82 1.196,01 0,00 30/06/2015
815 604400 ELISANGELA DEMASI FERREIRA MOREIRA ANALISTA DO MP ATIVO CAXAMBU - COMARCA; CAXAMBU-PJ-UNPJ 5.307,28 0,00 0,00 2.653,64 0,00 0,00 7.960,92 583,80 429,60 0,00 1.013,40 6.947,52 961,01 0,00 30/06/2015
816 323800 ELISANGELA GONCALVES DE JESUS OFICIAL DO MP ATIVO BELO HORIZONTE - COMARCA; BH-09PJ AUDITORIA MILITAR-SECRETARIA 5.139,92 1.027,98 0,00 3.083,95 0,00 0,00 9.251,85 678,47 588,10 0,00 1.266,57 7.985,28 961,01 0,00 30/06/2015
817 261400 ELISANGELA MENDES OFICIAL DO MP ATIVO POUSO ALEGRE - COMARCA; POUSO ALEGRE-PJ-05PJ 6.641,51 1.328,30 0,00 3.984,91 0,00 0,00 11.954,72 876,68 1.081,25 0,00 1.957,93 9.996,79 726,01 0,00 30/06/2015
818 507400 ELISANGELA MIGUEL DA ROCHA SILVA ASSESSOR ATIVO BELO HORIZONTE - COMARCA; CGMP-DIVIS DE APOIO FISC ORIENTACAO FUNCIONAL 0,00 0,00 2.500,62 1.250,31 0,00 0,00 3.750,93 354,93 75,96 0,00 430,89 3.320,04 726,01 0,00 30/06/2015
819 534100 ELISANGELA ROSINE SILVA OFICIAL DO MP ATIVO UBERABA - COMARCA; UBERABA-PJ-06PJ 3.445,03 0,00 0,00 1.722,52 0,00 0,00 5.167,55 378,95 105,11 0,00 484,06 4.683,49 726,01 0,00 30/06/2015
820 634300 ELIUDE GRACA DAMASIO ROSARIO FRANCELINO OFICIAL DO MP ATIVO BELO HORIZONTE - COMARCA; EXTINTA-DEF DIREIT HUM-COMB A VIOL DOMEST-18 3.030,62 0,00 0,00 879,26 0,00 0,00 3.909,88 333,37 59,49 0,00 392,86 3.517,02 726,01 0,00 30/06/2015
821 461700 ELIZABETH ALEIXO DA PAZ ANALISTA DO MP ATIVO JUIZ DE FORA - COMARCA; JUIZ DE FORA-PJ-24PJ 7.200,74 432,04 0,00 3.816,39 0,00 0,00 11.449,17 839,61 998,76 0,00 1.838,37 9.610,80 726,01 0,00 30/06/2015
822 227300 ELIZABETH COIMBRA FELIX COORDENADOR/OFICIAL ATIVO BELO HORIZONTE - COMARCA; DIRETORIA DE PAGAMENTO DE PESSOAL-DPAG 8.727,00 4.539,58 0,00 6.633,29 0,00 0,00 19.899,87 1.326,67 2.454,47 0,00 3.781,14 16.118,73 845,07 726,43 30/06/2015
823 354800 ELIZABETH DOS REIS OFICIAL DO MP ATIVO BELO HORIZONTE - COMARCA; EXTINTA - DIVISÃO DE MATERIAL PERMANENTE 6.229,29 622,93 0,00 3.426,11 0,00 0,00 10.278,33 753,74 755,58 0,00 1.509,32 8.769,01 726,01 0,00 30/06/2015
824 612000 ELIZABETH MARIA DE QUEIROZ TANIGUCHI OFICIAL DO MP ATIVO BELO HORIZONTE - COMARCA; DIRET DE DESENV DE RECURSOS HUMANOS-DDRH 3.129,28 0,00 0,00 0,00 0,00 0,00 3.129,28 344,22 66,08 0,00 410,30 2.718,98 726,01 0,00 30/06/2015
825 452800 ELIZANGELA MARIA DAVI OFICIAL DO MP ATIVO ARCOS - COMARCA; ARCOS-PJ-01PJ 3.916,07 234,96 0,00 1.761,75 0,00 0,00 5.912,78 456,61 170,92 0,00 627,53 5.285,25 1.196,01 0,00 30/06/2015
826 496300 ELIZANGELA MARQUES PINTO COELHO OFICIAL DO MP ATIVO BELO HORIZONTE - COMARCA; DIRETORIA DE PESSOAL ADMINISTRATIVO - DPAD 4.241,01 254,46 0,00 2.247,74 0,00 0,00 6.743,21 494,50 264,09 0,00 758,59 5.984,62 961,01 0,00 30/06/2015
827 422500 ELIZETE FORTES DA CUNHA ANALISTA DO MP ATIVO RIBEIRÃO DAS NEVES - COMARCA; RIBEIRAO DAS NEVES-PJ-07PJ 8.451,80 845,18 0,00 4.648,49 0,00 0,00 13.945,47 1.022,67 1.353,94 0,00 2.376,61 11.568,86 961,01 0,00 30/06/2015
828 506100 ELLEM CRISTINA ROCHA FONSECA BOWEN ANALISTA DO MP ATIVO GOVERNADOR VALADARES - COMARCA; COORD REG PJ DEF EDU DIR CRIANCA ADOL RIODOCE 6.641,51 398,49 0,00 0,00 0,00 0,00 7.040,00 774,40 853,68 0,00 1.628,08 5.411,92 1.431,01 0,00 30/06/2015
829 468200 ELLEN CRISTINA BERNARDES DARE ANALISTA DO MP ATIVO TRÊS PONTAS - COMARCA; TRES PONTAS-PJ-02PJ 7.200,74 432,04 0,00 3.816,39 0,00 0,00 11.449,17 839,61 946,62 0,00 1.786,23 9.662,94 961,01 0,00 30/06/2015
830 418800 ELLEN CRISTINA DE QUEIROZ FERREIRA ANALISTA DO MP ATIVO BELO HORIZONTE - COMARCA; CENTRAL DE APOIO TECNICO-SETOR CONTABIL 8.185,27 818,53 0,00 3.339,53 0,00 0,00 12.343,33 990,42 1.334,32 0,00 2.324,74 10.018,59 726,01 0,00 30/06/2015
831 328401 ELLEN CRISTINA FERREIRA MORAIS MONTEIRO ANALISTA DO MP ATIVO CAMANDUCAIA - COMARCA; CAMANDUCAIA-PJ-UNPJ 8.185,27 818,53 0,00 3.391,66 0,00 0,00 12.395,46 990,42 1.230,05 0,00 2.220,47 10.174,99 961,01 0,00 30/06/2015
832 556100 ELLEN CRISTINE BIANCHIN DA SILVA OFICIAL DO MP ATIVO SÃO GONÇALO DO SAPUCAÍ - COMARCA; SAO GONCALO DO SAPUCAI-PJ-02PJ 3.129,28 0,00 0,00 0,00 0,00 0,00 3.129,28 344,22 23,42 0,00 367,64 2.761,64 726,01 0,00 30/06/2015
833 447100 ELLEN ROSANA DE MACEDO BORGES OFICIAL DO MP ATIVO UBERLÂNDIA - COMARCA; UBERLANDIA-PJ-17PJ 5.307,28 530,73 0,00 2.919,01 0,00 0,00 8.757,02 682,68 649,61 0,00 1.332,29 7.424,73 726,01 368,20 30/06/2015
834 477700 ELMA JACOB OFICIAL DO MP ATIVO BELO HORIZONTE - COMARCA; COORD DE GABINETE DO PGJ 4.668,87 2.334,43 0,00 3.501,65 0,00 0,00 10.504,95 770,36 844,70 0,00 1.615,06 8.889,89 726,01 0,00 30/06/2015
835 123300 ELMA PAULA DOS SANTOS COELHO OFICIAL DO MP ATIVO BELO HORIZONTE - COMARCA; BH-19PJ SAUDE-SECRETARIA 130PJ 11.643,70 9.314,96 0,00 10.479,33 0,00 2.450,83 33.888,82 2.450,83 5.257,72 0,00 7.708,55 26.180,27 5.449,64 1.754,64 30/06/2015
836 356500 ELOISA CARDOSO SILVA FRANCA OFICIAL DO MP ATIVO PEÇANHA - COMARCA; PECANHA-PJ-SECRETARIA 4.977,82 497,78 0,00 0,00 0,00 0,00 5.475,60 602,32 332,38 0,00 934,70 4.540,90 726,01 0,00 30/06/2015
837 251901 ELOISA COSTA E SILVA ANALISTA DO MP ATIVO SANTOS DUMONT - COMARCA; SANTOS DUMONT-PJ-02PJ 6.641,51 1.328,30 0,00 3.984,91 2.656,60 0,00 14.611,32 876,68 1.811,82 0,00 2.688,50 11.922,82 726,01 0,00 30/06/2015
838 400400 ELOIZA MARIA FERRI PIRES DA SILVA OFICIAL DO MP ATIVO BELO HORIZONTE - COMARCA; FEPDC-SECRETARIA EXECUTIVA 5.139,92 513,99 0,00 2.826,96 0,00 0,00 8.480,87 621,93 462,30 0,00 1.084,23 7.396,64 4.788,82 372,42 30/06/2015
839 258000 ELSO CECIANO PALMEIRA ASSESSOR/OFICIAL ATIVO BELO HORIZONTE - COMARCA; DIRET DE PESSOAL DO MINISTERIO PUBLICO - DPMP 0,00 4.225,90 8.451,80 6.338,85 0,00 0,00 19.016,55 1.188,12 2.186,00 0,00 3.374,12 15.642,43 726,01 0,00 30/06/2015
840 206900 ELVIRA RITA DOS SANTOS ANALISTA DO MP ATIVO BELO HORIZONTE - COMARCA; CENTRAL DE APOIO TECNICO-SETOR CONTABIL 14.715,61 4.414,68 0,00 9.565,15 0,00 2.104,33 30.799,77 2.104,33 4.391,47 0,00 6.495,80 24.303,97 4.788,82 372,42 30/06/2015
841 506800 ELVIS FERREIRA DA SILVA ANALISTA DO MP ATIVO BELO HORIZONTE - COMARCA; DIRETORIA DE SISTEMAS DE INFORMACAO 6.641,51 398,49 0,00 3.520,00 0,00 0,00 10.560,00 774,40 801,54 0,00 1.575,94 8.984,06 726,01 0,00 30/06/2015
842 602400 ELZA MARIA MOREIRA MUNIZ ANALISTA DO MP ATIVO CARMO DO PARANAÍBA - COMARCA; CARMO DO PARANAIBA-PJ-02PJ 5.307,28 0,00 0,00 2.653,64 1.769,09 0,00 9.730,01 583,80 916,10 0,00 1.499,90 8.230,11 726,01 0,00 30/06/2015
843 368401 ELZIRA SIMOES DOS SANTOS ASSESSOR ATIVO BELO HORIZONTE - COMARCA; DIRETORIA DE RELACOES PUBLICAS E CERIMONIAL 0,00 1.860,89 9.304,45 5.582,67 0,00 0,00 16.748,01 513,01 2.259,68 0,00 2.772,69 13.975,32 3.521,96 256,30 30/06/2015
844 437400 EMANOELLE DA SILVA RODRIGUES OFICIAL DO MP ATIVO UNAÍ - COMARCA; UNAI-PJ-03PJ 5.307,28 530,73 0,00 2.919,01 0,00 0,00 8.757,02 682,68 597,47 0,00 1.280,15 7.476,87 726,01 368,20 30/06/2015
845 458900 EMANUELLE CONRAD SILVA FREDERICO ANALISTA DO MP ATIVO DIVINÓPOLIS - COMARCA; DIVINOPOLIS-PJ-08PJ 7.200,74 432,04 0,00 3.816,39 0,00 0,00 11.449,17 839,61 998,76 0,00 1.838,37 9.610,80 726,01 0,00 30/06/2015
846 284100 EMERSON MAGNO ALMEIDA PEDROSA DA FONSECA ANALISTA DO MP ATIVO BELO HORIZONTE - COMARCA; CENTRAL DE APOIO TECNICO-SETOR CONTABIL 10.576,63 2.115,33 0,00 0,00 0,00 0,00 12.691,96 1.396,12 1.376,76 0,00 2.772,88 9.919,08 726,01 0,00 30/06/2015
847 179900 EMERSON MORAIS DIAS OFICIAL DO MP ATIVO BELO HORIZONTE - COMARCA; EXTINTA - DIVISÃO DE APOIO À LICITAÇÃO 10.243,18 3.072,95 0,00 6.658,07 0,00 0,00 19.974,20 1.557,13 2.595,27 0,00 4.152,40 15.821,80 1.366,18 898,32 30/06/2015
848 488700 EMERSON SIQUEIRA DE SOUSA TEIXEIRA ANALISTA DO MP ATIVO TARUMIRIM - COMARCA; TARUMIRIM-PJ-UNPJ 6.641,51 398,49 0,00 0,00 0,00 0,00 7.040,00 774,40 697,27 0,00 1.471,67 5.568,33 1.196,01 0,00 30/06/2015
849 194200 EMILIA ALVES FERREIRA RAMOS OFICIAL DO MP ATIVO UBERLÂNDIA - COMARCA; UBERLANDIA-PJ-02PJ 5.139,92 1.541,98 0,00 2.642,56 0,00 0,00 9.324,46 735,01 661,76 0,00 1.396,77 7.927,69 726,01 0,00 30/06/2015
850 123400 EMILIO CARLOS MARTINS OFICIAL DO MP ATIVO AREADO - COMARCA; AREADO-PJ-UNPJ 11.643,70 8.150,59 0,00 9.897,15 6.598,10 0,00 36.289,54 2.177,37 5.737,63 0,00 7.915,00 28.374,54 726,01 0,00 30/06/2015
851 549300 EMILIO VIEIRA SILVA ASSESSOR ATIVO BELO HORIZONTE - COMARCA; EXTINTA - DIVISAO DE TRANSPORTES 0,00 0,00 2.500,62 1.250,31 0,00 0,00 3.750,93 354,93 75,96 0,00 430,89 3.320,04 726,01 0,00 30/06/2015
852 620700 EMILY FONTANA DE SIQUEIRA ANALISTA DO MP ATIVO BELO HORIZONTE - COMARCA; BH-18PJ VIOLENCIA DOMESTICA 5.139,92 0,00 0,00 2.090,69 0,00 0,00 7.230,61 565,39 393,14 0,00 958,53 6.272,08 726,01 0,00 30/06/2015
853 297000 ENEIDA SOARES COSTA MELO ANALISTA DO MP ATIVO PIUMHI - COMARCA; PIUMHI-PJ-01PJ 10.576,63 2.115,33 0,00 6.345,98 0,00 0,00 19.037,94 1.396,12 2.770,77 0,00 4.166,89 14.871,05 726,01 1.941,00 30/06/2015
854 276000 ENEZIO RODRIGUES DE SOUZA FILHO OFICIAL DO MP ATIVO UBERLÂNDIA - COMARCA; UBERLANDIA-PJ-SEC FAMILIA 6.641,51 1.328,30 0,00 3.984,91 0,00 0,00 11.954,72 876,68 1.081,25 0,00 1.957,93 9.996,79 726,01 0,00 30/06/2015
855 387700 ENI MARIA DOS REIS OFICIAL DO MP ATIVO POUSO ALEGRE - COMARCA; POUSO ALEGRE-PJ-04PJ 5.480,05 1.722,83 0,00 2.831,41 0,00 0,00 10.034,29 663,09 876,95 0,00 1.540,04 8.494,25 726,01 0,00 30/06/2015
856 605100 ENIA MAIA OFICIAL DO MP ATIVO BELO HORIZONTE - COMARCA; DIRETORIA DE ORCAMENTO-DIOR/SPC 3.445,03 0,00 0,00 1.722,52 0,00 0,00 5.167,55 378,95 105,11 0,00 484,06 4.683,49 726,01 0,00 30/06/2015
857 612200 ENILDO GOMES MEIRA FILHO ANALISTA DO MP ATIVO BUENÓPOLIS - COMARCA; BUENOPOLIS-PJ-UNPJ 4.820,91 0,00 0,00 2.410,46 0,00 0,00 7.231,37 530,30 243,94 0,00 774,24 6.457,13 961,01 0,00 30/06/2015
858 553700 ENIVALDO NOVATO PUBLIO ANALISTA DO MP ATIVO DIVINÓPOLIS - COMARCA; DIVINOPOLIS-PJ-09PJ 4.820,91 0,00 0,00 2.410,46 1.606,97 0,00 8.838,34 530,30 700,34 0,00 1.230,64 7.607,70 726,01 0,00 30/06/2015
859 417300 ERIC BARATTI DA SILVA ANALISTA DO MP ATIVO PRATA - COMARCA; PRATA-PJ-UNPJ 7.435,23 743,52 0,00 0,00 0,00 0,00 8.178,75 899,66 1.132,39 0,00 2.032,05 6.146,70 726,01 0,00 30/06/2015
860 637600 ERIC DA ROCHA CHEHUEN ANALISTA DO MP ATIVO LIMA DUARTE - COMARCA; LIMA DUARTE-PJ-UNPJ 4.668,87 0,00 0,00 1.167,22 0,00 0,00 5.836,09 513,58 298,81 0,00 812,39 5.023,70 726,01 0,00 30/06/2015
861 398900 ERIC TEIXEIRA SILVA OFICIAL DO MP ATIVO UBERLÂNDIA - COMARCA; UBERLANDIA-PJ-08PJ 5.658,41 565,84 0,00 3.112,13 0,00 0,00 9.336,38 810,14 985,49 0,00 1.795,63 7.540,75 726,01 1.330,79 30/06/2015
862 274200 ERICA DE SOUZA ANDRADE OFICIAL DO MP ATIVO CURVELO - COMARCA; CURVELO-PJ-05PJ 6.973,67 1.394,73 0,00 4.184,20 0,00 0,00 12.552,60 1.109,58 1.559,35 0,00 2.668,93 9.883,67 726,01 1.762,45 30/06/2015
863 225700 ERICA GOMES DO COUTO OFICIAL DO MP ATIVO BELO HORIZONTE - COMARCA; CAO-TS-TERCEIRO SETOR-SECRETARIA 8.727,00 1.745,40 0,00 5.236,20 0,00 0,00 15.708,60 1.151,96 1.693,76 0,00 2.845,72 12.862,88 726,01 0,00 30/06/2015
864 632600 ERICA LEONOR MARTINS OFICIAL DO MP ATIVO RESENDE COSTA - COMARCA; RESENDE COSTA-PJ-UNPJ 3.030,62 0,00 0,00 1.262,76 0,00 0,00 4.293,38 333,37 59,49 0,00 392,86 3.900,52 726,01 0,00 30/06/2015
865 524800 ERICA MACHADO DA COSTA E SOUZA ANALISTA DO MP ATIVO BELO HORIZONTE - COMARCA; PROC JUST RECURSOS ESP E EXTRAORD CRIMINAIS 6.641,51 398,49 0,00 3.520,00 0,00 0,00 10.560,00 774,40 853,68 0,00 1.628,08 8.931,92 726,01 0,00 30/06/2015
866 249500 ERICA RODRIGUES ANDRADE OFICIAL DO MP ATIVO SÃO FRANCISCO - COMARCA; SAO FRANCISCO-PJ-02PJ 4.977,82 995,56 0,00 2.986,69 0,00 0,00 8.960,07 657,07 540,49 0,00 1.197,56 7.762,51 961,01 0,00 30/06/2015
867 260800 ERICA VIANA GIARDINI DE OLIVEIRA OFICIAL DO MP ATIVO BELO HORIZONTE - COMARCA; EXTINTA - DIVISÃO DE COMPRAS 6.973,67 1.394,73 0,00 4.184,20 0,00 0,00 12.552,60 920,52 1.178,81 0,00 2.099,33 10.453,27 726,01 0,00 30/06/2015
868 299800 ERICH DOUGLAS RIBEIRO GARCIA ANALISTA DO MP ATIVO BELO HORIZONTE - COMARCA; CENTRAL DE APOIO TECNICO-SETOR CONTABIL 10.576,63 2.115,33 0,00 6.345,98 0,00 0,00 19.037,94 1.484,15 2.432,86 0,00 3.917,01 15.120,93 1.126,15 836,96 30/06/2015
869 365000 ERICK EDUARDO JOSE DA SILVA OFICIAL DO MP ATIVO SANTOS DUMONT - COMARCA; SANTOS DUMONT-PJ-02PJ 4.977,82 497,78 0,00 2.737,80 0,00 0,00 8.213,40 602,32 470,79 0,00 1.073,11 7.140,29 726,01 0,00 30/06/2015
870 123500 ERICO SEGISMUNDO LIMA VILASBOAS ANALISTA DO MP ATIVO MONTES CLAROS - COMARCA; COORD REG PJ DEF EDUC DIR CRIANCA ADOL NORTE 15.298,25 12.238,61 0,00 13.768,43 0,00 3.029,05 44.334,34 3.029,05 6.494,73 0,00 9.523,78 34.810,56 4.788,82 372,42 30/06/2015
871 227400 ERIKA DE LAET GOULART BOECHAT ASSESSOR/OFICIAL ATIVO BELO HORIZONTE - COMARCA; ASSESSORIA ESPECIAL DO PGJ 8.727,00 3.794,04 0,00 6.260,52 0,00 0,00 18.781,56 1.151,96 2.205,00 0,00 3.356,96 15.424,60 961,01 0,00 30/06/2015
872 451800 ERIKA DELLARETTI GUIMARAES OFICIAL DO MP ATIVO LAVRAS - COMARCA; LAVRAS-PJ-SECRETARIA 4.241,01 254,46 0,00 0,00 1.498,49 0,00 5.993,96 494,50 590,85 0,00 1.085,35 4.908,61 726,01 0,00 30/06/2015
873 285100 ERIKA FERREIRA DA SILVA OFICIAL DO MP ATIVO JUIZ DE FORA - COMARCA; JUIZ DE FORA-PJ-14PJ 6.973,67 1.394,73 0,00 4.184,20 0,00 0,00 12.552,60 951,12 1.246,88 0,00 2.198,00 10.354,60 726,01 278,12 30/06/2015
874 420100 ERIKA JEANINE VERSIANI DE CASTRO ANALISTA DO MP ATIVO MONTES CLAROS - COMARCA; COORD REG PJ DEF EDUC DIR CRIANCA ADOL NORTE 8.727,00 872,70 0,00 4.799,85 0,00 0,00 14.399,55 1.122,57 1.576,21 0,00 2.698,78 11.700,77 748,29 607,48 30/06/2015
875 606900 ERIKA MARIA BARBOSA ANALISTA DO MP ATIVO BELO HORIZONTE - COMARCA; CAO-SAUDE 4.820,91 0,00 0,00 2.410,46 1.606,97 0,00 8.838,34 530,30 700,34 0,00 1.230,64 7.607,70 961,01 0,00 30/06/2015
876 491000 ERIKA ROCHA BARRETO ANALISTA DO MP ATIVO BELO HORIZONTE - COMARCA; DIRETORIA DE SISTEMAS DE INFORMACAO 6.641,51 398,49 0,00 3.520,00 0,00 0,00 10.560,00 774,40 853,68 0,00 1.628,08 8.931,92 726,01 0,00 30/06/2015
877 283201 ERIKA STEHLING ASSESSOR/ANALISTA ATIVO BELO HORIZONTE - COMARCA; CENTRAL DE APOIO TECNICO-SETOR DE ENGENHARIA 0,00 507,11 8.451,80 3.453,70 0,00 0,00 12.412,61 774,40 1.277,11 0,00 2.051,51 10.361,10 726,01 0,00 30/06/2015
878 383500 ERIKO RODRIGUES VELOSO ANALISTA DO MP ATIVO BOCAIÚVA - COMARCA; BOCAIUVA-PJ-01PJ 7.200,74 720,07 0,00 3.960,41 2.640,27 0,00 14.521,49 871,29 1.795,33 0,00 2.666,62 11.854,87 726,01 0,00 30/06/2015
879 254000 ERLANDIA DA SILVA MENDES OFICIAL DO MP ATIVO IPATINGA - COMARCA; IPATINGA-PJ-03PJ 7.200,74 2.160,22 0,00 4.680,48 0,00 0,00 14.041,44 1.029,71 1.265,32 0,00 2.295,03 11.746,41 726,01 0,00 30/06/2015
880 208600 ERNANE JOSE DA COSTA ANALISTA DO MP ATIVO BELO HORIZONTE - COMARCA; CENTRAL DE APOIO TECNICO-SETOR MEDICO 14.715,61 10.300,92 0,00 12.508,27 0,00 0,00 37.524,80 3.075,56 6.243,55 0,00 9.319,11 28.205,69 726,01 3.924,16 30/06/2015
881 260600 ERNANI CALDEIRA DE ANDRADE ANALISTA DO MP ATIVO BELO HORIZONTE - COMARCA; CENTRAL DE APOIO TECNICO-SETOR CONTABIL 11.643,70 2.328,74 0,00 6.986,22 0,00 0,00 20.958,66 1.536,97 2.550,39 0,00 4.087,36 16.871,30 726,01 0,00 30/06/2015
882 348500 ERNILANDIA OLIVEIRA DIAS OFICIAL DO MP ATIVO BELO HORIZONTE - COMARCA; EXTINTA - JUIZO DE FAMILIA-02 PJ-02 VARA 5.480,05 548,01 0,00 3.014,03 2.009,35 0,00 11.051,44 663,09 1.158,58 0,00 1.821,67 9.229,77 726,01 0,00 30/06/2015
883 199300 ERTON PORTINARI DE ANDRADE OFICIAL DO MP ATIVO SETE LAGOAS - COMARCA; SETE LAGOAS-PJ-01PJ 9.011,08 2.703,32 0,00 5.857,20 0,00 0,00 17.571,60 1.288,58 1.893,47 0,00 3.182,05 14.389,55 726,01 0,00 30/06/2015
884 430400 ESDRAS SOARES VILAS BOAS RIBEIRO OFICIAL DO MP ATIVO BELO HORIZONTE - COMARCA; BH-17PJ PATRIMONIO PUBLICO-SECRETARIA 5.307,28 530,73 0,00 2.919,01 0,00 0,00 8.757,02 682,68 649,61 0,00 1.332,29 7.424,73 726,01 368,20 30/06/2015
885 618800 ESLY DE CARLA AYALLA BARBOSA MENDES OFICIAL DO MP ATIVO ITABIRITO - COMARCA; ITABIRITO-PJ-01PJ 3.030,62 0,00 0,00 1.515,31 1.010,21 0,00 5.556,14 333,37 201,32 0,00 534,69 5.021,45 961,01 0,00 30/06/2015
886 537000 ESTANISLAU CORREIA ALMEIDA JUNIOR OFICIAL DO MP ATIVO UBERLÂNDIA - COMARCA; UBERLANDIA-PJ-25PJ 3.445,03 0,00 0,00 1.722,52 0,00 0,00 5.167,55 378,95 105,11 0,00 484,06 4.683,49 726,01 0,00 30/06/2015
887 326900 ESTER ALICE PIMENTA OFICIAL DO MP ATIVO BELO HORIZONTE - COMARCA; COORD DE INCLUSAO E MOBILIZACAO SOCIAIS 6.432,09 1.286,42 0,00 3.859,26 0,00 0,00 11.577,77 936,38 1.161,95 0,00 2.098,33 9.479,44 726,01 794,04 30/06/2015
888 503700 ESTHER GONCALVES FONSECA ANALISTA DO MP ATIVO BELO HORIZONTE - COMARCA; DIRETORIA DE PUBLICIDADE INSTITUCIONAL 5.480,05 328,80 0,00 2.904,43 0,00 0,00 8.713,28 638,97 552,36 0,00 1.191,33 7.521,95 726,01 0,00 30/06/2015
889 475600 ETIENE DE FATIMA OLIVEIRA PEREIRA ANALISTA DO MP ATIVO PATROCÍNIO - COMARCA; PATROCINIO-PJ-04PJ 7.200,74 432,04 0,00 3.816,39 0,00 0,00 11.449,17 839,61 894,49 0,00 1.734,10 9.715,07 961,01 0,00 30/06/2015
890 428800 EUGENIA RODRIGUES TRAJANO BORGES ANALISTA DO MP ATIVO UBERABA - COMARCA; UBERABA-PJ-08PJ 8.185,27 818,53 0,00 4.501,90 0,00 0,00 13.505,70 990,42 1.334,32 0,00 2.324,74 11.180,96 726,01 0,00 30/06/2015
891 272700 EUGENIO DE BARCELOS FILHO OFICIAL DO MP ATIVO FRUTAL - COMARCA; FRUTAL-PJ-02PJ 5.480,05 1.096,01 0,00 2.582,34 0,00 0,00 9.158,40 723,37 687,99 0,00 1.411,36 7.747,04 726,01 0,00 30/06/2015
892 254100 EULALIA ALVES MIRANDA LUCAS OFICIAL DO MP ATIVO ALMENARA - COMARCA; ALMENARA-PJ-SECRETARIA 6.973,67 2.569,55 0,00 4.771,61 0,00 0,00 14.314,83 951,12 1.413,54 0,00 2.364,66 11.950,17 865,06 290,87 30/06/2015
893 615500 EUNICE BARBOSA PINTO OFICIAL DO MP ATIVO CARLOS CHAGAS - COMARCA; CARLOS CHAGAS-PJ-UNPJ 3.336,37 0,00 0,00 1.668,19 0,00 0,00 5.004,56 367,00 90,61 0,00 457,61 4.546,95 726,01 0,00 30/06/2015
894 557900 EURIPEDES JUSUE PERES OFICIAL DO MP ATIVO IBIÁ - COMARCA; IBIA-PJ-UNPJ 3.129,28 0,00 0,00 0,00 0,00 0,00 3.129,28 344,22 66,08 0,00 410,30 2.718,98 726,01 0,00 30/06/2015
895 225800 EURO CESAR VIEIRA BARBOSA ANALISTA DO MP ATIVO BELO HORIZONTE - COMARCA; BH-17PJ PATRIMONIO PUBLICO 13.097,56 3.929,27 0,00 8.513,42 0,00 0,00 25.540,25 1.872,95 3.193,68 0,00 5.066,63 20.473,62 1.005,30 4,06 30/06/2015
896 199400 EUSTAQUIO ADAILTON LIMA E SILVA OFICIAL DO MP ATIVO MANGA - COMARCA; MANGA-PJ-01PJ 9.920,24 4.960,12 0,00 5.339,73 4.960,12 0,00 25.180,21 1.936,86 4.595,65 0,00 6.532,51 18.647,70 726,01 2.727,50 30/06/2015
897 249000 EUSTAQUIO GOMES DE OLIVEIRA OFICIAL DO MP ATIVO BELO HORIZONTE - COMARCA; CAO-TS-CONTROLADORIA E APOIO AS ENTIDADES  6.973,67 2.789,47 0,00 4.881,57 0,00 0,00 14.644,71 1.073,95 1.520,17 0,00 2.594,12 12.050,59 726,01 0,00 30/06/2015
898 67100 EVA DAS DORES BARROS VALGAS ANALISTA DO MP ATIVO FERROS - COMARCA; FERROS-PJ-SECRETARIA 15.298,25 10.708,79 0,00 13.003,52 0,00 0,00 39.010,56 2.860,77 5.391,59 0,00 8.252,36 30.758,20 726,01 0,00 30/06/2015
899 548000 EVA VILMA LEAO DOS REIS JULIO OFICIAL DO MP ATIVO BELO HORIZONTE - COMARCA; BH-15PJ M AMB 16PJ HAB URB-SECRETARIA 3.792,57 758,51 0,00 0,00 0,00 0,00 4.551,08 592,37 448,66 0,00 1.041,03 3.510,05 726,01 834,10 30/06/2015
900 517000 EVALDO SENA COSTA FILHO ANALISTA DO MP ATIVO CONTAGEM - COMARCA; CONTAGEM-PJ-15PJ 6.641,51 1.328,30 0,00 3.984,91 0,00 0,00 11.954,72 876,68 924,84 0,00 1.801,52 10.153,20 961,01 0,00 30/06/2015
901 217500 EVELANGE LEAO RABELO ASSESSOR ATIVO BELO HORIZONTE - COMARCA; COORD EST DEF DIR FAMILIA PESSOA DEFICI IDOSO 0,00 750,19 2.500,62 1.625,41 0,00 0,00 4.876,22 437,45 176,11 0,00 613,56 4.262,66 726,01 0,00 30/06/2015
902 540400 EVIE SARAMELLA DE RESENDE OFICIAL DO MP ATIVO BARBACENA - COMARCA; BARBACENA-PJ-05PJ 3.445,03 0,00 0,00 0,00 0,00 0,00 3.445,03 378,95 105,11 0,00 484,06 2.960,97 726,01 0,00 30/06/2015
903 469000 EWERTON CARDOSO DE SA RODRIGUES ANALISTA DO MP ATIVO CAMPO BELO - COMARCA; CAMPO BELO-PJ-01PJ 7.200,74 432,04 0,00 3.816,39 0,00 0,00 11.449,17 839,61 946,62 0,00 1.786,23 9.662,94 726,01 0,00 30/06/2015
904 368900 FABIANA BARBOSA SIQUEIRA OFICIAL DO MP ATIVO BELO HORIZONTE - COMARCA; CAO-ORDEM ECONOMICA E TRIBUTARIA-SECRETARIA 6.229,29 622,93 0,00 0,00 0,00 0,00 6.852,22 803,57 886,24 0,00 1.689,81 5.162,41 1.047,41 532,87 30/06/2015
905 273800 FABIANA CARNEIRO AMORIM COORDENADOR/OFICIAL ATIVO BELO HORIZONTE - COMARCA; BH-23PJ INFRACIONAL-COORD ADM INFRACIONAL 0,00 1.921,48 9.607,41 5.764,45 0,00 0,00 17.293,34 876,68 1.955,72 0,00 2.832,40 14.460,94 726,01 0,00 30/06/2015
906 519300 FABIANA DE OLIVEIRA LOUREIRO ANALISTA DO MP ATIVO BELO HORIZONTE - COMARCA; BH-09PJ AUDITORIA MILITAR 6.641,51 398,49 0,00 3.520,00 2.346,67 0,00 12.906,67 774,40 1.499,01 0,00 2.273,41 10.633,26 961,01 0,00 30/06/2015
907 363400 FABIANA DOURADO DUPIN VIEGAS ANALISTA DO MP ATIVO BELO HORIZONTE - COMARCA; GABINETE DE PROCURADOR DE JUSTIÇA - SALA 705 9.920,24 992,02 0,00 5.456,13 0,00 0,00 16.368,39 1.200,35 1.749,28 0,00 2.949,63 13.418,76 1.196,01 0,00 30/06/2015
908 410800 FABIANA DUARTE QUITITE ANALISTA DO MP ATIVO BELO HORIZONTE - COMARCA; EXTINTA-MEIO AMB PATRIM HIST CULTURAL-15PJGAB 8.727,00 872,70 0,00 4.799,85 0,00 0,00 14.399,55 1.124,28 1.632,16 0,00 2.756,44 11.643,11 748,29 623,05 30/06/2015
909 419500 FABIANA EULALIA DOS SANTOS ANALISTA DO MP ATIVO SÃO JOÃO DEL REI - COMARCA; SAO JOAO DEL REI-PJ-01PJ 8.451,80 845,18 0,00 3.434,11 0,00 0,00 12.731,09 1.022,67 1.406,08 0,00 2.428,75 10.302,34 726,01 0,00 30/06/2015
910 376300 FABIANA MATTOSO LEMOS ANALISTA DO MP ATIVO BELO HORIZONTE - COMARCA; COORD-GERAL DAS PJS POR BACIA HIDRO. DE MG 9.011,08 901,11 0,00 4.956,10 0,00 0,00 14.868,29 1.159,09 1.709,61 0,00 2.868,70 11.999,59 726,01 624,98 30/06/2015
911 331500 FABIANA PACHECO OFICIAL DO MP ATIVO GUAXUPÉ - COMARCA; GUAXUPE-PJ-01PJ 6.229,29 1.245,86 0,00 3.737,58 0,00 0,00 11.212,73 890,79 1.008,37 0,00 1.899,16 9.313,57 726,01 622,93 30/06/2015
912 510700 FABIANA PEREIRA SANTOS BORGES ANALISTA DO MP ATIVO BELO HORIZONTE - COMARCA; DIRETORIA DE SISTEMAS DE INFORMACAO 6.641,51 398,49 0,00 3.520,00 2.346,67 0,00 12.906,67 774,40 1.446,88 0,00 2.221,28 10.685,39 726,01 0,00 30/06/2015
913 181700 FABIANA SOUZA FERREIRA OFICIAL DO MP ATIVO BELO HORIZONTE - COMARCA; BH-19PJ SAUDE-SECRETARIA 150PJ 4.820,91 1.446,27 0,00 3.133,59 0,00 0,00 9.400,77 689,39 560,26 0,00 1.249,65 8.151,12 961,01 0,00 30/06/2015
914 272900 FABIANA STOCKLER LEITE OFICIAL DO MP ATIVO LAJINHA - COMARCA; LAJINHA-PJ-SECRETARIA 6.857,79 2.743,12 0,00 4.800,46 3.200,30 0,00 17.601,67 1.056,10 2.256,27 0,00 3.312,37 14.289,30 961,01 0,00 30/06/2015
915 225500 FABIANE DE FATIMA PORTELLA ANALISTA DO MP ATIVO BELO HORIZONTE - COMARCA; SERVICO MEDICO-DEPTO PERIC MEDICA SAUDE OCUP 12.598,78 2.519,76 0,00 7.559,27 0,00 0,00 22.677,81 1.663,04 2.830,90 0,00 4.493,94 18.183,87 726,01 0,00 30/06/2015
916 433800 FABIANE DINIZ MATTOS ANALISTA DO MP ATIVO BELO HORIZONTE - COMARCA; BH-23PJ INFRACIONAL-ASS JURIDICA 8.451,80 845,18 0,00 4.648,49 0,00 0,00 13.945,47 1.022,67 1.406,08 0,00 2.428,75 11.516,72 2.241,39 138,91 30/06/2015
917 455000 FABIANO CARVALHO DA SILVA ANALISTA DO MP ATIVO LAVRAS - COMARCA; COORD REG DO MA DA BACIA DO RIO GRANDE 7.200,74 432,04 0,00 3.816,39 0,00 0,00 11.449,17 839,61 998,76 0,00 1.838,37 9.610,80 726,01 0,00 30/06/2015
918 498800 FABIANO FURTADO PESSOA COELHO ANALISTA DO MP ATIVO BELO HORIZONTE - COMARCA; DIRETORIA DE REDES E BANCOS DE DADOS 6.641,51 398,49 0,00 3.520,00 0,00 0,00 10.560,00 774,40 801,54 0,00 1.575,94 8.984,06 961,01 0,00 30/06/2015
919 394600 FABIANO PALHARES SILVA ANALISTA DO MP ATIVO BELO HORIZONTE - COMARCA; CENTRAL DE APOIO TECN-SETOR DE MEIO AMBIENTE 8.727,00 872,70 0,00 4.799,85 0,00 0,00 14.399,55 1.055,97 1.428,03 0,00 2.484,00 11.915,55 5.023,82 372,42 30/06/2015
920 444400 FABIANO SARAIVA MEDEIROS ANALISTA DO MP ATIVO BETIM - COMARCA; BETIM-PJ-11PJ 7.435,23 743,52 0,00 4.089,38 0,00 0,00 12.268,13 899,66 1.028,12 0,00 1.927,78 10.340,35 1.196,01 0,00 30/06/2015
921 408700 FABIANO SOARES PORTILHO ANALISTA DO MP ATIVO VIÇOSA - COMARCA; VICOSA-PJ-02PJ 8.451,80 845,18 0,00 4.648,49 0,00 0,00 13.945,47 1.022,67 1.406,08 0,00 2.428,75 11.516,72 726,01 0,00 30/06/2015
922 384301 FABIO BRUNO DA SILVA ANALISTA DO MP ATIVO BONFIM - COMARCA; BONFIM-PJ-UNPJ 7.435,23 743,52 0,00 4.089,38 0,00 0,00 12.268,13 899,66 1.132,39 0,00 2.032,05 10.236,08 726,01 0,00 30/06/2015
923 442600 FABIO CARVALHO VIEIRA ANALISTA DO MP ATIVO MONTES CLAROS - COMARCA; MONTES CLAROS-PJ-06PJ 6.229,29 622,93 0,00 3.426,11 0,00 0,00 10.278,33 753,74 807,72 0,00 1.561,46 8.716,87 726,01 0,00 30/06/2015
924 123700 FABIO JOSE ANDRADE NOGUEIRA OFICIAL DO MP ATIVO FORMIGA - COMARCA; FORMIGA-PJ-SECRETARIA 8.185,27 6.548,22 0,00 7.366,75 0,00 0,00 22.100,24 1.620,68 1.595,29 0,00 3.215,97 18.884,27 726,01 0,00 30/06/2015
925 240101 FABIO JUNQUEIRA DE ASSIS FONSECA OFICIAL DO MP ATIVO BELO HORIZONTE - COMARCA; DIRET DE DESENV DE RECURSOS HUMANOS-DDRH 4.977,82 497,78 0,00 2.737,80 0,00 0,00 8.213,40 602,32 470,79 0,00 1.073,11 7.140,29 726,01 0,00 30/06/2015
926 271500 FABIO LUIZ VIEIRA OFICIAL DO MP ATIVO SANTA VITÓRIA - COMARCA; SANTA VITORIA-PJ-UNPJ 7.200,74 1.440,15 0,00 4.320,45 0,00 0,00 12.961,34 1.098,14 1.469,72 0,00 2.567,86 10.393,48 823,69 1.342,16 30/06/2015
927 213100 FABIO PRATES GONCALVES ASSESSOR ATIVO BELO HORIZONTE - COMARCA; DIRETORIA DE RELACOES PUBLICAS E CERIMONIAL 6.641,51 1.992,45 0,00 4.316,98 0,00 0,00 12.950,94 513,01 1.459,28 0,00 1.972,29 10.978,65 726,01 0,00 30/06/2015
928 436700 FABIO SANTIAGO DE CARVALHO OFICIAL DO MP ATIVO POÇO FUNDO - COMARCA; POCO FUNDO-PJ-UNPJ 5.307,28 530,73 0,00 2.919,01 0,00 0,00 8.757,02 642,18 559,49 0,00 1.201,67 7.555,35 726,01 0,00 30/06/2015
929 208400 FABIOLA DE SOUSA CARDOSO ASSESSOR/ANALISTA ATIVO BELO HORIZONTE - COMARCA; ASSESS TECNICA DA CORREGEDORIA-GERAL DO MP 14.715,61 6.463,32 0,00 10.589,47 0,00 0,00 31.768,40 2.104,33 4.376,16 0,00 6.480,49 25.287,91 726,01 0,00 30/06/2015
930 392200 FABIOLA LEROY COSTA ANALISTA DO MP ATIVO ESMERALDAS - COMARCA; ESMERALDAS-PJ-01PJ 7.677,29 767,73 0,00 0,00 0,00 0,00 8.445,02 928,95 1.197,56 0,00 2.126,51 6.318,51 726,01 0,00 30/06/2015
931 409000 FABIOLA MONTEIRO DE CARVALHO CASTRO ANALISTA DO MP ATIVO BOM SUCESSO - COMARCA; BOM SUCESSO-PJ-UNPJ 8.185,27 818,53 0,00 4.501,90 0,00 0,00 13.505,70 990,42 1.334,32 0,00 2.324,74 11.180,96 726,01 0,00 30/06/2015
932 227900 FABIOLA PIMENTA DE CARVALHO OFICIAL DO MP ATIVO MONTES CLAROS - COMARCA; COORD REG BACIA RIOS VERDE GRANDE E PARDO 6.229,29 1.245,86 0,00 3.737,58 0,00 0,00 11.212,73 822,27 908,04 0,00 1.730,31 9.482,42 726,01 0,00 30/06/2015
933 525800 FABRICIA ALVES DANTAS OFICIAL DO MP ATIVO MONTES CLAROS - COMARCA; MONTES CLAROS-PJ-01PJ 4.241,01 254,46 0,00 2.247,74 0,00 0,00 6.743,21 494,50 188,47 0,00 682,97 6.060,24 726,01 0,00 30/06/2015
934 263400 FABRICIA PINTO TEIXEIRA SANTIAGO OFICIAL DO MP ATIVO BELO HORIZONTE - COMARCA; CAO-TS-TERCEIRO SETOR-SECRETARIA 6.973,67 1.394,73 0,00 4.184,20 0,00 0,00 12.552,60 920,52 1.074,53 0,00 1.995,05 10.557,55 961,01 0,00 30/06/2015
935 420800 FABRICIO BERNARDES DE OLIVEIRA OFICIAL DO MP ATIVO ITURAMA - COMARCA; ITURAMA-PJ-02PJ 5.307,28 530,73 0,00 2.919,01 0,00 0,00 8.757,02 642,18 507,36 0,00 1.149,54 7.607,48 770,23 0,00 30/06/2015
936 474000 FABRICIO DE FREITAS SALES ANALISTA DO MP ATIVO MONTES CLAROS - COMARCA; COORD REG PATRI PUB ORD TRIB-NORTE MINAS 7.200,74 432,04 0,00 3.816,39 0,00 0,00 11.449,17 839,61 998,76 0,00 1.838,37 9.610,80 961,01 0,00 30/06/2015
937 510100 FABRICIO FURTADO ASSIS DO CARMO ANALISTA DO MP ATIVO BELO HORIZONTE - COMARCA; SERVICO MEDICO-DEPTO PERIC MEDICA SAUDE OCUP 6.032,93 1.145,19 0,00 3.589,06 0,00 0,00 10.767,18 703,44 911,18 0,00 1.614,62 9.152,56 726,01 0,00 30/06/2015
938 519600 FABRICIO GONTIJO SALVATI ANALISTA DO MP ATIVO JUIZ DE FORA - COMARCA; JUIZ DE FORA-PJ-13PJ 6.641,51 398,49 0,00 0,00 0,00 0,00 7.040,00 774,40 853,68 0,00 1.628,08 5.411,92 726,01 0,00 30/06/2015
939 637400 FABRICIO HENRIQUE DA SILVA PASSOS ANALISTA DO MP ATIVO BELO HORIZONTE - COMARCA; DIRETORIA DE PUBLICIDADE INSTITUCIONAL 5.139,92 0,00 0,00 1.713,31 0,00 0,00 6.853,23 565,39 393,14 0,00 958,53 5.894,70 726,01 0,00 30/06/2015
940 428200 FABRICIO ORZIL VIANA ANALISTA DO MP ATIVO SANTA LUZIA - COMARCA; SANTA LUZIA-PJ-04PJ 7.435,23 743,52 0,00 3.073,35 0,00 0,00 11.252,10 899,66 1.132,39 0,00 2.032,05 9.220,05 726,01 0,00 30/06/2015
941 455600 FABRICIO PAIVA DA ROCHA ANALISTA DO MP ATIVO SÃO JOÃO DEL REI - COMARCA; SAO JOAO DEL REI-PJ-06PJ 7.200,74 432,04 0,00 3.816,39 0,00 0,00 11.449,17 839,61 946,62 0,00 1.786,23 9.662,94 726,01 0,00 30/06/2015
942 511500 FABRICIO RENE CARDOSO DE PADUA ANALISTA DO MP ATIVO SÃO SEBASTIÃO DO PARAÍSO - COMARCA; SAO SEBASTIAO DO PARAISO-PJ-03PJ 6.641,51 398,49 0,00 3.520,00 0,00 0,00 10.560,00 774,40 853,68 0,00 1.628,08 8.931,92 726,01 0,00 30/06/2015
943 496100 FABRICIO RESENDE GONCALVES OFICIAL DO MP ATIVO ENTRE-RIOS DE MINAS - COMARCA; ENTRE RIOS DE MINAS-PJ-UNPJ 4.241,01 1.429,28 0,00 0,00 0,00 0,00 5.670,29 494,50 553,98 0,00 1.048,48 4.621,81 726,01 0,00 30/06/2015
944 514900 FADUA MARIA DRUMOND CHEQUER FIGUEIREDO ANALISTA DO MP ATIVO ALMENARA - COMARCA; COORD REG INCLUSAO MOBILIZ VALE JEQUITINHONHA 6.641,51 398,49 0,00 2.705,96 0,00 0,00 9.745,96 774,40 853,68 0,00 1.628,08 8.117,88 726,01 0,00 30/06/2015
945 282500 FANNY FERREIRA MELO FAVERO DE FRAVET OFICIAL DO MP ATIVO ARAXÁ - COMARCA; ARAXA-PJ-03PJ 5.842,66 1.168,53 0,00 3.505,60 0,00 0,00 10.516,79 771,23 846,63 0,00 1.617,86 8.898,93 961,01 0,00 30/06/2015
946 540100 FATIMA CRISTINA POVOA DA COSTA OFICIAL DO MP ATIVO BELO HORIZONTE - COMARCA; BH-18PJ VIOLENCIA DOMESTICA-SECRETARIA 3.792,57 758,51 0,00 0,00 0,00 0,00 4.551,08 500,62 275,22 0,00 775,84 3.775,24 726,01 0,00 30/06/2015
947 382800 FATIMA DE OLIVEIRA COELHO E SILVA OFICIAL DO MP ATIVO BELO HORIZONTE - COMARCA; DIRETORIA DE ADMINISTRACAO FINANCEIRA 4.521,68 904,34 0,00 2.713,01 0,00 0,00 8.139,03 634,51 490,30 0,00 1.124,81 7.014,22 961,01 342,28 30/06/2015
948 398601 FELIPE ANTONIO HORTA DE PAULA ANALISTA DO MP ATIVO BELO HORIZONTE - COMARCA; PROC. JUSTICA DIR. DIFUSOS E COLETIVOS-SEC 5.842,66 0,00 0,00 2.921,33 0,00 0,00 8.763,99 760,48 871,78 0,00 1.632,26 7.131,73 726,01 1.249,22 30/06/2015
949 430900 FELIPE BOY VIEIRA ANALISTA DO MP ATIVO BELO HORIZONTE - COMARCA; CAO-DH APOIO COMUNITARIO-SEC ADM 7.435,23 743,52 0,00 0,00 0,00 0,00 8.178,75 899,66 1.132,39 0,00 2.032,05 6.146,70 726,01 0,00 30/06/2015
950 631700 FELIPE DE MORAIS SIMOES COELHO ANALISTA DO MP ATIVO BELO HORIZONTE - COMARCA; BH-18PJ VIOLENCIA DOMESTICA 4.668,87 0,00 0,00 2.334,44 0,00 0,00 7.003,31 513,58 298,81 0,00 812,39 6.190,92 726,01 0,00 30/06/2015
951 549100 FELIPE FERNANDES ALVIM ANALISTA DO MP ATIVO LAJINHA - COMARCA; LAJINHA-PJ-UNPJ 5.842,66 0,00 0,00 2.921,33 0,00 0,00 8.763,99 760,48 822,70 0,00 1.583,18 7.180,81 4.788,82 1.443,18 30/06/2015
952 487300 FELIPE FERNANDES SILVEIRA ASSESSOR ATIVO BELO HORIZONTE - COMARCA; DIVISAO DE MANUTENCAO PREDIAL 0,00 0,00 2.500,62 1.250,31 0,00 0,00 3.750,93 446,62 65,70 0,00 512,32 3.238,61 726,01 0,00 30/06/2015
953 620100 FELIPE GOMES DE AZEVEDO OFICIAL DO MP ATIVO BELO HORIZONTE - COMARCA; BH-18PJ VIOLENCIA DOMESTICA-SECRETARIA 3.030,62 0,00 0,00 1.515,31 0,00 0,00 4.545,93 333,37 59,49 0,00 392,86 4.153,07 726,01 0,00 30/06/2015
954 601600 FELIPE RODRIGUES DE SIQUEIRA ANALISTA DO MP ATIVO BELO HORIZONTE - COMARCA; BH-02PJ FAMILIA-SECRETARIA 5.307,28 0,00 0,00 2.653,64 0,00 0,00 7.960,92 583,80 429,60 0,00 1.013,40 6.947,52 726,01 0,00 30/06/2015
955 628900 FELIX FERNANDO JUNIO VIEIRA ANALISTA DO MP ATIVO CAETÉ - COMARCA; CAETE-PJ-02PJ 4.668,87 0,00 0,00 2.334,44 0,00 0,00 7.003,31 513,58 256,15 0,00 769,73 6.233,58 726,01 0,00 30/06/2015
956 544500 FELLIPE LEMOS MARCONDES BUENO ANALISTA DO MP ATIVO SÃO SEBASTIÃO DO PARAÍSO - COMARCA; SAO SEBASTIAO DO PARAISO-PJ-04PJ 5.842,66 0,00 0,00 2.921,33 0,00 0,00 8.763,99 642,69 560,63 0,00 1.203,32 7.560,67 726,01 0,00 30/06/2015
957 612600 FERNANDA ADRIANA DE PAULA GUIDO ANALISTA DO MP ATIVO PARACATU - COMARCA; PARACATU-PJ-03PJ 5.307,28 0,00 0,00 0,00 0,00 0,00 5.307,28 583,80 429,60 0,00 1.013,40 4.293,88 726,01 0,00 30/06/2015
958 508400 FERNANDA AGANETTI MATTOS DE OLIVEIRA ANALISTA DO MP ATIVO BELO HORIZONTE - COMARCA; BH-19PJ SAUDE 6.641,51 398,49 0,00 3.520,00 0,00 0,00 10.560,00 774,40 853,68 0,00 1.628,08 8.931,92 726,01 0,00 30/06/2015
959 453600 FERNANDA ALBERNAZ RABELO ANALISTA DO MP ATIVO BELO HORIZONTE - COMARCA; GABINETE DE PROCURADOR DE JUSTIÇA - SALA 616 7.200,74 432,04 0,00 3.816,39 0,00 0,00 11.449,17 839,61 998,76 0,00 1.838,37 9.610,80 726,01 0,00 30/06/2015
960 255600 FERNANDA ALINA DE ALMEIDA ANDRADE OFICIAL DO MP ATIVO BELO HORIZONTE - COMARCA; SUPRIN DE PLANEJAMENTO E COORDENACAO 6.432,09 1.286,42 0,00 3.859,26 0,00 0,00 11.577,77 902,58 1.161,18 0,00 2.063,76 9.514,01 823,35 576,76 30/06/2015
961 443200 FERNANDA ALMEIDA LOPES ANALISTA DO MP ATIVO CONTAGEM - COMARCA; CONTAGEM-PJ-23PJ 7.435,23 743,52 0,00 4.089,38 0,00 0,00 12.268,13 899,66 1.132,39 0,00 2.032,05 10.236,08 4.788,82 372,42 30/06/2015
962 281100 FERNANDA ANANIAS MEIRA ANALISTA DO MP ATIVO BELO HORIZONTE - COMARCA; BH-23PJ INFRACIONAL-ASS JURIDICA 10.576,63 2.115,33 0,00 6.345,98 0,00 0,00 19.037,94 1.484,15 2.432,86 0,00 3.917,01 15.120,93 726,01 800,28 30/06/2015
963 539000 FERNANDA BARBOSA ALVES ANALISTA DO MP ATIVO CANÁPOLIS - COMARCA; CANAPOLIS-PJ-SECRETARIA 5.842,66 0,00 0,00 2.921,33 1.947,55 0,00 10.711,54 642,69 1.096,21 0,00 1.738,90 8.972,64 726,01 0,00 30/06/2015
964 451200 FERNANDA BLOISE PRADO OFICIAL DO MP ATIVO BELO HORIZONTE - COMARCA; NUCLEO DE NEGOCIACAO DE CONFLITOS AMBIENTAIS 4.379,06 437,91 0,00 2.408,49 0,00 0,00 7.225,46 563,28 389,29 0,00 952,57 6.272,89 726,01 303,72 30/06/2015
965 427900 FERNANDA BRAGA CARNEIRO BICALHO ANALISTA DO MP ATIVO PEÇANHA - COMARCA; PECANHA-PJ-SECRETARIA 8.185,27 818,53 0,00 4.501,90 0,00 0,00 13.505,70 990,42 1.282,18 0,00 2.272,60 11.233,10 726,01 0,00 30/06/2015
966 507100 FERNANDA CABRINI VAZ MOTA ANALISTA DO MP ATIVO BELO HORIZONTE - COMARCA; ASSESSORIA JURIDICO-ADMINISTRATIVA 6.641,51 398,49 0,00 3.520,00 0,00 0,00 10.560,00 774,40 853,68 0,00 1.628,08 8.931,92 3.542,01 258,13 30/06/2015
967 259800 FERNANDA CALZAVARA DE SOUSA COORDENADOR/OFICIAL ATIVO BELO HORIZONTE - COMARCA; DIRET DE FORMACAO, APERFEIC. E POS-GRADUACAO 0,00 2.184,20 10.921,00 6.552,60 0,00 0,00 19.657,80 950,50 2.473,18 0,00 3.423,68 16.234,12 726,01 0,00 30/06/2015
968 550300 FERNANDA CAMARGOS CALDEIRA BRANT ANALISTA DO MP ATIVO CONTAGEM - COMARCA; CONTAGEM-PJ-10PJ 5.842,66 0,00 0,00 2.921,33 0,00 0,00 8.763,99 760,48 871,78 0,00 1.632,26 7.131,73 726,01 1.249,22 30/06/2015
969 494400 FERNANDA CAMPOS BARATA OFICIAL DO MP ATIVO JUIZ DE FORA - COMARCA; JUIZ DE FORA-PJ-05PJ 3.557,16 213,43 0,00 1.885,30 0,00 0,00 5.655,89 414,76 148,57 0,00 563,33 5.092,56 961,01 0,00 30/06/2015
970 555600 FERNANDA CAROLINE RIBEIRO ANALISTA DO MP ATIVO BELO HORIZONTE - COMARCA; EXTINTA - DIRETORIA DE CONTRATOS E CONVÊNIOS 5.307,28 0,00 0,00 2.653,64 0,00 0,00 7.960,92 583,80 429,60 0,00 1.013,40 6.947,52 726,01 0,00 30/06/2015
971 294500 FERNANDA COSTA FLORES OFICIAL DO MP ATIVO PARÁ DE MINAS - COMARCA; PARA DE MINAS-PJ-04PJ 6.973,67 1.394,73 0,00 4.184,20 0,00 0,00 12.552,60 951,12 1.194,74 0,00 2.145,86 10.406,74 726,01 278,12 30/06/2015
972 344500 FERNANDA CRISTINA DE SOUZA PAZ ASSESSOR ATIVO BELO HORIZONTE - COMARCA; CENTRAL DE APOIO TECN-SETOR DE MEIO AMBIENTE 0,00 0,00 4.175,17 2.087,59 1.391,72 0,00 7.654,48 513,01 615,84 0,00 1.128,85 6.525,63 1.196,01 0,00 30/06/2015
973 538100 FERNANDA CRISTINA DOS SANTOS ROSA MOREIRA OFICIAL DO MP ATIVO RIBEIRÃO DAS NEVES - COMARCA; RIBEIRAO DAS NEVES-PJ-09PJ 3.792,57 758,51 0,00 0,00 0,00 0,00 4.551,08 500,62 275,22 0,00 775,84 3.775,24 726,01 0,00 30/06/2015
974 337800 FERNANDA CRISTINA REIS ROLAND CLIMACO DA SILVA ASSESSOR/OFICIAL ATIVO BELO HORIZONTE - COMARCA; DIRETORIA-GERAL 0,00 1.860,89 9.304,45 5.582,67 0,00 0,00 16.748,01 979,03 2.273,04 0,00 3.252,07 13.495,94 4.788,82 1.613,02 30/06/2015
975 545400 FERNANDA CUNHA GUIMARAES ANALISTA DO MP ATIVO BELO HORIZONTE - COMARCA; EXTINTA - COORD DEFESA DO DIREITO DE FAMILIA 5.307,28 0,00 0,00 2.653,64 0,00 0,00 7.960,92 583,80 429,60 0,00 1.013,40 6.947,52 726,01 0,00 30/06/2015
976 429801 FERNANDA CUNHA PINHEIRO DA SILVA ANALISTA DO MP ATIVO BELO HORIZONTE - COMARCA; DIRETORIA DE PRODUCAO EDITORIAL 6.032,93 361,98 0,00 2.497,84 0,00 0,00 8.892,75 703,44 695,79 0,00 1.399,23 7.493,52 726,01 0,00 30/06/2015
977 408000 FERNANDA DAS NEVES RAMOS ANALISTA DO MP ATIVO BELO HORIZONTE - COMARCA; CENTRAL DE APOIO TECNICO-SETOR CONTABIL 8.451,80 845,18 0,00 4.648,49 0,00 0,00 13.945,47 1.022,67 1.406,08 0,00 2.428,75 11.516,72 726,01 0,00 30/06/2015
978 496000 FERNANDA DE ALMEIDA VIANA ASSESSOR/ANALISTA ATIVO BELO HORIZONTE - COMARCA; PROC JUST RECURSOS ESP E EXTRAORD CRIMINAIS 0,00 507,11 8.451,80 4.479,46 0,00 0,00 13.438,37 774,40 1.381,38 0,00 2.155,78 11.282,59 726,01 0,00 30/06/2015
979 266700 FERNANDA DE CASTRO LUCAS ASSESSOR/OFICIAL ATIVO BELO HORIZONTE - COMARCA; DIRET DE DESENV DE RECURSOS HUMANOS-DDRH 0,00 1.860,89 9.304,45 5.582,67 0,00 0,00 16.748,01 920,52 2.036,88 0,00 2.957,40 13.790,61 726,01 323,31 30/06/2015
980 433200 FERNANDA DE FIGUEIREDO NORTE ANALISTA DO MP ATIVO BELO HORIZONTE - COMARCA; ASSESS JUR DO CONS SUPERIOR DO MINISTERIO PUB 8.451,80 845,18 0,00 4.648,49 0,00 0,00 13.945,47 1.022,67 1.353,94 0,00 2.376,61 11.568,86 5.023,82 372,42 30/06/2015
981 419200 FERNANDA DE MIRANDA MARTINS SIMOES ANALISTA DO MP ATIVO UBERLÂNDIA - COMARCA; UBERLANDIA-PJ-19PJ 8.727,00 872,70 0,00 4.799,85 0,00 0,00 14.399,55 1.122,57 1.628,35 0,00 2.750,92 11.648,63 888,51 620,34 30/06/2015
982 441400 FERNANDA DE MORAIS PINTO ANALISTA DO MP ATIVO BELO HORIZONTE - COMARCA; PROC. JUSTICA DIR. DIFUSOS E COLETIVOS-SEC 7.435,23 743,52 0,00 4.089,38 0,00 0,00 12.268,13 899,66 1.132,39 0,00 2.032,05 10.236,08 726,01 0,00 30/06/2015
983 432200 FERNANDA DE MOURA GUIMARAES ANALISTA DO MP ATIVO BELO HORIZONTE - COMARCA; ASSESS TECNICO-JUR JUNTO AS PROC. DE JUST 7.435,23 743,52 0,00 4.089,38 0,00 0,00 12.268,13 899,66 1.132,39 0,00 2.032,05 10.236,08 726,01 0,00 30/06/2015
984 461800 FERNANDA DE OLIVEIRA SANTOS ANALISTA DO MP ATIVO JUIZ DE FORA - COMARCA; JUIZ DE FORA-PJ-21PJ 7.200,74 432,04 0,00 3.816,39 0,00 0,00 11.449,17 839,61 998,76 0,00 1.838,37 9.610,80 961,01 0,00 30/06/2015
985 432500 FERNANDA DE PAULA ABRANTES ANALISTA DO MP ATIVO BELO HORIZONTE - COMARCA; PROC JUST RECURSOS ESP E EXTRAORD CRIMINAIS 7.435,23 743,52 0,00 4.089,38 0,00 0,00 12.268,13 899,66 1.132,39 0,00 2.032,05 10.236,08 726,01 0,00 30/06/2015
986 431600 FERNANDA DIAS BARBOSA MENEZES ANALISTA DO MP ATIVO OURO BRANCO - COMARCA; OURO BRANCO-PJ-UNPJ 7.435,23 743,52 0,00 0,00 0,00 0,00 8.178,75 899,66 1.028,12 0,00 1.927,78 6.250,97 961,01 0,00 30/06/2015
987 162200 FERNANDA FERNANDES MONTEIRO ASSESSOR ATIVO BELO HORIZONTE - COMARCA; CAO-DH APOIO COMUNITARIO-SEC ADM 0,00 1.252,55 4.175,17 2.713,86 0,00 0,00 8.141,58 513,01 629,70 0,00 1.142,71 6.998,87 961,01 0,00 30/06/2015
988 512800 FERNANDA FERREIRA BARBOSA MOREIRA ANALISTA DO MP ATIVO IPATINGA - COMARCA; IPATINGA-PJ-05PJ 6.032,93 361,98 0,00 3.197,46 0,00 0,00 9.592,37 703,44 695,79 0,00 1.399,23 8.193,14 961,01 0,00 30/06/2015
989 329200 FERNANDA GABRIEL GUZELLA OFICIAL DO MP ATIVO BELO HORIZONTE - COMARCA; DIRET DE PLANOS PROJETOS E PROGRAMAS INST 6.641,51 1.328,30 0,00 3.984,91 0,00 0,00 11.954,72 1.037,34 2.588,38 0,00 3.625,72 8.329,00 726,01 5.641,14 30/06/2015
990 324200 FERNANDA GEORGIA NEVES ZAHAN OFICIAL DO MP ATIVO IPANEMA - COMARCA; IPANEMA-PJ-SECRETARIA 5.307,28 2.653,64 0,00 3.980,46 0,00 0,00 11.941,38 875,70 974,80 0,00 1.850,50 10.090,88 726,01 0,00 30/06/2015
991 548200 FERNANDA GONCALVES DE CARVALHO ZUZA OFICIAL DO MP ATIVO TUPACIGUARA - COMARCA; TUPACIGUARA-PJ-UNPJ 3.445,03 0,00 0,00 1.480,48 0,00 0,00 4.925,51 470,89 244,79 0,00 715,68 4.209,83 2.104,02 1.009,95 30/06/2015
992 355400 FERNANDA HELENA BASQUES OFICIAL DO MP ATIVO SABARÁ - COMARCA; SABARA-PJ-01PJ 6.229,29 622,93 0,00 3.426,11 0,00 0,00 10.278,33 801,26 913,45 0,00 1.714,71 8.563,62 794,97 438,32 30/06/2015
993 454800 FERNANDA IATAROLA BARBOSA DIAS ANALISTA DO MP ATIVO BARBACENA - COMARCA; BARBACENA-PJ-05PJ 7.200,74 432,04 0,00 3.816,39 0,00 0,00 11.449,17 839,61 946,62 0,00 1.786,23 9.662,94 726,01 0,00 30/06/2015
994 515500 FERNANDA LILIANE MARUGEIRO ANALISTA DO MP ATIVO VESPASIANO - COMARCA; VESPASIANO-PJ-04PJ 6.641,51 398,49 0,00 3.520,00 0,00 0,00 10.560,00 774,40 853,68 0,00 1.628,08 8.931,92 726,01 0,00 30/06/2015
995 392900 FERNANDA MAGALHAES SILVA COORDENADOR/ANALISTA ATIVO BELO HORIZONTE - COMARCA; DIRETORIA DE IMPRENSA 0,00 1.092,10 10.921,00 6.006,55 0,00 0,00 18.019,65 1.159,09 2.115,49 0,00 3.274,58 14.745,07 726,01 0,00 30/06/2015
996 409200 FERNANDA MAIA SANTIAGO ANALISTA DO MP ATIVO PIRAPORA - COMARCA; PIRAPORA-PJ-02PJ 6.857,79 685,78 0,00 3.771,79 0,00 0,00 11.315,36 829,79 976,93 0,00 1.806,72 9.508,64 726,01 0,00 30/06/2015
997 621200 FERNANDA MEYGE DE BRITO ANALISTA DO MP ATIVO BELO HORIZONTE - COMARCA; BH-12PJ JUIZO CRIMINAL-GAB 104PJ 5.139,92 0,00 0,00 2.569,96 1.713,31 0,00 9.423,19 565,39 859,80 0,00 1.425,19 7.998,00 726,01 0,00 30/06/2015
998 556500 FERNANDA OTERO COSTA ANALISTA DO MP ATIVO BELO HORIZONTE - COMARCA; ASSESS TECNICO-JUR JUNTO AS PROC. DE JUST 5.307,28 0,00 0,00 2.653,64 0,00 0,00 7.960,92 583,80 429,60 0,00 1.013,40 6.947,52 726,01 0,00 30/06/2015
999 615300 FERNANDA PATRICIA RIBEIRO MOTA OFICIAL DO MP ATIVO UBERABA - COMARCA; UBERABA-PJ-05PJ 3.129,28 0,00 0,00 0,00 0,00 0,00 3.129,28 365,93 89,30 0,00 455,23 2.674,05 726,01 197,32 30/06/2015
1000 619800 FERNANDA PINTO PEREIRA ANALISTA DO MP ATIVO UBERLÂNDIA - COMARCA; UBERLANDIA-PJ-20PJ 5.139,92 0,00 0,00 2.569,96 0,00 0,00 7.709,88 565,39 393,14 0,00 958,53 6.751,35 726,01 0,00 30/06/2015
1001 412900 FERNANDA PORTELA ROSA ANALISTA DO MP ATIVO BELO HORIZONTE - COMARCA; BH-08PJ JUIZADO ESPECIAL-SECRETARIA 8.727,00 872,70 0,00 3.531,77 0,00 0,00 13.131,47 1.276,53 1.998,67 0,00 3.275,20 9.856,27 1.956,33 2.218,80 30/06/2015
1002 274301 FERNANDA QUEIROZ PARREIRA ANALISTA DO MP ATIVO PATOS DE MINAS - COMARCA; COORD REG PJ DEF EDU DIR CRI ADO AL PAR NOROE 6.641,51 398,49 0,00 3.520,00 0,00 0,00 10.560,00 774,40 853,68 0,00 1.628,08 8.931,92 726,01 0,00 30/06/2015
1003 467900 FERNANDA QUEIROZ SIMOES GANNAM ANALISTA DO MP ATIVO SÃO LOURENÇO - COMARCA; SAO LOURENCO-PJ-02PJ 7.200,74 432,04 0,00 3.816,39 0,00 0,00 11.449,17 839,61 998,76 0,00 1.838,37 9.610,80 961,01 0,00 30/06/2015
1004 255500 FERNANDA SIMOES LOPES MENDES ANALISTA DO MP ATIVO BELO HORIZONTE - COMARCA; BH-17PJ PATRIMONIO PUBLICO-SECRETARIA 11.643,70 2.328,74 0,00 6.986,22 0,00 0,00 20.958,66 1.536,97 2.446,12 0,00 3.983,09 16.975,57 1.196,01 0,00 30/06/2015
1005 481700 FERNANDA VIANA FROES DA SILVA OFICIAL DO MP ATIVO GOVERNADOR VALADARES - COMARCA; GOVERNADOR VALADARES-PJ-09PJ 4.668,87 280,13 0,00 2.474,50 1.649,67 0,00 9.073,17 544,39 795,57 0,00 1.339,96 7.733,21 1.196,01 0,00 30/06/2015
1006 123900 FERNANDO ANTONIO FARIA ABREU ASSESSOR/ANALISTA ATIVO BELO HORIZONTE - COMARCA; PROCURADORIA-GERAL ADJUNTA ADMINISTRATIVA 21.517,63 22.835,39 0,00 15.235,56 0,00 3.351,82 62.940,40 3.351,82 7.510,20 13.881,91 24.743,93 38.196,47 4.788,82 372,42 30/06/2015
1007 416900 FERNANDO APARECIDO DA SILVA ANALISTA DO MP ATIVO BOM DESPACHO - COMARCA; BOM DESPACHO-PJ-01PJ 8.185,27 4.092,64 0,00 6.138,96 0,00 0,00 18.416,87 1.350,57 2.031,38 0,00 3.381,95 15.034,92 5.023,82 372,42 30/06/2015
1008 395900 FERNANDO AUGUSTO ETO LAGES ANALISTA DO MP ATIVO BELO HORIZONTE - COMARCA; CENTRAL DE APOIO TECN-SETOR DE MEIO AMBIENTE 8.727,00 872,70 0,00 4.799,85 0,00 0,00 14.399,55 1.055,97 1.480,17 0,00 2.536,14 11.863,41 726,01 0,00 30/06/2015
1009 380500 FERNANDO BONES COSTA OFICIAL DO MP ATIVO BELO HORIZONTE - COMARCA; EXTINTA - DIVISÃO DE MATERIAL PERMANENTE 4.521,68 452,17 0,00 2.033,43 0,00 0,00 7.007,28 547,12 359,88 0,00 907,00 6.100,28 726,01 0,00 30/06/2015
1010 500100 FERNANDO CEZAR PINTO ASSESSOR/OFICIAL ATIVO BELO HORIZONTE - COMARCA; EXTINTA - DIVISÃO DE MATERIAL PERMANENTE 0,00 507,11 8.451,80 4.479,46 0,00 0,00 13.438,37 494,50 1.406,22 0,00 1.900,72 11.537,65 961,01 0,00 30/06/2015
1011 346100 FERNANDO EUSTAQUIO CAMPOS UTSCH MOREIRA ANALISTA DO MP ATIVO BELO HORIZONTE - COMARCA; DIRETORIA DE REDES E BANCOS DE DADOS 10.243,18 1.024,32 0,00 5.633,75 0,00 0,00 16.901,25 1.317,91 1.906,58 0,00 3.224,49 13.676,76 5.023,82 1.085,92 30/06/2015
1012 103500 FERNANDO LUIZ DA SILVA JUNIOR COORDENADOR/OFICIAL ATIVO BELO HORIZONTE - COMARCA; DIVISAO DE ATENDIMENTO E CONSULTA JURIDICA 13.616,17 7.560,10 0,00 10.588,14 0,00 0,00 31.764,41 2.096,89 4.377,47 0,00 6.474,36 25.290,05 726,01 0,00 30/06/2015
1013 287300 FERNANDO MARCIO ALVES MARTINS OFICIAL DO MP ATIVO LEOPOLDINA - COMARCA; LEOPOLDINA-PJ-01PJ 5.307,28 1.061,46 0,00 3.184,37 0,00 0,00 9.553,11 700,56 532,98 0,00 1.233,54 8.319,57 726,01 0,00 30/06/2015
1014 262200 FERNANDO MARCIO RESENDE PEREIRA COORDENADOR/OFICIAL ATIVO BELO HORIZONTE - COMARCA; BH-12PJ JUIZO CRIMINAL-SECRETARIA 0,00 1.921,48 9.607,41 0,00 0,00 0,00 11.528,89 1.037,34 2.015,82 0,00 3.053,16 8.475,73 726,01 0,00 30/06/2015
1015 472900 FERNANDO RODRIGUES DE FREITAS ANALISTA DO MP ATIVO BELO HORIZONTE - COMARCA; BH-15PJ M AMB PAT HIST CULT-ASS TECNICA 7.200,74 432,04 0,00 3.816,39 0,00 0,00 11.449,17 839,61 946,62 0,00 1.786,23 9.662,94 726,01 0,00 30/06/2015
1016 421400 FERNANDO TEODORO MACIEL ANALISTA DO MP ATIVO SANTA VITÓRIA - COMARCA; SANTA VITORIA-PJ-UNPJ 8.185,27 818,53 0,00 4.501,90 0,00 0,00 13.505,70 990,42 1.282,18 0,00 2.272,60 11.233,10 961,01 0,00 30/06/2015
1017 446300 FERNANDO VITOR DE OLIVEIRA ANALISTA DO MP ATIVO MONTES CLAROS - COMARCA; COORD REG BACIA RIOS VERDE GRANDE E PARDO 7.435,23 743,52 0,00 4.089,38 0,00 0,00 12.268,13 899,66 1.132,39 0,00 2.032,05 10.236,08 726,01 0,00 30/06/2015
1018 639300 FILIPE ALMEIDA RODRIGUES ANALISTA DO MP ATIVO TIMÓTEO - COMARCA; TIMOTEO-04 PJ 4.668,87 0,00 0,00 389,07 0,00 0,00 5.057,94 701,89 692,34 0,00 1.394,23 3.663,71 1.023,01 1.711,92 30/06/2015
1019 617100 FILLIPE DA SILVA BRAGA ANALISTA DO MP ATIVO DIVINO - COMARCA; DIVINO-PJ-UNPJ 4.668,87 0,00 0,00 2.334,44 0,00 0,00 7.003,31 513,58 298,81 0,00 812,39 6.190,92 726,01 0,00 30/06/2015
1020 398400 FLAVIA ALVARES GUIMARAES OFICIAL DO MP ATIVO BELO HORIZONTE - COMARCA; CGMP-SECRETARIA DA CORREGEDORIA-GERAL DO MP 5.658,41 565,84 0,00 3.112,13 0,00 0,00 9.336,38 684,67 601,89 0,00 1.286,56 8.049,82 726,01 0,00 30/06/2015
1021 398200 FLAVIA ALVES DE ASSUNCAO RODRIGUES ANALISTA DO MP ATIVO DIVINÓPOLIS - COMARCA; COORD REG DO MA DA BACIA DO ALTO SAO FRANC 8.185,27 818,53 0,00 0,00 0,00 0,00 9.003,80 990,42 1.334,32 0,00 2.324,74 6.679,06 726,01 0,00 30/06/2015
1022 318500 FLAVIA BEATRIZ NUNES CRUZ VIEIRA ANALISTA DO MP ATIVO BARBACENA - COMARCA; BARBACENA-PJ-SECRETARIA 10.243,18 2.048,64 0,00 4.452,46 0,00 0,00 16.744,28 1.352,10 2.034,79 0,00 3.386,89 13.357,39 1.196,01 0,00 30/06/2015
1023 496500 FLAVIA CARAM BORLIDO ANALISTA DO MP ATIVO BELO HORIZONTE - COMARCA; EXTINTA - DIVISAO DE SERVICOS GERAIS 6.641,51 398,49 0,00 2.705,96 0,00 0,00 9.745,96 774,40 853,68 0,00 1.628,08 8.117,88 726,01 0,00 30/06/2015
1024 534800 FLAVIA CONDE SOARES ANALISTA DO MP ATIVO BELO HORIZONTE - COMARCA; BH-13PJ JUÍZO DE TÓXICOS-ASSESSORIA JURIDICA 5.842,66 0,00 0,00 2.921,33 0,00 0,00 8.763,99 642,69 560,63 0,00 1.203,32 7.560,67 726,01 0,00 30/06/2015
1025 219500 FLAVIA CRISTINA ANCELMO OFICIAL DO MP ATIVO BELO HORIZONTE - COMARCA; BH-17PJ PATRIMONIO PUBLICO-SECRETARIA 6.641,51 1.328,30 0,00 3.005,94 0,00 0,00 10.975,75 876,68 1.081,25 0,00 1.957,93 9.017,82 726,01 0,00 30/06/2015
1026 329600 FLAVIA CRISTINA DE MATOS XAVIER ANALISTA DO MP ATIVO UBERABA - COMARCA; UBERABA-PJ-15PJ 10.243,18 2.048,64 0,00 6.145,91 0,00 0,00 18.437,73 1.352,10 2.034,79 0,00 3.386,89 15.050,84 961,01 0,00 30/06/2015
1027 207600 FLAVIA DE ANDRADE MANCINI ANALISTA DO MP ATIVO BELO HORIZONTE - COMARCA; ASSESSORIA JURIDICO-ADMINISTRATIVA 13.097,56 3.929,27 0,00 8.513,42 0,00 0,00 25.540,25 1.872,95 3.141,55 0,00 5.014,50 20.525,75 1.196,01 0,00 30/06/2015
1028 402801 FLAVIA MARIA DE RESENDE NASCIMENTO ANALISTA DO MP ATIVO SÃO JOÃO DEL REI - COMARCA; SAO JOAO DEL REI-PJ-04PJ 6.641,51 398,49 0,00 3.520,00 0,00 0,00 10.560,00 774,40 853,68 0,00 1.628,08 8.931,92 961,01 0,00 30/06/2015
1029 437500 FLAVIA MARIA TORRES MARCHETTI COORDENADOR/ANALISTA ATIVO BELO HORIZONTE - COMARCA; BH-13ª PJ JUÍXO DE TÓXICOS 0,00 960,74 9.607,41 5.284,08 0,00 0,00 15.852,23 899,66 1.685,20 0,00 2.584,86 13.267,37 1.196,01 0,00 30/06/2015
1030 386000 FLAVIA NEVES BRIGIDO OFICIAL DO MP ATIVO BELO HORIZONTE - COMARCA; PROMOT ESTADUAL DE DEF PATRI CULT E TUR DE MG 5.139,92 513,99 0,00 2.826,96 0,00 0,00 8.480,87 621,93 514,43 0,00 1.136,36 7.344,51 726,01 0,00 30/06/2015
1031 488600 FLAVIA PEREIRA COSTA ANALISTA DO MP ATIVO BELO HORIZONTE - COMARCA; CENTRAL DE APOIO TECNICO 6.641,51 398,49 0,00 3.520,00 0,00 0,00 10.560,00 774,40 853,68 0,00 1.628,08 8.931,92 726,01 0,00 30/06/2015
1032 365400 FLAVIA PEREIRA DA SILVA OFICIAL DO MP ATIVO BELO HORIZONTE - COMARCA; BH-15PJ M AMB 16PJ HAB URB-SECRETARIA 6.032,93 603,29 0,00 3.318,11 0,00 0,00 9.954,33 729,98 754,86 0,00 1.484,84 8.469,49 726,01 0,00 30/06/2015
1033 515400 FLAVIA RODRIGUES DE OLIVEIRA E SILVA PAIVA ANALISTA DO MP ATIVO CARATINGA - COMARCA; CARATINGA-PJ-05PJ 6.641,51 398,49 0,00 2.810,23 0,00 0,00 9.850,23 774,40 645,13 0,00 1.419,53 8.430,70 726,01 0,00 30/06/2015
1034 621600 FLAVIA SARMENTO RODRIGUES ANALISTA DO MP ATIVO BELO HORIZONTE - COMARCA; AUDITORIA INTERNA 4.668,87 0,00 0,00 1.928,24 0,00 0,00 6.597,11 513,58 298,81 0,00 812,39 5.784,72 961,01 0,00 30/06/2015
1035 535800 FLAVIA SILVA VALADAO OFICIAL DO MP ATIVO TRÊS CORACOES - COMARCA; TRES CORACOES-PJ-04PJ 3.445,03 0,00 0,00 1.722,52 0,00 0,00 5.167,55 378,95 76,67 0,00 455,62 4.711,93 961,01 0,00 30/06/2015
1036 515300 FLAVIA VIEIRA OLIVEIRA GOMES ANALISTA DO MP ATIVO BELO HORIZONTE - COMARCA; CAO-CRIMINAL-SECRETARIA 6.641,51 398,49 0,00 3.520,00 0,00 0,00 10.560,00 774,40 853,68 0,00 1.628,08 8.931,92 726,01 0,00 30/06/2015
1037 377500 FLAVIANA GONCALVES DE OLIVEIRA ANALISTA DO MP ATIVO TIMÓTEO - COMARCA; TIMOTEO-PJ-02PJ 8.727,00 872,70 0,00 4.799,85 0,00 0,00 14.399,55 1.055,97 1.480,17 0,00 2.536,14 11.863,41 726,01 0,00 30/06/2015
1038 273100 FLAVIANE DOS SANTOS CASTRO OFICIAL DO MP ATIVO CAXAMBU - COMARCA; CAXAMBU-PJ-SECRETARIA 7.200,74 1.440,15 0,00 3.274,59 2.880,30 0,00 14.795,78 1.098,14 2.261,80 0,00 3.359,94 11.435,84 1.196,01 1.342,16 30/06/2015
1039 310600 FLAVIANE NAVES ALCANTARA ASSESSOR/OFICIAL ATIVO BELO HORIZONTE - COMARCA; COMB CRIMES PRAT POR AG POL MUN-SECRETARIA 0,00 1.690,36 8.451,80 5.071,08 3.380,72 0,00 18.593,96 905,23 2.600,49 0,00 3.505,72 15.088,24 726,01 0,00 30/06/2015
1040 455800 FLAVIO ANTONIO RIBEIRO OFICIAL DO MP ATIVO BELO HORIZONTE - COMARCA; GRUPO ESP PROM PROC JUST DEF PROB ADM PAT PUB 3.916,07 234,96 0,00 0,00 0,00 0,00 4.151,03 456,61 199,36 0,00 655,97 3.495,06 726,01 0,00 30/06/2015
1041 458200 FLAVIO AUGUSTO BRAGA SOARES ANALISTA DO MP ATIVO BELO HORIZONTE - COMARCA; DIVISAO DE MANUTENCAO PREDIAL 7.200,74 432,04 0,00 3.816,39 0,00 0,00 11.449,17 839,61 998,76 0,00 1.838,37 9.610,80 726,01 0,00 30/06/2015
1042 516500 FLAVIO AUGUSTO RODRIGUES CORREA ANALISTA DO MP ATIVO BELO HORIZONTE - COMARCA; COORD REG BACIAS RIO VELHAS E PARAOPEBA 6.032,93 361,98 0,00 0,00 0,00 0,00 6.394,91 703,44 695,79 0,00 1.399,23 4.995,68 726,01 0,00 30/06/2015
1043 84300 FLAVIO DE FARIA BELTRAO OFICIAL DO MP ATIVO BELO HORIZONTE - COMARCA; DIRETORIA DE ADMINISTRACAO FINANCEIRA 19.311,46 13.518,02 0,00 0,00 0,00 0,00 32.829,48 3.351,82 6.536,31 2.358,37 12.246,50 20.582,98 726,01 0,00 30/06/2015
1044 266600 FLAVIO GUIMARAES LANA ANALISTA DO MP ATIVO BELO HORIZONTE - COMARCA; CENTRAL DE APOIO TECN-SETOR DE MEIO AMBIENTE 9.607,41 1.921,48 0,00 5.764,45 0,00 0,00 17.293,34 1.268,18 1.952,34 0,00 3.220,52 14.072,82 726,01 0,00 30/06/2015
1045 552600 FLAVIO HENRIQUE EVARISTO GOMES ASSESSOR/ANALISTA ATIVO BELO HORIZONTE - COMARCA; DIRETORIA DE SUPORTE E MANUTENCAO 0,00 0,00 8.451,80 4.225,90 0,00 0,00 12.677,70 760,47 1.245,76 0,00 2.006,23 10.671,47 4.788,82 372,42 30/06/2015
1046 241500 FLAVIO HENRIQUE SILVA MARTINS LAGE OFICIAL DO MP ATIVO BELO HORIZONTE - COMARCA; CAO-CRIANCAS E ADOLESCENTES-SECRETARIA 6.973,67 2.092,10 0,00 4.532,89 0,00 0,00 13.598,66 1.030,38 1.423,22 0,00 2.453,60 11.145,06 726,01 301,28 30/06/2015
1047 86700 FLAVIO LUCAS TOMAZ AGENTE DO MP ATIVO BELO HORIZONTE - COMARCA; BH-06PJ JUIZO CIVEL-SECRETARIA 5.658,41 2.829,20 0,00 4.243,81 0,00 0,00 12.731,42 933,64 779,77 0,00 1.713,41 11.018,01 726,01 0,00 30/06/2015
1048 407200 FLAVIO LUCIO MONTEIRO PENA ANALISTA DO MP ATIVO BELO HORIZONTE - COMARCA; DIRETORIA DE IMPRENSA 7.435,23 743,52 0,00 4.089,38 0,00 0,00 12.268,13 899,66 1.132,39 0,00 2.032,05 10.236,08 726,01 0,00 30/06/2015
1049 451700 FLAVIO MAGALHAES PEREIRA ANALISTA DO MP ATIVO BELO HORIZONTE - COMARCA; BH-12PJ JUIZO CRIMINAL-GAB 098PJ 7.435,23 743,52 0,00 4.089,38 0,00 0,00 12.268,13 957,87 1.261,90 0,00 2.219,77 10.048,36 983,95 552,79 30/06/2015
1050 481500 FLAVIO NEVES GUELBER DE MACEDO OFICIAL DO MP ATIVO SÃO JOÃO NEPOMUCENO - COMARCA; SAO JOAO NEPOMUCENO-PJ-02PJ 4.241,01 254,46 0,00 2.247,74 0,00 0,00 6.743,21 494,50 264,09 0,00 758,59 5.984,62 726,01 0,00 30/06/2015
1051 547500 FRANCELINO MOREIRA DA SILVA ANALISTA DO MP ATIVO BELO HORIZONTE - COMARCA; BH-10PJ EXECUÇÃO PENAL-SECRETARIA 5.307,28 0,00 0,00 2.653,64 0,00 0,00 7.960,92 690,80 712,26 0,00 1.403,06 6.557,86 961,01 1.134,86 30/06/2015
1052 278100 FRANCIANE MARY DE SOUZA DOMENICI DE BRITO E CASTRO ANALISTA DO MP ATIVO BELO HORIZONTE - COMARCA; BH-12PJ JUIZO CRIMINAL-GAB 083PJ 11.276,58 2.255,32 0,00 6.765,95 0,00 0,00 20.297,85 1.488,51 2.390,44 0,00 3.878,95 16.418,90 726,01 0,00 30/06/2015
1053 192501 FRANCIELLE REIS DE OLIVEIRA ANALISTA DO MP ATIVO PASSOS - COMARCA; PASSOS-PJ-04PJ 10.576,63 2.115,33 0,00 6.345,98 0,00 0,00 19.037,94 1.396,12 2.080,58 0,00 3.476,70 15.561,24 961,01 0,00 30/06/2015
1054 523600 FRANCINE MOURA LIMIRIO OFICIAL DO MP ATIVO UBERABA - COMARCA; UBERABA-PJ-02PJ 4.241,01 254,46 0,00 1.868,44 0,00 0,00 6.363,91 494,50 264,09 0,00 758,59 5.605,32 726,01 0,00 30/06/2015
1055 467200 FRANCINI RENNO ANALISTA DO MP ATIVO CASSIA - COMARCA; CASSIA-PJ-02PJ 7.200,74 432,04 0,00 3.816,39 0,00 0,00 11.449,17 839,61 998,76 0,00 1.838,37 9.610,80 726,01 0,00 30/06/2015
1056 189300 FRANCIS BERNARDO DO NASCIMENTO OFICIAL DO MP ATIVO VARGINHA - COMARCA; VARGINHA-PJ-05PJ 9.920,24 2.976,07 0,00 6.448,16 0,00 0,00 19.344,47 1.418,59 2.182,74 0,00 3.601,33 15.743,14 1.196,01 0,00 30/06/2015
1057 207800 FRANCISCO CAMPOS PIRES DE MORAIS ANALISTA DO MP ATIVO BELO HORIZONTE - COMARCA; CENTRAL DE APOIO TECN-SETOR DE MEIO AMBIENTE 14.715,61 4.414,68 0,00 9.565,15 0,00 0,00 28.695,44 2.104,33 3.708,50 0,00 5.812,83 22.882,61 4.788,82 372,42 30/06/2015
1058 424200 FRANCISCO DE FREITAS JUNIOR ANALISTA DO MP ATIVO MONTE AZUL - COMARCA; MONTE AZUL-PJ-UNPJ 8.185,27 818,53 0,00 3.339,53 0,00 0,00 12.343,33 990,42 1.334,32 0,00 2.324,74 10.018,59 726,01 0,00 30/06/2015
1059 607700 FRANCISCO EDUARDO DE CASTRO ANALISTA DO MP ATIVO BELO HORIZONTE - COMARCA; DIR ANALISES TECNOLOGIA INTELIGENCIA 4.820,91 0,00 0,00 2.410,46 1.606,97 0,00 8.838,34 530,30 752,47 0,00 1.282,77 7.555,57 726,01 0,00 30/06/2015
1060 204600 FRANCISCO FERREIRA NOVAIS OFICIAL DO MP ATIVO IPATINGA - COMARCA; IPATINGA-PJ-08PJ 7.435,23 2.230,57 0,00 4.832,90 0,00 0,00 14.498,70 1.130,30 1.541,29 0,00 2.671,59 11.827,11 793,41 611,40 30/06/2015
1061 60500 FRANCISCO OLIMPIO TEIXEIRA AGENTE DO MP ATIVO BELO HORIZONTE - COMARCA; EXTINTA - DIVISAO DE TRANSPORTES 4.977,82 3.982,26 0,00 4.480,04 0,00 1.408,01 14.848,13 1.408,01 2.494,25 0,00 3.902,26 10.945,87 726,01 3.840,00 30/06/2015
1062 411600 FRANCISCO PAIVA BRITO ANALISTA DO MP ATIVO BELO HORIZONTE - COMARCA; TRIBUNAL DO JURI-07 PJ-02 TRIBUNAL 7.435,23 743,52 0,00 4.089,38 0,00 0,00 12.268,13 899,66 1.132,39 0,00 2.032,05 10.236,08 726,01 0,00 30/06/2015
1063 515800 FRANCISCO RAFAEL DA SILVA NETO ANALISTA DO MP ATIVO SACRAMENTO - COMARCA; SACRAMENTO-PJ-01PJ 5.480,05 328,80 0,00 2.904,43 1.936,28 0,00 10.649,56 638,97 928,42 0,00 1.567,39 9.082,17 726,01 0,00 30/06/2015
1064 515200 FRANCISLEI ELIAS GONCALVES OFICIAL DO MP ATIVO PASSOS - COMARCA; PASSOS-PJ-07PJ 3.557,16 711,43 0,00 0,00 0,00 0,00 4.268,59 469,54 129,74 0,00 599,28 3.669,31 961,01 0,00 30/06/2015
1065 443600 FRANCISLEI MARTINS DE SOUSA ANALISTA DO MP ATIVO TIMÓTEO - COMARCA; TIMOTEO-PJ-01PJ 7.435,23 743,52 0,00 0,00 0,00 0,00 8.178,75 899,66 1.132,39 0,00 2.032,05 6.146,70 726,01 0,00 30/06/2015
1066 424500 FREDERICO AUGUSTO COBRA MULLER ANALISTA DO MP ATIVO POUSO ALEGRE - COMARCA; POUSO ALEGRE-PJ-02PJ 8.185,27 818,53 0,00 3.339,53 0,00 0,00 12.343,33 990,42 1.334,32 0,00 2.324,74 10.018,59 726,01 0,00 30/06/2015
1067 473100 FREDERICO AUGUSTO LIMA FELICIO ANALISTA DO MP ATIVO CONCEIÇÃO DO MATO DENTRO - COMARCA; CONCEICAO DO MATO DENTRO-PJ-UNPJ 7.200,74 432,04 0,00 3.816,39 0,00 0,00 11.449,17 839,61 998,76 0,00 1.838,37 9.610,80 726,01 0,00 30/06/2015
1068 318100 FREDERICO BIANCHINI JOVIANO DOS SANTOS ASSESSOR/OFICIAL ATIVO BELO HORIZONTE - COMARCA; PROMOT ESTADUAL DE DEF PATRI CULT E TUR DE MG 0,00 1.690,36 8.451,80 3.873,02 0,00 0,00 14.015,18 657,07 1.739,04 0,00 2.396,11 11.619,07 726,01 0,00 30/06/2015
1069 124200 FREDERICO DE SOUZA ROCHA OFICIAL DO MP ATIVO ESPINOSA - COMARCA; ESPINOSA-PJ-SECRETARIA 10.921,00 8.736,80 0,00 9.828,90 0,00 0,00 29.486,70 2.162,36 3.837,61 0,00 5.999,97 23.486,73 888,57 0,00 30/06/2015
1070 177100 FREDERICO FERNANDES DE ANDRADE OFICIAL DO MP ATIVO BELO HORIZONTE - COMARCA; SUPERINTENDENCIA DE TECNOLOGIA DA INFORMACAO 8.727,00 2.618,10 0,00 4.094,89 0,00 0,00 15.439,99 1.326,67 2.082,48 0,00 3.409,15 12.030,84 803,29 722,60 30/06/2015
1071 456200 FREDERICO FERNANDES PASSOS ANALISTA DO MP ATIVO BELO HORIZONTE - COMARCA; DIRETORIA DE REDES E BANCOS DE DADOS 7.200,74 432,04 0,00 3.816,39 2.544,26 0,00 13.993,43 839,61 1.698,43 0,00 2.538,04 11.455,39 726,01 0,00 30/06/2015
1072 400900 FREDERICO LUCIANO BORGES REIS ANALISTA DO MP ATIVO BELO HORIZONTE - COMARCA; DIRETORIA DE SISTEMAS DE INFORMACAO 8.727,00 872,70 0,00 4.799,85 0,00 0,00 14.399,55 1.122,57 1.628,35 0,00 2.750,92 11.648,63 888,51 620,34 30/06/2015
1073 466200 FREDERICO LUIS FERNANDES ANALISTA DO MP ATIVO BELO HORIZONTE - COMARCA; BH-12PJ JUIZO CRIMINAL-GAB 106PJ 7.200,74 432,04 0,00 3.816,39 0,00 0,00 11.449,17 839,61 946,62 0,00 1.786,23 9.662,94 726,01 0,00 30/06/2015
1074 419700 FREDERICO MECKLER SANTOS ANALISTA DO MP ATIVO CLÁUDIO - COMARCA; CLAUDIO-PJ-UNPJ 8.185,27 818,53 0,00 4.501,90 0,00 0,00 13.505,70 990,42 1.334,32 0,00 2.324,74 11.180,96 726,01 0,00 30/06/2015
1075 257100 FULVIA HERONVILLE DA SILVA OFICIAL DO MP ATIVO BELO HORIZONTE - COMARCA; COORD DE CONTROLE DA CONSTITUCIONALIDADE 7.200,74 1.440,15 0,00 3.248,52 0,00 0,00 11.889,41 950,50 1.193,36 0,00 2.143,86 9.745,55 961,01 0,00 30/06/2015
1076 621700 GABRIEL ANDRADE SOUZA GROSSI RIBEIRO OFICIAL DO MP ATIVO BETIM - COMARCA; BETIM-PJ-SECRETARIA 3.030,62 0,00 0,00 1.515,31 1.010,21 0,00 5.556,14 333,37 201,32 0,00 534,69 5.021,45 726,01 0,00 30/06/2015
1077 613600 GABRIEL BASTOS MEIRELES ANALISTA DO MP ATIVO BELO HORIZONTE - COMARCA; BH-16PJ HABITACAO E URBANISMO 4.820,91 0,00 0,00 2.410,46 0,00 0,00 7.231,37 530,30 329,26